<?xml version="1.0" encoding="UTF-8" standalone="no" ?>
<gpx xmlns="http://www.topografix.com/GPX/1/1" xmlns:xsi="http://www.w3.org/2001/XMLSchema-instance" xsi:schemaLocation="http://www.topografix.com/GPX/1/1 http://www.topografix.com/GPX/1/1/gpx.xsd" version="1.1" creator="VisuGPX - https://www.visugpx.com">
  <metadata>
    <name>2016.08.12</name>
    <desc><![CDATA[Ouistreham, Bénouville, Cabour]]></desc>
  </metadata>
  <trk>
    <name><![CDATA[2016.08.12 Ouistreham, Cabour]]></name>
    <trkseg>
      <trkpt lat="49.28594" lon="-0.27092">
        <ele>6.87</ele>
        <time>2016-08-12T12:58:51Z</time>
      </trkpt>
      <trkpt lat="49.28589" lon="-0.271">
        <ele>6.39</ele>
        <time>2016-08-12T12:58:52Z</time>
      </trkpt>
      <trkpt lat="49.28589" lon="-0.27113">
        <ele>3.5</ele>
        <time>2016-08-12T12:58:54Z</time>
      </trkpt>
      <trkpt lat="49.28593" lon="-0.27136">
        <ele>6.87</ele>
        <time>2016-08-12T12:58:59Z</time>
      </trkpt>
      <trkpt lat="49.28593" lon="-0.27141">
        <ele>4.46</ele>
        <time>2016-08-12T12:59:02Z</time>
      </trkpt>
      <trkpt lat="49.28583" lon="-0.27151">
        <ele>3.5</ele>
        <time>2016-08-12T12:59:11Z</time>
      </trkpt>
      <trkpt lat="49.28575" lon="-0.27155">
        <ele>3.02</ele>
        <time>2016-08-12T12:59:14Z</time>
      </trkpt>
      <trkpt lat="49.28553" lon="-0.27102">
        <ele>2.06</ele>
        <time>2016-08-12T12:59:25Z</time>
      </trkpt>
      <trkpt lat="49.28536" lon="-0.27035">
        <ele>1.1</ele>
        <time>2016-08-12T12:59:38Z</time>
      </trkpt>
      <trkpt lat="49.28537" lon="-0.27001">
        <ele>1.58</ele>
        <time>2016-08-12T12:59:48Z</time>
      </trkpt>
      <trkpt lat="49.28531" lon="-0.26984">
        <ele>0.62</ele>
        <time>2016-08-12T12:59:53Z</time>
      </trkpt>
      <trkpt lat="49.2853" lon="-0.26978">
        <ele>0.62</ele>
        <time>2016-08-12T12:59:54Z</time>
      </trkpt>
      <trkpt lat="49.28529" lon="-0.26973">
        <ele>0.62</ele>
        <time>2016-08-12T12:59:55Z</time>
      </trkpt>
      <trkpt lat="49.28528" lon="-0.26966">
        <ele>0.62</ele>
        <time>2016-08-12T12:59:56Z</time>
      </trkpt>
      <trkpt lat="49.28529" lon="-0.2696">
        <ele>0.62</ele>
        <time>2016-08-12T12:59:57Z</time>
      </trkpt>
      <trkpt lat="49.2853" lon="-0.26953">
        <ele>0.62</ele>
        <time>2016-08-12T12:59:58Z</time>
      </trkpt>
      <trkpt lat="49.28531" lon="-0.26947">
        <ele>0.62</ele>
        <time>2016-08-12T12:59:59Z</time>
      </trkpt>
      <trkpt lat="49.28533" lon="-0.26941">
        <ele>0.62</ele>
        <time>2016-08-12T13:00:00Z</time>
      </trkpt>
      <trkpt lat="49.28546" lon="-0.26889">
        <ele>0.62</ele>
        <time>2016-08-12T13:00:09Z</time>
      </trkpt>
      <trkpt lat="49.28544" lon="-0.26877">
        <ele>0.62</ele>
        <time>2016-08-12T13:00:11Z</time>
      </trkpt>
      <trkpt lat="49.28542" lon="-0.26871">
        <ele>0.62</ele>
        <time>2016-08-12T13:00:12Z</time>
      </trkpt>
      <trkpt lat="49.28538" lon="-0.26859">
        <ele>1.1</ele>
        <time>2016-08-12T13:00:14Z</time>
      </trkpt>
      <trkpt lat="49.2851" lon="-0.26781">
        <ele>2.06</ele>
        <time>2016-08-12T13:00:27Z</time>
      </trkpt>
      <trkpt lat="49.28508" lon="-0.26776">
        <ele>2.54</ele>
        <time>2016-08-12T13:00:28Z</time>
      </trkpt>
      <trkpt lat="49.28506" lon="-0.2677">
        <ele>2.54</ele>
        <time>2016-08-12T13:00:29Z</time>
      </trkpt>
      <trkpt lat="49.28503" lon="-0.26754">
        <ele>3.5</ele>
        <time>2016-08-12T13:00:38Z</time>
      </trkpt>
      <trkpt lat="49.28503" lon="-0.26749">
        <ele>3.98</ele>
        <time>2016-08-12T13:00:41Z</time>
      </trkpt>
      <trkpt lat="49.28505" lon="-0.26745">
        <ele>3.5</ele>
        <time>2016-08-12T13:00:42Z</time>
      </trkpt>
      <trkpt lat="49.28507" lon="-0.26742">
        <ele>3.98</ele>
        <time>2016-08-12T13:00:43Z</time>
      </trkpt>
      <trkpt lat="49.28527" lon="-0.26725">
        <ele>4.94</ele>
        <time>2016-08-12T13:00:49Z</time>
      </trkpt>
      <trkpt lat="49.28536" lon="-0.2672">
        <ele>4.94</ele>
        <time>2016-08-12T13:00:51Z</time>
      </trkpt>
      <trkpt lat="49.28592" lon="-0.26672">
        <ele>5.42</ele>
        <time>2016-08-12T13:01:04Z</time>
      </trkpt>
      <trkpt lat="49.28603" lon="-0.26664">
        <ele>5.91</ele>
        <time>2016-08-12T13:01:11Z</time>
      </trkpt>
      <trkpt lat="49.28604" lon="-0.26663">
        <ele>5.42</ele>
        <time>2016-08-12T13:01:12Z</time>
      </trkpt>
      <trkpt lat="49.28608" lon="-0.26658">
        <ele>3.98</ele>
        <time>2016-08-12T13:01:26Z</time>
      </trkpt>
      <trkpt lat="49.28609" lon="-0.26656">
        <ele>4.94</ele>
        <time>2016-08-12T13:01:38Z</time>
      </trkpt>
      <trkpt lat="49.28609" lon="-0.26655">
        <ele>4.94</ele>
        <time>2016-08-12T13:01:39Z</time>
      </trkpt>
      <trkpt lat="49.2861" lon="-0.26652">
        <ele>4.94</ele>
        <time>2016-08-12T13:01:40Z</time>
      </trkpt>
      <trkpt lat="49.28611" lon="-0.26649">
        <ele>4.94</ele>
        <time>2016-08-12T13:01:41Z</time>
      </trkpt>
      <trkpt lat="49.28611" lon="-0.26644">
        <ele>4.94</ele>
        <time>2016-08-12T13:01:42Z</time>
      </trkpt>
      <trkpt lat="49.2861" lon="-0.26639">
        <ele>4.94</ele>
        <time>2016-08-12T13:01:43Z</time>
      </trkpt>
      <trkpt lat="49.28608" lon="-0.26633">
        <ele>4.94</ele>
        <time>2016-08-12T13:01:44Z</time>
      </trkpt>
      <trkpt lat="49.28607" lon="-0.26628">
        <ele>4.94</ele>
        <time>2016-08-12T13:01:45Z</time>
      </trkpt>
      <trkpt lat="49.28605" lon="-0.26623">
        <ele>4.94</ele>
        <time>2016-08-12T13:01:46Z</time>
      </trkpt>
      <trkpt lat="49.28577" lon="-0.26542">
        <ele>3.98</ele>
        <time>2016-08-12T13:02:01Z</time>
      </trkpt>
      <trkpt lat="49.28566" lon="-0.26513">
        <ele>3.5</ele>
        <time>2016-08-12T13:02:13Z</time>
      </trkpt>
      <trkpt lat="49.28561" lon="-0.26501">
        <ele>3.5</ele>
        <time>2016-08-12T13:02:34Z</time>
      </trkpt>
      <trkpt lat="49.28555" lon="-0.2649">
        <ele>3.5</ele>
        <time>2016-08-12T13:02:36Z</time>
      </trkpt>
      <trkpt lat="49.28553" lon="-0.26482">
        <ele>3.98</ele>
        <time>2016-08-12T13:02:37Z</time>
      </trkpt>
      <trkpt lat="49.28511" lon="-0.2636">
        <ele>3.5</ele>
        <time>2016-08-12T13:02:51Z</time>
      </trkpt>
      <trkpt lat="49.28462" lon="-0.26222">
        <ele>3.98</ele>
        <time>2016-08-12T13:03:07Z</time>
      </trkpt>
      <trkpt lat="49.28425" lon="-0.2611">
        <ele>4.94</ele>
        <time>2016-08-12T13:03:21Z</time>
      </trkpt>
      <trkpt lat="49.28423" lon="-0.26102">
        <ele>4.94</ele>
        <time>2016-08-12T13:03:22Z</time>
      </trkpt>
      <trkpt lat="49.28408" lon="-0.26058">
        <ele>7.35</ele>
        <time>2016-08-12T13:03:33Z</time>
      </trkpt>
      <trkpt lat="49.28405" lon="-0.26051">
        <ele>7.83</ele>
        <time>2016-08-12T13:03:48Z</time>
      </trkpt>
      <trkpt lat="49.28396" lon="-0.26031">
        <ele>7.83</ele>
        <time>2016-08-12T13:04:02Z</time>
      </trkpt>
      <trkpt lat="49.28363" lon="-0.25934">
        <ele>7.83</ele>
        <time>2016-08-12T13:04:14Z</time>
      </trkpt>
      <trkpt lat="49.2832" lon="-0.25821">
        <ele>7.35</ele>
        <time>2016-08-12T13:04:27Z</time>
      </trkpt>
      <trkpt lat="49.28316" lon="-0.25812">
        <ele>7.35</ele>
        <time>2016-08-12T13:04:28Z</time>
      </trkpt>
      <trkpt lat="49.28261" lon="-0.25697">
        <ele>5.91</ele>
        <time>2016-08-12T13:04:42Z</time>
      </trkpt>
      <trkpt lat="49.282" lon="-0.25565">
        <ele>5.42</ele>
        <time>2016-08-12T13:04:58Z</time>
      </trkpt>
      <trkpt lat="49.28159" lon="-0.25477">
        <ele>4.94</ele>
        <time>2016-08-12T13:05:09Z</time>
      </trkpt>
      <trkpt lat="49.28095" lon="-0.25345">
        <ele>4.94</ele>
        <time>2016-08-12T13:05:26Z</time>
      </trkpt>
      <trkpt lat="49.2804" lon="-0.25226">
        <ele>4.94</ele>
        <time>2016-08-12T13:05:41Z</time>
      </trkpt>
      <trkpt lat="49.27991" lon="-0.25122">
        <ele>4.46</ele>
        <time>2016-08-12T13:05:56Z</time>
      </trkpt>
      <trkpt lat="49.27988" lon="-0.25116">
        <ele>4.46</ele>
        <time>2016-08-12T13:05:57Z</time>
      </trkpt>
      <trkpt lat="49.27986" lon="-0.25111">
        <ele>3.98</ele>
        <time>2016-08-12T13:05:58Z</time>
      </trkpt>
      <trkpt lat="49.27984" lon="-0.25107">
        <ele>3.98</ele>
        <time>2016-08-12T13:05:59Z</time>
      </trkpt>
      <trkpt lat="49.27967" lon="-0.2508">
        <ele>3.98</ele>
        <time>2016-08-12T13:06:06Z</time>
      </trkpt>
      <trkpt lat="49.27963" lon="-0.25077">
        <ele>4.46</ele>
        <time>2016-08-12T13:06:07Z</time>
      </trkpt>
      <trkpt lat="49.27958" lon="-0.25073">
        <ele>4.46</ele>
        <time>2016-08-12T13:06:08Z</time>
      </trkpt>
      <trkpt lat="49.27952" lon="-0.25069">
        <ele>3.98</ele>
        <time>2016-08-12T13:06:09Z</time>
      </trkpt>
      <trkpt lat="49.27946" lon="-0.25067">
        <ele>3.98</ele>
        <time>2016-08-12T13:06:10Z</time>
      </trkpt>
      <trkpt lat="49.2794" lon="-0.25067">
        <ele>3.98</ele>
        <time>2016-08-12T13:06:11Z</time>
      </trkpt>
      <trkpt lat="49.27934" lon="-0.25068">
        <ele>3.98</ele>
        <time>2016-08-12T13:06:12Z</time>
      </trkpt>
      <trkpt lat="49.27929" lon="-0.25071">
        <ele>3.98</ele>
        <time>2016-08-12T13:06:13Z</time>
      </trkpt>
      <trkpt lat="49.27923" lon="-0.25074">
        <ele>3.98</ele>
        <time>2016-08-12T13:06:14Z</time>
      </trkpt>
      <trkpt lat="49.27918" lon="-0.25078">
        <ele>3.98</ele>
        <time>2016-08-12T13:06:15Z</time>
      </trkpt>
      <trkpt lat="49.27913" lon="-0.25083">
        <ele>3.98</ele>
        <time>2016-08-12T13:06:16Z</time>
      </trkpt>
      <trkpt lat="49.27904" lon="-0.25087">
        <ele>4.46</ele>
        <time>2016-08-12T13:06:21Z</time>
      </trkpt>
      <trkpt lat="49.27903" lon="-0.25086">
        <ele>4.46</ele>
        <time>2016-08-12T13:06:22Z</time>
      </trkpt>
      <trkpt lat="49.279" lon="-0.25085">
        <ele>4.46</ele>
        <time>2016-08-12T13:06:23Z</time>
      </trkpt>
      <trkpt lat="49.27898" lon="-0.25084">
        <ele>4.46</ele>
        <time>2016-08-12T13:06:24Z</time>
      </trkpt>
      <trkpt lat="49.2789" lon="-0.25078">
        <ele>5.91</ele>
        <time>2016-08-12T13:06:31Z</time>
      </trkpt>
      <trkpt lat="49.27888" lon="-0.25072">
        <ele>5.91</ele>
        <time>2016-08-12T13:06:32Z</time>
      </trkpt>
      <trkpt lat="49.27886" lon="-0.25066">
        <ele>6.39</ele>
        <time>2016-08-12T13:06:33Z</time>
      </trkpt>
      <trkpt lat="49.27885" lon="-0.25058">
        <ele>6.39</ele>
        <time>2016-08-12T13:06:34Z</time>
      </trkpt>
      <trkpt lat="49.27884" lon="-0.25051">
        <ele>6.39</ele>
        <time>2016-08-12T13:06:35Z</time>
      </trkpt>
      <trkpt lat="49.2788" lon="-0.25033">
        <ele>5.91</ele>
        <time>2016-08-12T13:06:38Z</time>
      </trkpt>
      <trkpt lat="49.27877" lon="-0.25028">
        <ele>6.39</ele>
        <time>2016-08-12T13:06:39Z</time>
      </trkpt>
      <trkpt lat="49.27873" lon="-0.25027">
        <ele>6.39</ele>
        <time>2016-08-12T13:06:40Z</time>
      </trkpt>
      <trkpt lat="49.27868" lon="-0.25027">
        <ele>5.91</ele>
        <time>2016-08-12T13:06:41Z</time>
      </trkpt>
      <trkpt lat="49.27863" lon="-0.25029">
        <ele>5.42</ele>
        <time>2016-08-12T13:06:42Z</time>
      </trkpt>
      <trkpt lat="49.27769" lon="-0.25054">
        <ele>3.98</ele>
        <time>2016-08-12T13:06:57Z</time>
      </trkpt>
      <trkpt lat="49.27655" lon="-0.25085">
        <ele>1.58</ele>
        <time>2016-08-12T13:07:14Z</time>
      </trkpt>
      <trkpt lat="49.27521" lon="-0.2512">
        <ele>3.5</ele>
        <time>2016-08-12T13:07:33Z</time>
      </trkpt>
      <trkpt lat="49.27391" lon="-0.25159">
        <ele>3.98</ele>
        <time>2016-08-12T13:07:52Z</time>
      </trkpt>
      <trkpt lat="49.27276" lon="-0.25188">
        <ele>3.5</ele>
        <time>2016-08-12T13:08:09Z</time>
      </trkpt>
      <trkpt lat="49.2727" lon="-0.2519">
        <ele>3.5</ele>
        <time>2016-08-12T13:08:10Z</time>
      </trkpt>
      <trkpt lat="49.27264" lon="-0.25194">
        <ele>3.5</ele>
        <time>2016-08-12T13:08:11Z</time>
      </trkpt>
      <trkpt lat="49.27259" lon="-0.25198">
        <ele>3.5</ele>
        <time>2016-08-12T13:08:12Z</time>
      </trkpt>
      <trkpt lat="49.27255" lon="-0.25203">
        <ele>3.98</ele>
        <time>2016-08-12T13:08:13Z</time>
      </trkpt>
      <trkpt lat="49.27252" lon="-0.25207">
        <ele>4.46</ele>
        <time>2016-08-12T13:08:14Z</time>
      </trkpt>
      <trkpt lat="49.27243" lon="-0.25216">
        <ele>4.46</ele>
        <time>2016-08-12T13:08:17Z</time>
      </trkpt>
      <trkpt lat="49.27238" lon="-0.25215">
        <ele>4.46</ele>
        <time>2016-08-12T13:08:18Z</time>
      </trkpt>
      <trkpt lat="49.27234" lon="-0.25213">
        <ele>4.46</ele>
        <time>2016-08-12T13:08:19Z</time>
      </trkpt>
      <trkpt lat="49.27229" lon="-0.25211">
        <ele>4.46</ele>
        <time>2016-08-12T13:08:20Z</time>
      </trkpt>
      <trkpt lat="49.27225" lon="-0.2521">
        <ele>4.46</ele>
        <time>2016-08-12T13:08:21Z</time>
      </trkpt>
      <trkpt lat="49.27219" lon="-0.2521">
        <ele>4.46</ele>
        <time>2016-08-12T13:08:22Z</time>
      </trkpt>
      <trkpt lat="49.27213" lon="-0.25211">
        <ele>4.94</ele>
        <time>2016-08-12T13:08:23Z</time>
      </trkpt>
      <trkpt lat="49.27175" lon="-0.2522">
        <ele>4.94</ele>
        <time>2016-08-12T13:08:29Z</time>
      </trkpt>
      <trkpt lat="49.27168" lon="-0.25219">
        <ele>4.94</ele>
        <time>2016-08-12T13:08:30Z</time>
      </trkpt>
      <trkpt lat="49.27161" lon="-0.25218">
        <ele>4.94</ele>
        <time>2016-08-12T13:08:31Z</time>
      </trkpt>
      <trkpt lat="49.27155" lon="-0.25218">
        <ele>4.94</ele>
        <time>2016-08-12T13:08:32Z</time>
      </trkpt>
      <trkpt lat="49.27148" lon="-0.25219">
        <ele>4.94</ele>
        <time>2016-08-12T13:08:33Z</time>
      </trkpt>
      <trkpt lat="49.27141" lon="-0.25221">
        <ele>4.94</ele>
        <time>2016-08-12T13:08:34Z</time>
      </trkpt>
      <trkpt lat="49.27135" lon="-0.25223">
        <ele>4.94</ele>
        <time>2016-08-12T13:08:35Z</time>
      </trkpt>
      <trkpt lat="49.27083" lon="-0.25235">
        <ele>4.46</ele>
        <time>2016-08-12T13:08:43Z</time>
      </trkpt>
      <trkpt lat="49.27077" lon="-0.25232">
        <ele>4.46</ele>
        <time>2016-08-12T13:08:44Z</time>
      </trkpt>
      <trkpt lat="49.27071" lon="-0.25227">
        <ele>4.46</ele>
        <time>2016-08-12T13:08:45Z</time>
      </trkpt>
      <trkpt lat="49.27066" lon="-0.25221">
        <ele>4.46</ele>
        <time>2016-08-12T13:08:46Z</time>
      </trkpt>
      <trkpt lat="49.27061" lon="-0.25218">
        <ele>4.94</ele>
        <time>2016-08-12T13:08:47Z</time>
      </trkpt>
      <trkpt lat="49.27057" lon="-0.25218">
        <ele>4.94</ele>
        <time>2016-08-12T13:08:48Z</time>
      </trkpt>
      <trkpt lat="49.27054" lon="-0.2522">
        <ele>5.42</ele>
        <time>2016-08-12T13:08:49Z</time>
      </trkpt>
      <trkpt lat="49.27052" lon="-0.25222">
        <ele>5.42</ele>
        <time>2016-08-12T13:08:50Z</time>
      </trkpt>
      <trkpt lat="49.27048" lon="-0.25223">
        <ele>4.94</ele>
        <time>2016-08-12T13:08:51Z</time>
      </trkpt>
      <trkpt lat="49.27044" lon="-0.25223">
        <ele>4.94</ele>
        <time>2016-08-12T13:08:52Z</time>
      </trkpt>
      <trkpt lat="49.27039" lon="-0.25223">
        <ele>4.94</ele>
        <time>2016-08-12T13:08:53Z</time>
      </trkpt>
      <trkpt lat="49.27033" lon="-0.25224">
        <ele>4.94</ele>
        <time>2016-08-12T13:08:54Z</time>
      </trkpt>
      <trkpt lat="49.26961" lon="-0.25246">
        <ele>4.46</ele>
        <time>2016-08-12T13:09:05Z</time>
      </trkpt>
      <trkpt lat="49.26954" lon="-0.25248">
        <ele>4.46</ele>
        <time>2016-08-12T13:09:06Z</time>
      </trkpt>
      <trkpt lat="49.26862" lon="-0.25274">
        <ele>3.02</ele>
        <time>2016-08-12T13:09:19Z</time>
      </trkpt>
      <trkpt lat="49.26744" lon="-0.25307">
        <ele>2.54</ele>
        <time>2016-08-12T13:09:35Z</time>
      </trkpt>
      <trkpt lat="49.26595" lon="-0.25347">
        <ele>2.06</ele>
        <time>2016-08-12T13:09:55Z</time>
      </trkpt>
      <trkpt lat="49.26477" lon="-0.25382">
        <ele>1.1</ele>
        <time>2016-08-12T13:10:11Z</time>
      </trkpt>
      <trkpt lat="49.26357" lon="-0.2543">
        <ele>3.02</ele>
        <time>2016-08-12T13:10:28Z</time>
      </trkpt>
      <trkpt lat="49.26232" lon="-0.25498">
        <ele>4.46</ele>
        <time>2016-08-12T13:10:44Z</time>
      </trkpt>
      <trkpt lat="49.26118" lon="-0.25577">
        <ele>4.46</ele>
        <time>2016-08-12T13:10:58Z</time>
      </trkpt>
      <trkpt lat="49.26056" lon="-0.25629">
        <ele>3.5</ele>
        <time>2016-08-12T13:11:08Z</time>
      </trkpt>
      <trkpt lat="49.26049" lon="-0.25636">
        <ele>3.5</ele>
        <time>2016-08-12T13:11:10Z</time>
      </trkpt>
      <trkpt lat="49.26045" lon="-0.25639">
        <ele>3.02</ele>
        <time>2016-08-12T13:11:11Z</time>
      </trkpt>
      <trkpt lat="49.2604" lon="-0.25641">
        <ele>3.02</ele>
        <time>2016-08-12T13:11:12Z</time>
      </trkpt>
      <trkpt lat="49.26034" lon="-0.25644">
        <ele>3.02</ele>
        <time>2016-08-12T13:11:13Z</time>
      </trkpt>
      <trkpt lat="49.26028" lon="-0.25648">
        <ele>2.54</ele>
        <time>2016-08-12T13:11:14Z</time>
      </trkpt>
      <trkpt lat="49.26022" lon="-0.25654">
        <ele>2.54</ele>
        <time>2016-08-12T13:11:15Z</time>
      </trkpt>
      <trkpt lat="49.26016" lon="-0.25662">
        <ele>2.54</ele>
        <time>2016-08-12T13:11:16Z</time>
      </trkpt>
      <trkpt lat="49.26009" lon="-0.25669">
        <ele>3.02</ele>
        <time>2016-08-12T13:11:17Z</time>
      </trkpt>
      <trkpt lat="49.25904" lon="-0.25773">
        <ele>3.5</ele>
        <time>2016-08-12T13:11:32Z</time>
      </trkpt>
      <trkpt lat="49.2581" lon="-0.25892">
        <ele>4.94</ele>
        <time>2016-08-12T13:11:47Z</time>
      </trkpt>
      <trkpt lat="49.25741" lon="-0.26056">
        <ele>6.39</ele>
        <time>2016-08-12T13:12:01Z</time>
      </trkpt>
      <trkpt lat="49.25673" lon="-0.26248">
        <ele>5.91</ele>
        <time>2016-08-12T13:12:17Z</time>
      </trkpt>
      <trkpt lat="49.25613" lon="-0.26385">
        <ele>6.39</ele>
        <time>2016-08-12T13:12:30Z</time>
      </trkpt>
      <trkpt lat="49.25534" lon="-0.26512">
        <ele>6.39</ele>
        <time>2016-08-12T13:12:44Z</time>
      </trkpt>
      <trkpt lat="49.25433" lon="-0.26629">
        <ele>5.91</ele>
        <time>2016-08-12T13:13:00Z</time>
      </trkpt>
      <trkpt lat="49.25336" lon="-0.2671">
        <ele>4.94</ele>
        <time>2016-08-12T13:13:14Z</time>
      </trkpt>
      <trkpt lat="49.2523" lon="-0.26792">
        <ele>4.94</ele>
        <time>2016-08-12T13:13:29Z</time>
      </trkpt>
      <trkpt lat="49.25108" lon="-0.26885">
        <ele>5.42</ele>
        <time>2016-08-12T13:13:46Z</time>
      </trkpt>
      <trkpt lat="49.24984" lon="-0.2698">
        <ele>4.94</ele>
        <time>2016-08-12T13:14:03Z</time>
      </trkpt>
      <trkpt lat="49.24844" lon="-0.27087">
        <ele>4.94</ele>
        <time>2016-08-12T13:14:22Z</time>
      </trkpt>
      <trkpt lat="49.24689" lon="-0.27199">
        <ele>4.94</ele>
        <time>2016-08-12T13:14:42Z</time>
      </trkpt>
      <trkpt lat="49.24571" lon="-0.27282">
        <ele>4.46</ele>
        <time>2016-08-12T13:14:57Z</time>
      </trkpt>
      <trkpt lat="49.24416" lon="-0.27394">
        <ele>4.94</ele>
        <time>2016-08-12T13:15:17Z</time>
      </trkpt>
      <trkpt lat="49.24335" lon="-0.27446">
        <ele>4.46</ele>
        <time>2016-08-12T13:15:29Z</time>
      </trkpt>
      <trkpt lat="49.24328" lon="-0.27448">
        <ele>4.46</ele>
        <time>2016-08-12T13:15:30Z</time>
      </trkpt>
      <trkpt lat="49.24315" lon="-0.27451">
        <ele>3.98</ele>
        <time>2016-08-12T13:15:32Z</time>
      </trkpt>
      <trkpt lat="49.24302" lon="-0.27454">
        <ele>3.98</ele>
        <time>2016-08-12T13:15:34Z</time>
      </trkpt>
      <trkpt lat="49.24295" lon="-0.27456">
        <ele>3.98</ele>
        <time>2016-08-12T13:15:35Z</time>
      </trkpt>
      <trkpt lat="49.24289" lon="-0.2746">
        <ele>3.98</ele>
        <time>2016-08-12T13:15:36Z</time>
      </trkpt>
      <trkpt lat="49.24273" lon="-0.27468">
        <ele>3.5</ele>
        <time>2016-08-12T13:15:41Z</time>
      </trkpt>
      <trkpt lat="49.24271" lon="-0.27471">
        <ele>3.5</ele>
        <time>2016-08-12T13:15:42Z</time>
      </trkpt>
      <trkpt lat="49.2427" lon="-0.27474">
        <ele>3.5</ele>
        <time>2016-08-12T13:15:43Z</time>
      </trkpt>
      <trkpt lat="49.24269" lon="-0.27477">
        <ele>3.5</ele>
        <time>2016-08-12T13:15:44Z</time>
      </trkpt>
      <trkpt lat="49.24267" lon="-0.2748">
        <ele>3.5</ele>
        <time>2016-08-12T13:15:45Z</time>
      </trkpt>
      <trkpt lat="49.24262" lon="-0.27486">
        <ele>4.46</ele>
        <time>2016-08-12T13:15:52Z</time>
      </trkpt>
      <trkpt lat="49.24261" lon="-0.27487">
        <ele>4.46</ele>
        <time>2016-08-12T13:15:53Z</time>
      </trkpt>
      <trkpt lat="49.24259" lon="-0.27488">
        <ele>4.46</ele>
        <time>2016-08-12T13:15:54Z</time>
      </trkpt>
      <trkpt lat="49.24257" lon="-0.27489">
        <ele>4.46</ele>
        <time>2016-08-12T13:15:55Z</time>
      </trkpt>
      <trkpt lat="49.24255" lon="-0.27489">
        <ele>4.46</ele>
        <time>2016-08-12T13:15:56Z</time>
      </trkpt>
      <trkpt lat="49.24253" lon="-0.27488">
        <ele>4.46</ele>
        <time>2016-08-12T13:15:57Z</time>
      </trkpt>
      <trkpt lat="49.24252" lon="-0.27485">
        <ele>4.46</ele>
        <time>2016-08-12T13:15:58Z</time>
      </trkpt>
      <trkpt lat="49.24253" lon="-0.27483">
        <ele>4.94</ele>
        <time>2016-08-12T13:16:07Z</time>
      </trkpt>
      <trkpt lat="49.24254" lon="-0.2748">
        <ele>4.94</ele>
        <time>2016-08-12T13:16:08Z</time>
      </trkpt>
      <trkpt lat="49.24254" lon="-0.27476">
        <ele>4.94</ele>
        <time>2016-08-12T13:16:09Z</time>
      </trkpt>
      <trkpt lat="49.24253" lon="-0.27472">
        <ele>4.94</ele>
        <time>2016-08-12T13:16:10Z</time>
      </trkpt>
      <trkpt lat="49.24251" lon="-0.27467">
        <ele>4.94</ele>
        <time>2016-08-12T13:16:11Z</time>
      </trkpt>
      <trkpt lat="49.24249" lon="-0.2746">
        <ele>4.94</ele>
        <time>2016-08-12T13:16:12Z</time>
      </trkpt>
      <trkpt lat="49.24246" lon="-0.27453">
        <ele>4.46</ele>
        <time>2016-08-12T13:16:13Z</time>
      </trkpt>
      <trkpt lat="49.24243" lon="-0.27446">
        <ele>3.98</ele>
        <time>2016-08-12T13:16:14Z</time>
      </trkpt>
      <trkpt lat="49.24241" lon="-0.27436">
        <ele>3.98</ele>
        <time>2016-08-12T13:16:15Z</time>
      </trkpt>
      <trkpt lat="49.24238" lon="-0.27427">
        <ele>3.98</ele>
        <time>2016-08-12T13:16:16Z</time>
      </trkpt>
      <trkpt lat="49.24207" lon="-0.27334">
        <ele>4.46</ele>
        <time>2016-08-12T13:16:26Z</time>
      </trkpt>
      <trkpt lat="49.24202" lon="-0.27327">
        <ele>4.46</ele>
        <time>2016-08-12T13:16:27Z</time>
      </trkpt>
      <trkpt lat="49.24186" lon="-0.27296">
        <ele>4.94</ele>
        <time>2016-08-12T13:16:31Z</time>
      </trkpt>
      <trkpt lat="49.24183" lon="-0.27288">
        <ele>4.94</ele>
        <time>2016-08-12T13:16:32Z</time>
      </trkpt>
      <trkpt lat="49.24183" lon="-0.27279">
        <ele>5.42</ele>
        <time>2016-08-12T13:16:33Z</time>
      </trkpt>
      <trkpt lat="49.24184" lon="-0.2727">
        <ele>5.42</ele>
        <time>2016-08-12T13:16:34Z</time>
      </trkpt>
      <trkpt lat="49.24186" lon="-0.27262">
        <ele>4.94</ele>
        <time>2016-08-12T13:16:35Z</time>
      </trkpt>
      <trkpt lat="49.24191" lon="-0.27256">
        <ele>4.94</ele>
        <time>2016-08-12T13:16:36Z</time>
      </trkpt>
      <trkpt lat="49.24196" lon="-0.27251">
        <ele>4.46</ele>
        <time>2016-08-12T13:16:37Z</time>
      </trkpt>
      <trkpt lat="49.24201" lon="-0.27248">
        <ele>4.46</ele>
        <time>2016-08-12T13:16:38Z</time>
      </trkpt>
      <trkpt lat="49.24207" lon="-0.27244">
        <ele>4.46</ele>
        <time>2016-08-12T13:16:39Z</time>
      </trkpt>
      <trkpt lat="49.24265" lon="-0.27204">
        <ele>5.91</ele>
        <time>2016-08-12T13:16:50Z</time>
      </trkpt>
      <trkpt lat="49.24274" lon="-0.27196">
        <ele>5.91</ele>
        <time>2016-08-12T13:16:52Z</time>
      </trkpt>
      <trkpt lat="49.24346" lon="-0.27139">
        <ele>4.94</ele>
        <time>2016-08-12T13:17:06Z</time>
      </trkpt>
      <trkpt lat="49.24434" lon="-0.27072">
        <ele>5.42</ele>
        <time>2016-08-12T13:17:22Z</time>
      </trkpt>
      <trkpt lat="49.24502" lon="-0.27024">
        <ele>6.87</ele>
        <time>2016-08-12T13:17:34Z</time>
      </trkpt>
      <trkpt lat="49.24523" lon="-0.27007">
        <ele>6.87</ele>
        <time>2016-08-12T13:17:38Z</time>
      </trkpt>
      <trkpt lat="49.2456" lon="-0.26981">
        <ele>5.42</ele>
        <time>2016-08-12T13:17:45Z</time>
      </trkpt>
      <trkpt lat="49.24565" lon="-0.26975">
        <ele>5.42</ele>
        <time>2016-08-12T13:17:46Z</time>
      </trkpt>
      <trkpt lat="49.24568" lon="-0.26967">
        <ele>4.94</ele>
        <time>2016-08-12T13:17:47Z</time>
      </trkpt>
      <trkpt lat="49.24569" lon="-0.26959">
        <ele>4.94</ele>
        <time>2016-08-12T13:17:48Z</time>
      </trkpt>
      <trkpt lat="49.24568" lon="-0.26951">
        <ele>4.94</ele>
        <time>2016-08-12T13:17:49Z</time>
      </trkpt>
      <trkpt lat="49.24566" lon="-0.26945">
        <ele>4.46</ele>
        <time>2016-08-12T13:17:50Z</time>
      </trkpt>
      <trkpt lat="49.24564" lon="-0.26938">
        <ele>4.46</ele>
        <time>2016-08-12T13:17:51Z</time>
      </trkpt>
      <trkpt lat="49.24561" lon="-0.26933">
        <ele>4.46</ele>
        <time>2016-08-12T13:17:52Z</time>
      </trkpt>
      <trkpt lat="49.24559" lon="-0.26929">
        <ele>4.46</ele>
        <time>2016-08-12T13:17:53Z</time>
      </trkpt>
      <trkpt lat="49.24557" lon="-0.26924">
        <ele>4.46</ele>
        <time>2016-08-12T13:17:54Z</time>
      </trkpt>
      <trkpt lat="49.24557" lon="-0.2692">
        <ele>3.98</ele>
        <time>2016-08-12T13:17:55Z</time>
      </trkpt>
      <trkpt lat="49.24558" lon="-0.26916">
        <ele>3.98</ele>
        <time>2016-08-12T13:17:56Z</time>
      </trkpt>
      <trkpt lat="49.24564" lon="-0.26919">
        <ele>3.98</ele>
        <time>2016-08-12T13:17:59Z</time>
      </trkpt>
      <trkpt lat="49.24573" lon="-0.26953">
        <ele>3.98</ele>
        <time>2016-08-12T13:18:06Z</time>
      </trkpt>
      <trkpt lat="49.2457" lon="-0.26974">
        <ele>3.98</ele>
        <time>2016-08-12T13:18:10Z</time>
      </trkpt>
      <trkpt lat="49.24567" lon="-0.26979">
        <ele>3.98</ele>
        <time>2016-08-12T13:18:11Z</time>
      </trkpt>
      <trkpt lat="49.24563" lon="-0.26983">
        <ele>3.98</ele>
        <time>2016-08-12T13:18:12Z</time>
      </trkpt>
      <trkpt lat="49.2456" lon="-0.26986">
        <ele>3.98</ele>
        <time>2016-08-12T13:18:13Z</time>
      </trkpt>
      <trkpt lat="49.24556" lon="-0.2699">
        <ele>3.98</ele>
        <time>2016-08-12T13:18:14Z</time>
      </trkpt>
      <trkpt lat="49.24552" lon="-0.26994">
        <ele>4.46</ele>
        <time>2016-08-12T13:18:15Z</time>
      </trkpt>
      <trkpt lat="49.24548" lon="-0.26997">
        <ele>4.46</ele>
        <time>2016-08-12T13:18:16Z</time>
      </trkpt>
      <trkpt lat="49.2453" lon="-0.2701">
        <ele>4.46</ele>
        <time>2016-08-12T13:18:20Z</time>
      </trkpt>
      <trkpt lat="49.24526" lon="-0.27014">
        <ele>4.94</ele>
        <time>2016-08-12T13:18:21Z</time>
      </trkpt>
      <trkpt lat="49.24517" lon="-0.27021">
        <ele>4.94</ele>
        <time>2016-08-12T13:18:23Z</time>
      </trkpt>
      <trkpt lat="49.24508" lon="-0.27026">
        <ele>4.94</ele>
        <time>2016-08-12T13:18:25Z</time>
      </trkpt>
      <trkpt lat="49.24503" lon="-0.2703">
        <ele>4.94</ele>
        <time>2016-08-12T13:18:26Z</time>
      </trkpt>
      <trkpt lat="49.24489" lon="-0.27041">
        <ele>4.94</ele>
        <time>2016-08-12T13:18:29Z</time>
      </trkpt>
      <trkpt lat="49.24484" lon="-0.27044">
        <ele>4.94</ele>
        <time>2016-08-12T13:18:30Z</time>
      </trkpt>
      <trkpt lat="49.24479" lon="-0.27047">
        <ele>4.94</ele>
        <time>2016-08-12T13:18:31Z</time>
      </trkpt>
      <trkpt lat="49.24407" lon="-0.271">
        <ele>4.46</ele>
        <time>2016-08-12T13:18:45Z</time>
      </trkpt>
      <trkpt lat="49.2437" lon="-0.27129">
        <ele>4.94</ele>
        <time>2016-08-12T13:18:52Z</time>
      </trkpt>
      <trkpt lat="49.24365" lon="-0.27132">
        <ele>4.94</ele>
        <time>2016-08-12T13:18:53Z</time>
      </trkpt>
      <trkpt lat="49.24299" lon="-0.2718">
        <ele>4.94</ele>
        <time>2016-08-12T13:19:06Z</time>
      </trkpt>
      <trkpt lat="49.24264" lon="-0.27212">
        <ele>4.94</ele>
        <time>2016-08-12T13:19:17Z</time>
      </trkpt>
      <trkpt lat="49.24266" lon="-0.27213">
        <ele>4.94</ele>
        <time>2016-08-12T13:19:18Z</time>
      </trkpt>
      <trkpt lat="49.24267" lon="-0.27214">
        <ele>4.94</ele>
        <time>2016-08-12T13:19:19Z</time>
      </trkpt>
      <trkpt lat="49.24269" lon="-0.27217">
        <ele>4.94</ele>
        <time>2016-08-12T13:19:20Z</time>
      </trkpt>
      <trkpt lat="49.24271" lon="-0.2722">
        <ele>4.94</ele>
        <time>2016-08-12T13:19:21Z</time>
      </trkpt>
      <trkpt lat="49.24272" lon="-0.27224">
        <ele>4.94</ele>
        <time>2016-08-12T13:19:22Z</time>
      </trkpt>
      <trkpt lat="49.24274" lon="-0.27229">
        <ele>5.42</ele>
        <time>2016-08-12T13:19:23Z</time>
      </trkpt>
      <trkpt lat="49.24276" lon="-0.27234">
        <ele>4.94</ele>
        <time>2016-08-12T13:19:24Z</time>
      </trkpt>
      <trkpt lat="49.24278" lon="-0.27239">
        <ele>4.94</ele>
        <time>2016-08-12T13:19:25Z</time>
      </trkpt>
      <trkpt lat="49.2428" lon="-0.27244">
        <ele>4.46</ele>
        <time>2016-08-12T13:19:26Z</time>
      </trkpt>
      <trkpt lat="49.24281" lon="-0.2725">
        <ele>4.46</ele>
        <time>2016-08-12T13:19:27Z</time>
      </trkpt>
      <trkpt lat="49.24295" lon="-0.27296">
        <ele>4.46</ele>
        <time>2016-08-12T13:19:38Z</time>
      </trkpt>
      <trkpt lat="49.24297" lon="-0.273">
        <ele>4.46</ele>
        <time>2016-08-12T13:19:50Z</time>
      </trkpt>
      <trkpt lat="49.24297" lon="-0.27296">
        <ele>4.46</ele>
        <time>2016-08-12T13:19:58Z</time>
      </trkpt>
      <trkpt lat="49.24295" lon="-0.27293">
        <ele>4.46</ele>
        <time>2016-08-12T13:20:00Z</time>
      </trkpt>
      <trkpt lat="49.24294" lon="-0.2729">
        <ele>3.98</ele>
        <time>2016-08-12T13:20:01Z</time>
      </trkpt>
      <trkpt lat="49.24294" lon="-0.27288">
        <ele>3.98</ele>
        <time>2016-08-12T13:20:02Z</time>
      </trkpt>
      <trkpt lat="49.24278" lon="-0.27239">
        <ele>2.54</ele>
        <time>2016-08-12T13:20:13Z</time>
      </trkpt>
      <trkpt lat="49.24266" lon="-0.27214">
        <ele>3.02</ele>
        <time>2016-08-12T13:20:19Z</time>
      </trkpt>
      <trkpt lat="49.24263" lon="-0.27212">
        <ele>3.02</ele>
        <time>2016-08-12T13:20:20Z</time>
      </trkpt>
      <trkpt lat="49.24259" lon="-0.27213">
        <ele>3.5</ele>
        <time>2016-08-12T13:20:21Z</time>
      </trkpt>
      <trkpt lat="49.24195" lon="-0.27257">
        <ele>3.98</ele>
        <time>2016-08-12T13:20:36Z</time>
      </trkpt>
      <trkpt lat="49.24182" lon="-0.27266">
        <ele>3.98</ele>
        <time>2016-08-12T13:20:42Z</time>
      </trkpt>
      <trkpt lat="49.24179" lon="-0.27265">
        <ele>3.98</ele>
        <time>2016-08-12T13:20:43Z</time>
      </trkpt>
      <trkpt lat="49.24176" lon="-0.27263">
        <ele>3.98</ele>
        <time>2016-08-12T13:20:44Z</time>
      </trkpt>
      <trkpt lat="49.24173" lon="-0.2726">
        <ele>3.98</ele>
        <time>2016-08-12T13:20:45Z</time>
      </trkpt>
      <trkpt lat="49.24171" lon="-0.27254">
        <ele>3.98</ele>
        <time>2016-08-12T13:20:46Z</time>
      </trkpt>
      <trkpt lat="49.24169" lon="-0.27247">
        <ele>3.98</ele>
        <time>2016-08-12T13:20:47Z</time>
      </trkpt>
      <trkpt lat="49.24137" lon="-0.27144">
        <ele>3.02</ele>
        <time>2016-08-12T13:20:59Z</time>
      </trkpt>
      <trkpt lat="49.24115" lon="-0.27054">
        <ele>3.02</ele>
        <time>2016-08-12T13:21:09Z</time>
      </trkpt>
      <trkpt lat="49.24113" lon="-0.27051">
        <ele>3.02</ele>
        <time>2016-08-12T13:21:10Z</time>
      </trkpt>
      <trkpt lat="49.24111" lon="-0.27048">
        <ele>3.02</ele>
        <time>2016-08-12T13:21:11Z</time>
      </trkpt>
      <trkpt lat="49.2411" lon="-0.27043">
        <ele>3.02</ele>
        <time>2016-08-12T13:21:12Z</time>
      </trkpt>
      <trkpt lat="49.24109" lon="-0.27037">
        <ele>3.02</ele>
        <time>2016-08-12T13:21:13Z</time>
      </trkpt>
      <trkpt lat="49.2409" lon="-0.26958">
        <ele>3.5</ele>
        <time>2016-08-12T13:21:24Z</time>
      </trkpt>
      <trkpt lat="49.24087" lon="-0.26952">
        <ele>3.5</ele>
        <time>2016-08-12T13:21:25Z</time>
      </trkpt>
      <trkpt lat="49.24084" lon="-0.26947">
        <ele>3.5</ele>
        <time>2016-08-12T13:21:26Z</time>
      </trkpt>
      <trkpt lat="49.2408" lon="-0.26944">
        <ele>3.5</ele>
        <time>2016-08-12T13:21:27Z</time>
      </trkpt>
      <trkpt lat="49.24076" lon="-0.26941">
        <ele>3.5</ele>
        <time>2016-08-12T13:21:28Z</time>
      </trkpt>
      <trkpt lat="49.24074" lon="-0.26936">
        <ele>3.5</ele>
        <time>2016-08-12T13:21:29Z</time>
      </trkpt>
      <trkpt lat="49.24073" lon="-0.2693">
        <ele>3.02</ele>
        <time>2016-08-12T13:21:30Z</time>
      </trkpt>
      <trkpt lat="49.24072" lon="-0.26925">
        <ele>3.5</ele>
        <time>2016-08-12T13:21:31Z</time>
      </trkpt>
      <trkpt lat="49.24071" lon="-0.2692">
        <ele>3.5</ele>
        <time>2016-08-12T13:21:32Z</time>
      </trkpt>
      <trkpt lat="49.24074" lon="-0.26899">
        <ele>4.46</ele>
        <time>2016-08-12T13:21:36Z</time>
      </trkpt>
      <trkpt lat="49.24074" lon="-0.26893">
        <ele>4.94</ele>
        <time>2016-08-12T13:21:37Z</time>
      </trkpt>
      <trkpt lat="49.24055" lon="-0.26811">
        <ele>5.42</ele>
        <time>2016-08-12T13:21:48Z</time>
      </trkpt>
      <trkpt lat="49.24042" lon="-0.26747">
        <ele>5.42</ele>
        <time>2016-08-12T13:21:56Z</time>
      </trkpt>
      <trkpt lat="49.24041" lon="-0.26739">
        <ele>5.42</ele>
        <time>2016-08-12T13:21:57Z</time>
      </trkpt>
      <trkpt lat="49.24039" lon="-0.26731">
        <ele>5.42</ele>
        <time>2016-08-12T13:21:58Z</time>
      </trkpt>
      <trkpt lat="49.24006" lon="-0.26593">
        <ele>4.46</ele>
        <time>2016-08-12T13:22:14Z</time>
      </trkpt>
      <trkpt lat="49.23973" lon="-0.26452">
        <ele>5.91</ele>
        <time>2016-08-12T13:22:30Z</time>
      </trkpt>
      <trkpt lat="49.23968" lon="-0.26435">
        <ele>6.39</ele>
        <time>2016-08-12T13:22:32Z</time>
      </trkpt>
      <trkpt lat="49.23964" lon="-0.26428">
        <ele>6.39</ele>
        <time>2016-08-12T13:22:33Z</time>
      </trkpt>
      <trkpt lat="49.2396" lon="-0.26421">
        <ele>6.39</ele>
        <time>2016-08-12T13:22:34Z</time>
      </trkpt>
      <trkpt lat="49.23955" lon="-0.26415">
        <ele>6.87</ele>
        <time>2016-08-12T13:22:35Z</time>
      </trkpt>
      <trkpt lat="49.2395" lon="-0.26411">
        <ele>6.87</ele>
        <time>2016-08-12T13:22:36Z</time>
      </trkpt>
      <trkpt lat="49.23944" lon="-0.2641">
        <ele>6.87</ele>
        <time>2016-08-12T13:22:37Z</time>
      </trkpt>
      <trkpt lat="49.23937" lon="-0.26409">
        <ele>6.87</ele>
        <time>2016-08-12T13:22:38Z</time>
      </trkpt>
      <trkpt lat="49.23931" lon="-0.26406">
        <ele>6.87</ele>
        <time>2016-08-12T13:22:39Z</time>
      </trkpt>
      <trkpt lat="49.23924" lon="-0.26402">
        <ele>6.87</ele>
        <time>2016-08-12T13:22:40Z</time>
      </trkpt>
      <trkpt lat="49.23919" lon="-0.26395">
        <ele>6.87</ele>
        <time>2016-08-12T13:22:41Z</time>
      </trkpt>
      <trkpt lat="49.23915" lon="-0.26386">
        <ele>6.87</ele>
        <time>2016-08-12T13:22:42Z</time>
      </trkpt>
      <trkpt lat="49.23912" lon="-0.26376">
        <ele>6.87</ele>
        <time>2016-08-12T13:22:43Z</time>
      </trkpt>
      <trkpt lat="49.23912" lon="-0.26365">
        <ele>6.87</ele>
        <time>2016-08-12T13:22:44Z</time>
      </trkpt>
      <trkpt lat="49.23913" lon="-0.26354">
        <ele>6.87</ele>
        <time>2016-08-12T13:22:45Z</time>
      </trkpt>
      <trkpt lat="49.23916" lon="-0.26344">
        <ele>7.35</ele>
        <time>2016-08-12T13:22:46Z</time>
      </trkpt>
      <trkpt lat="49.2392" lon="-0.26336">
        <ele>7.35</ele>
        <time>2016-08-12T13:22:47Z</time>
      </trkpt>
      <trkpt lat="49.23925" lon="-0.26328">
        <ele>7.35</ele>
        <time>2016-08-12T13:22:48Z</time>
      </trkpt>
      <trkpt lat="49.2393" lon="-0.26321">
        <ele>7.35</ele>
        <time>2016-08-12T13:22:49Z</time>
      </trkpt>
      <trkpt lat="49.23934" lon="-0.26313">
        <ele>7.35</ele>
        <time>2016-08-12T13:22:50Z</time>
      </trkpt>
      <trkpt lat="49.23936" lon="-0.26304">
        <ele>7.35</ele>
        <time>2016-08-12T13:22:51Z</time>
      </trkpt>
      <trkpt lat="49.23937" lon="-0.26294">
        <ele>7.83</ele>
        <time>2016-08-12T13:22:52Z</time>
      </trkpt>
      <trkpt lat="49.23937" lon="-0.26284">
        <ele>7.83</ele>
        <time>2016-08-12T13:22:53Z</time>
      </trkpt>
      <trkpt lat="49.23935" lon="-0.26275">
        <ele>7.83</ele>
        <time>2016-08-12T13:22:54Z</time>
      </trkpt>
      <trkpt lat="49.23933" lon="-0.26266">
        <ele>7.83</ele>
        <time>2016-08-12T13:22:55Z</time>
      </trkpt>
      <trkpt lat="49.23918" lon="-0.26177">
        <ele>8.79</ele>
        <time>2016-08-12T13:23:05Z</time>
      </trkpt>
      <trkpt lat="49.23912" lon="-0.26124">
        <ele>10.71</ele>
        <time>2016-08-12T13:23:12Z</time>
      </trkpt>
      <trkpt lat="49.23911" lon="-0.26117">
        <ele>10.71</ele>
        <time>2016-08-12T13:23:13Z</time>
      </trkpt>
      <trkpt lat="49.23902" lon="-0.26034">
        <ele>13.12</ele>
        <time>2016-08-12T13:23:27Z</time>
      </trkpt>
      <trkpt lat="49.239" lon="-0.26032">
        <ele>13.6</ele>
        <time>2016-08-12T13:23:28Z</time>
      </trkpt>
      <trkpt lat="49.23899" lon="-0.26029">
        <ele>13.6</ele>
        <time>2016-08-12T13:23:29Z</time>
      </trkpt>
      <trkpt lat="49.239" lon="-0.26027">
        <ele>14.08</ele>
        <time>2016-08-12T13:23:30Z</time>
      </trkpt>
      <trkpt lat="49.23902" lon="-0.26026">
        <ele>14.08</ele>
        <time>2016-08-12T13:23:31Z</time>
      </trkpt>
      <trkpt lat="49.23904" lon="-0.26026">
        <ele>14.56</ele>
        <time>2016-08-12T13:23:32Z</time>
      </trkpt>
      <trkpt lat="49.23906" lon="-0.26025">
        <ele>15.04</ele>
        <time>2016-08-12T13:23:41Z</time>
      </trkpt>
      <trkpt lat="49.23907" lon="-0.26022">
        <ele>16.96</ele>
        <time>2016-08-12T13:23:54Z</time>
      </trkpt>
      <trkpt lat="49.23907" lon="-0.2602">
        <ele>16.96</ele>
        <time>2016-08-12T13:23:55Z</time>
      </trkpt>
      <trkpt lat="49.23907" lon="-0.26017">
        <ele>17.44</ele>
        <time>2016-08-12T13:23:56Z</time>
      </trkpt>
      <trkpt lat="49.23906" lon="-0.26014">
        <ele>17.44</ele>
        <time>2016-08-12T13:23:57Z</time>
      </trkpt>
      <trkpt lat="49.23906" lon="-0.26011">
        <ele>17.44</ele>
        <time>2016-08-12T13:23:58Z</time>
      </trkpt>
      <trkpt lat="49.23906" lon="-0.26007">
        <ele>17.92</ele>
        <time>2016-08-12T13:23:59Z</time>
      </trkpt>
      <trkpt lat="49.23906" lon="-0.26003">
        <ele>17.92</ele>
        <time>2016-08-12T13:24:00Z</time>
      </trkpt>
      <trkpt lat="49.23907" lon="-0.25998">
        <ele>17.92</ele>
        <time>2016-08-12T13:24:01Z</time>
      </trkpt>
      <trkpt lat="49.23907" lon="-0.25992">
        <ele>18.4</ele>
        <time>2016-08-12T13:24:02Z</time>
      </trkpt>
      <trkpt lat="49.23908" lon="-0.25986">
        <ele>18.4</ele>
        <time>2016-08-12T13:24:03Z</time>
      </trkpt>
      <trkpt lat="49.2391" lon="-0.25959">
        <ele>19.36</ele>
        <time>2016-08-12T13:24:07Z</time>
      </trkpt>
      <trkpt lat="49.2391" lon="-0.25952">
        <ele>19.84</ele>
        <time>2016-08-12T13:24:08Z</time>
      </trkpt>
      <trkpt lat="49.23911" lon="-0.25929">
        <ele>20.32</ele>
        <time>2016-08-12T13:24:11Z</time>
      </trkpt>
      <trkpt lat="49.23921" lon="-0.2582">
        <ele>23.21</ele>
        <time>2016-08-12T13:24:27Z</time>
      </trkpt>
      <trkpt lat="49.23945" lon="-0.25695">
        <ele>25.61</ele>
        <time>2016-08-12T13:24:46Z</time>
      </trkpt>
      <trkpt lat="49.23947" lon="-0.25689">
        <ele>26.09</ele>
        <time>2016-08-12T13:24:47Z</time>
      </trkpt>
      <trkpt lat="49.23963" lon="-0.25637">
        <ele>26.57</ele>
        <time>2016-08-12T13:24:55Z</time>
      </trkpt>
      <trkpt lat="49.23996" lon="-0.25558">
        <ele>26.57</ele>
        <time>2016-08-12T13:25:07Z</time>
      </trkpt>
      <trkpt lat="49.24033" lon="-0.25499">
        <ele>26.57</ele>
        <time>2016-08-12T13:25:17Z</time>
      </trkpt>
      <trkpt lat="49.24111" lon="-0.25419">
        <ele>26.57</ele>
        <time>2016-08-12T13:25:33Z</time>
      </trkpt>
      <trkpt lat="49.242" lon="-0.25356">
        <ele>25.13</ele>
        <time>2016-08-12T13:25:49Z</time>
      </trkpt>
      <trkpt lat="49.243" lon="-0.25288">
        <ele>25.13</ele>
        <time>2016-08-12T13:26:07Z</time>
      </trkpt>
      <trkpt lat="49.2438" lon="-0.25234">
        <ele>26.57</ele>
        <time>2016-08-12T13:26:22Z</time>
      </trkpt>
      <trkpt lat="49.24465" lon="-0.25175">
        <ele>28.02</ele>
        <time>2016-08-12T13:26:38Z</time>
      </trkpt>
      <trkpt lat="49.24501" lon="-0.2515">
        <ele>28.02</ele>
        <time>2016-08-12T13:26:45Z</time>
      </trkpt>
      <trkpt lat="49.2458" lon="-0.25067">
        <ele>28.5</ele>
        <time>2016-08-12T13:27:02Z</time>
      </trkpt>
      <trkpt lat="49.24643" lon="-0.24971">
        <ele>28.98</ele>
        <time>2016-08-12T13:27:18Z</time>
      </trkpt>
      <trkpt lat="49.24719" lon="-0.24854">
        <ele>29.46</ele>
        <time>2016-08-12T13:27:36Z</time>
      </trkpt>
      <trkpt lat="49.248" lon="-0.2473">
        <ele>28.98</ele>
        <time>2016-08-12T13:27:54Z</time>
      </trkpt>
      <trkpt lat="49.24885" lon="-0.24601">
        <ele>26.57</ele>
        <time>2016-08-12T13:28:11Z</time>
      </trkpt>
      <trkpt lat="49.24918" lon="-0.24556">
        <ele>25.13</ele>
        <time>2016-08-12T13:28:17Z</time>
      </trkpt>
      <trkpt lat="49.24923" lon="-0.24549">
        <ele>25.13</ele>
        <time>2016-08-12T13:28:18Z</time>
      </trkpt>
      <trkpt lat="49.25009" lon="-0.24452">
        <ele>23.21</ele>
        <time>2016-08-12T13:28:33Z</time>
      </trkpt>
      <trkpt lat="49.25094" lon="-0.24382">
        <ele>22.73</ele>
        <time>2016-08-12T13:28:47Z</time>
      </trkpt>
      <trkpt lat="49.25188" lon="-0.24318">
        <ele>24.17</ele>
        <time>2016-08-12T13:29:03Z</time>
      </trkpt>
      <trkpt lat="49.25288" lon="-0.24258">
        <ele>26.09</ele>
        <time>2016-08-12T13:29:22Z</time>
      </trkpt>
      <trkpt lat="49.2538" lon="-0.24221">
        <ele>25.13</ele>
        <time>2016-08-12T13:29:38Z</time>
      </trkpt>
      <trkpt lat="49.25483" lon="-0.24155">
        <ele>22.25</ele>
        <time>2016-08-12T13:29:53Z</time>
      </trkpt>
      <trkpt lat="49.25587" lon="-0.2404">
        <ele>20.32</ele>
        <time>2016-08-12T13:30:10Z</time>
      </trkpt>
      <trkpt lat="49.25687" lon="-0.23938">
        <ele>19.36</ele>
        <time>2016-08-12T13:30:26Z</time>
      </trkpt>
      <trkpt lat="49.25793" lon="-0.23823">
        <ele>16.96</ele>
        <time>2016-08-12T13:30:42Z</time>
      </trkpt>
      <trkpt lat="49.25893" lon="-0.23709">
        <ele>13.12</ele>
        <time>2016-08-12T13:30:57Z</time>
      </trkpt>
      <trkpt lat="49.2601" lon="-0.23641">
        <ele>8.79</ele>
        <time>2016-08-12T13:31:11Z</time>
      </trkpt>
      <trkpt lat="49.26026" lon="-0.23631">
        <ele>8.79</ele>
        <time>2016-08-12T13:31:13Z</time>
      </trkpt>
      <trkpt lat="49.26041" lon="-0.23623">
        <ele>8.31</ele>
        <time>2016-08-12T13:31:15Z</time>
      </trkpt>
      <trkpt lat="49.26047" lon="-0.23618">
        <ele>7.83</ele>
        <time>2016-08-12T13:31:16Z</time>
      </trkpt>
      <trkpt lat="49.26059" lon="-0.23607">
        <ele>7.83</ele>
        <time>2016-08-12T13:31:18Z</time>
      </trkpt>
      <trkpt lat="49.26066" lon="-0.23605">
        <ele>8.31</ele>
        <time>2016-08-12T13:31:19Z</time>
      </trkpt>
      <trkpt lat="49.26072" lon="-0.23608">
        <ele>8.31</ele>
        <time>2016-08-12T13:31:20Z</time>
      </trkpt>
      <trkpt lat="49.26076" lon="-0.23614">
        <ele>8.31</ele>
        <time>2016-08-12T13:31:21Z</time>
      </trkpt>
      <trkpt lat="49.2608" lon="-0.23622">
        <ele>8.79</ele>
        <time>2016-08-12T13:31:22Z</time>
      </trkpt>
      <trkpt lat="49.26083" lon="-0.23631">
        <ele>8.79</ele>
        <time>2016-08-12T13:31:23Z</time>
      </trkpt>
      <trkpt lat="49.26086" lon="-0.2364">
        <ele>8.31</ele>
        <time>2016-08-12T13:31:24Z</time>
      </trkpt>
      <trkpt lat="49.26089" lon="-0.2365">
        <ele>7.83</ele>
        <time>2016-08-12T13:31:25Z</time>
      </trkpt>
      <trkpt lat="49.26091" lon="-0.23661">
        <ele>6.87</ele>
        <time>2016-08-12T13:31:26Z</time>
      </trkpt>
      <trkpt lat="49.26093" lon="-0.23673">
        <ele>6.39</ele>
        <time>2016-08-12T13:31:27Z</time>
      </trkpt>
      <trkpt lat="49.2611" lon="-0.23773">
        <ele>3.5</ele>
        <time>2016-08-12T13:31:35Z</time>
      </trkpt>
      <trkpt lat="49.26115" lon="-0.23783">
        <ele>3.5</ele>
        <time>2016-08-12T13:31:36Z</time>
      </trkpt>
      <trkpt lat="49.26121" lon="-0.23791">
        <ele>3.02</ele>
        <time>2016-08-12T13:31:37Z</time>
      </trkpt>
      <trkpt lat="49.26127" lon="-0.23796">
        <ele>3.02</ele>
        <time>2016-08-12T13:31:38Z</time>
      </trkpt>
      <trkpt lat="49.26135" lon="-0.23798">
        <ele>3.02</ele>
        <time>2016-08-12T13:31:39Z</time>
      </trkpt>
      <trkpt lat="49.26142" lon="-0.23797">
        <ele>2.54</ele>
        <time>2016-08-12T13:31:40Z</time>
      </trkpt>
      <trkpt lat="49.26149" lon="-0.23795">
        <ele>2.54</ele>
        <time>2016-08-12T13:31:41Z</time>
      </trkpt>
      <trkpt lat="49.26247" lon="-0.23777">
        <ele>2.54</ele>
        <time>2016-08-12T13:31:56Z</time>
      </trkpt>
      <trkpt lat="49.26343" lon="-0.23759">
        <ele>3.02</ele>
        <time>2016-08-12T13:32:12Z</time>
      </trkpt>
      <trkpt lat="49.264" lon="-0.2375">
        <ele>2.54</ele>
        <time>2016-08-12T13:32:23Z</time>
      </trkpt>
      <trkpt lat="49.26413" lon="-0.23724">
        <ele>2.54</ele>
        <time>2016-08-12T13:32:31Z</time>
      </trkpt>
      <trkpt lat="49.26412" lon="-0.2371">
        <ele>2.54</ele>
        <time>2016-08-12T13:32:33Z</time>
      </trkpt>
      <trkpt lat="49.26409" lon="-0.23662">
        <ele>3.02</ele>
        <time>2016-08-12T13:32:40Z</time>
      </trkpt>
      <trkpt lat="49.26408" lon="-0.23655">
        <ele>3.02</ele>
        <time>2016-08-12T13:32:41Z</time>
      </trkpt>
      <trkpt lat="49.26406" lon="-0.23622">
        <ele>2.54</ele>
        <time>2016-08-12T13:32:46Z</time>
      </trkpt>
      <trkpt lat="49.26407" lon="-0.23615">
        <ele>2.54</ele>
        <time>2016-08-12T13:32:47Z</time>
      </trkpt>
      <trkpt lat="49.26409" lon="-0.23609">
        <ele>2.54</ele>
        <time>2016-08-12T13:32:48Z</time>
      </trkpt>
      <trkpt lat="49.26413" lon="-0.23606">
        <ele>2.54</ele>
        <time>2016-08-12T13:32:49Z</time>
      </trkpt>
      <trkpt lat="49.26418" lon="-0.23605">
        <ele>2.54</ele>
        <time>2016-08-12T13:32:50Z</time>
      </trkpt>
      <trkpt lat="49.26422" lon="-0.23606">
        <ele>2.54</ele>
        <time>2016-08-12T13:32:51Z</time>
      </trkpt>
      <trkpt lat="49.26427" lon="-0.23607">
        <ele>2.54</ele>
        <time>2016-08-12T13:32:52Z</time>
      </trkpt>
      <trkpt lat="49.26441" lon="-0.23608">
        <ele>3.02</ele>
        <time>2016-08-12T13:32:55Z</time>
      </trkpt>
      <trkpt lat="49.26446" lon="-0.23608">
        <ele>3.02</ele>
        <time>2016-08-12T13:32:56Z</time>
      </trkpt>
      <trkpt lat="49.26451" lon="-0.23608">
        <ele>3.02</ele>
        <time>2016-08-12T13:32:57Z</time>
      </trkpt>
      <trkpt lat="49.26456" lon="-0.23608">
        <ele>3.02</ele>
        <time>2016-08-12T13:32:58Z</time>
      </trkpt>
      <trkpt lat="49.26461" lon="-0.23606">
        <ele>3.02</ele>
        <time>2016-08-12T13:32:59Z</time>
      </trkpt>
      <trkpt lat="49.26466" lon="-0.23603">
        <ele>3.02</ele>
        <time>2016-08-12T13:33:00Z</time>
      </trkpt>
      <trkpt lat="49.26469" lon="-0.23597">
        <ele>3.02</ele>
        <time>2016-08-12T13:33:01Z</time>
      </trkpt>
      <trkpt lat="49.26469" lon="-0.23589">
        <ele>3.02</ele>
        <time>2016-08-12T13:33:02Z</time>
      </trkpt>
      <trkpt lat="49.26469" lon="-0.23582">
        <ele>3.02</ele>
        <time>2016-08-12T13:33:03Z</time>
      </trkpt>
      <trkpt lat="49.26465" lon="-0.23532">
        <ele>3.02</ele>
        <time>2016-08-12T13:33:11Z</time>
      </trkpt>
      <trkpt lat="49.26466" lon="-0.2353">
        <ele>3.02</ele>
        <time>2016-08-12T13:33:12Z</time>
      </trkpt>
      <trkpt lat="49.26469" lon="-0.23527">
        <ele>3.02</ele>
        <time>2016-08-12T13:33:19Z</time>
      </trkpt>
      <trkpt lat="49.26469" lon="-0.23529">
        <ele>3.02</ele>
        <time>2016-08-12T13:33:20Z</time>
      </trkpt>
      <trkpt lat="49.2647" lon="-0.23532">
        <ele>3.02</ele>
        <time>2016-08-12T13:33:21Z</time>
      </trkpt>
      <trkpt lat="49.26474" lon="-0.23585">
        <ele>2.54</ele>
        <time>2016-08-12T13:33:32Z</time>
      </trkpt>
      <trkpt lat="49.26475" lon="-0.23633">
        <ele>3.02</ele>
        <time>2016-08-12T13:33:43Z</time>
      </trkpt>
      <trkpt lat="49.26475" lon="-0.23634">
        <ele>3.98</ele>
        <time>2016-08-12T13:33:47Z</time>
      </trkpt>
      <trkpt lat="49.26475" lon="-0.23632">
        <ele>3.98</ele>
        <time>2016-08-12T13:33:48Z</time>
      </trkpt>
      <trkpt lat="49.26475" lon="-0.2363">
        <ele>3.98</ele>
        <time>2016-08-12T13:33:49Z</time>
      </trkpt>
      <trkpt lat="49.26474" lon="-0.23595">
        <ele>2.06</ele>
        <time>2016-08-12T13:33:58Z</time>
      </trkpt>
      <trkpt lat="49.26472" lon="-0.2359">
        <ele>2.06</ele>
        <time>2016-08-12T13:33:59Z</time>
      </trkpt>
      <trkpt lat="49.26471" lon="-0.23585">
        <ele>2.06</ele>
        <time>2016-08-12T13:34:00Z</time>
      </trkpt>
      <trkpt lat="49.26469" lon="-0.23573">
        <ele>2.06</ele>
        <time>2016-08-12T13:34:02Z</time>
      </trkpt>
      <trkpt lat="49.26464" lon="-0.23515">
        <ele>2.06</ele>
        <time>2016-08-12T13:34:10Z</time>
      </trkpt>
      <trkpt lat="49.26448" lon="-0.23389">
        <ele>2.54</ele>
        <time>2016-08-12T13:34:25Z</time>
      </trkpt>
      <trkpt lat="49.26444" lon="-0.23345">
        <ele>2.06</ele>
        <time>2016-08-12T13:34:31Z</time>
      </trkpt>
      <trkpt lat="49.26448" lon="-0.23238">
        <ele>3.02</ele>
        <time>2016-08-12T13:34:44Z</time>
      </trkpt>
      <trkpt lat="49.2645" lon="-0.23198">
        <ele>3.5</ele>
        <time>2016-08-12T13:34:49Z</time>
      </trkpt>
      <trkpt lat="49.26455" lon="-0.23124">
        <ele>3.5</ele>
        <time>2016-08-12T13:34:59Z</time>
      </trkpt>
      <trkpt lat="49.26455" lon="-0.23117">
        <ele>3.5</ele>
        <time>2016-08-12T13:35:00Z</time>
      </trkpt>
      <trkpt lat="49.26457" lon="-0.23086">
        <ele>3.5</ele>
        <time>2016-08-12T13:35:04Z</time>
      </trkpt>
      <trkpt lat="49.26459" lon="-0.23003">
        <ele>3.5</ele>
        <time>2016-08-12T13:35:14Z</time>
      </trkpt>
      <trkpt lat="49.26465" lon="-0.22877">
        <ele>2.54</ele>
        <time>2016-08-12T13:35:28Z</time>
      </trkpt>
      <trkpt lat="49.26487" lon="-0.2271">
        <ele>2.54</ele>
        <time>2016-08-12T13:35:46Z</time>
      </trkpt>
      <trkpt lat="49.26502" lon="-0.22613">
        <ele>3.02</ele>
        <time>2016-08-12T13:35:57Z</time>
      </trkpt>
      <trkpt lat="49.26503" lon="-0.22604">
        <ele>3.02</ele>
        <time>2016-08-12T13:35:58Z</time>
      </trkpt>
      <trkpt lat="49.26515" lon="-0.22497">
        <ele>3.98</ele>
        <time>2016-08-12T13:36:11Z</time>
      </trkpt>
      <trkpt lat="49.26514" lon="-0.22492">
        <ele>3.98</ele>
        <time>2016-08-12T13:36:12Z</time>
      </trkpt>
      <trkpt lat="49.26513" lon="-0.22488">
        <ele>3.98</ele>
        <time>2016-08-12T13:36:13Z</time>
      </trkpt>
      <trkpt lat="49.26512" lon="-0.22486">
        <ele>3.98</ele>
        <time>2016-08-12T13:36:14Z</time>
      </trkpt>
      <trkpt lat="49.26511" lon="-0.22485">
        <ele>4.46</ele>
        <time>2016-08-12T13:36:19Z</time>
      </trkpt>
      <trkpt lat="49.26511" lon="-0.22468">
        <ele>3.5</ele>
        <time>2016-08-12T13:36:23Z</time>
      </trkpt>
      <trkpt lat="49.26512" lon="-0.22461">
        <ele>3.5</ele>
        <time>2016-08-12T13:36:24Z</time>
      </trkpt>
      <trkpt lat="49.26546" lon="-0.22352">
        <ele>2.54</ele>
        <time>2016-08-12T13:36:37Z</time>
      </trkpt>
      <trkpt lat="49.266" lon="-0.22214">
        <ele>3.5</ele>
        <time>2016-08-12T13:36:53Z</time>
      </trkpt>
      <trkpt lat="49.26681" lon="-0.22122">
        <ele>3.98</ele>
        <time>2016-08-12T13:37:08Z</time>
      </trkpt>
      <trkpt lat="49.2678" lon="-0.22066">
        <ele>3.5</ele>
        <time>2016-08-12T13:37:25Z</time>
      </trkpt>
      <trkpt lat="49.26887" lon="-0.22034">
        <ele>0.62</ele>
        <time>2016-08-12T13:37:43Z</time>
      </trkpt>
      <trkpt lat="49.26971" lon="-0.2201">
        <ele>-0.82</ele>
        <time>2016-08-12T13:37:57Z</time>
      </trkpt>
      <trkpt lat="49.26976" lon="-0.22009">
        <ele>-0.82</ele>
        <time>2016-08-12T13:37:58Z</time>
      </trkpt>
      <trkpt lat="49.26996" lon="-0.22005">
        <ele>-0.82</ele>
        <time>2016-08-12T13:38:03Z</time>
      </trkpt>
      <trkpt lat="49.27014" lon="-0.21995">
        <ele>-0.82</ele>
        <time>2016-08-12T13:38:07Z</time>
      </trkpt>
      <trkpt lat="49.27089" lon="-0.21913">
        <ele>2.06</ele>
        <time>2016-08-12T13:38:23Z</time>
      </trkpt>
      <trkpt lat="49.27174" lon="-0.21794">
        <ele>3.5</ele>
        <time>2016-08-12T13:38:42Z</time>
      </trkpt>
      <trkpt lat="49.27262" lon="-0.2167">
        <ele>4.46</ele>
        <time>2016-08-12T13:39:01Z</time>
      </trkpt>
      <trkpt lat="49.27289" lon="-0.21632">
        <ele>3.98</ele>
        <time>2016-08-12T13:39:07Z</time>
      </trkpt>
      <trkpt lat="49.27294" lon="-0.21626">
        <ele>3.5</ele>
        <time>2016-08-12T13:39:08Z</time>
      </trkpt>
      <trkpt lat="49.27364" lon="-0.21514">
        <ele>3.5</ele>
        <time>2016-08-12T13:39:25Z</time>
      </trkpt>
      <trkpt lat="49.27374" lon="-0.21491">
        <ele>3.02</ele>
        <time>2016-08-12T13:39:35Z</time>
      </trkpt>
      <trkpt lat="49.27379" lon="-0.21476">
        <ele>3.02</ele>
        <time>2016-08-12T13:39:38Z</time>
      </trkpt>
      <trkpt lat="49.27408" lon="-0.21414">
        <ele>3.98</ele>
        <time>2016-08-12T13:39:48Z</time>
      </trkpt>
      <trkpt lat="49.27414" lon="-0.21401">
        <ele>3.98</ele>
        <time>2016-08-12T13:39:50Z</time>
      </trkpt>
      <trkpt lat="49.27416" lon="-0.21395">
        <ele>3.98</ele>
        <time>2016-08-12T13:39:51Z</time>
      </trkpt>
      <trkpt lat="49.2742" lon="-0.21391">
        <ele>3.5</ele>
        <time>2016-08-12T13:39:52Z</time>
      </trkpt>
      <trkpt lat="49.27424" lon="-0.21389">
        <ele>3.5</ele>
        <time>2016-08-12T13:39:53Z</time>
      </trkpt>
      <trkpt lat="49.27428" lon="-0.2139">
        <ele>3.5</ele>
        <time>2016-08-12T13:39:54Z</time>
      </trkpt>
      <trkpt lat="49.27432" lon="-0.21393">
        <ele>3.98</ele>
        <time>2016-08-12T13:39:55Z</time>
      </trkpt>
      <trkpt lat="49.27436" lon="-0.21397">
        <ele>3.98</ele>
        <time>2016-08-12T13:39:56Z</time>
      </trkpt>
      <trkpt lat="49.2744" lon="-0.21403">
        <ele>4.46</ele>
        <time>2016-08-12T13:39:57Z</time>
      </trkpt>
      <trkpt lat="49.27443" lon="-0.21408">
        <ele>4.46</ele>
        <time>2016-08-12T13:39:58Z</time>
      </trkpt>
      <trkpt lat="49.27462" lon="-0.21436">
        <ele>4.94</ele>
        <time>2016-08-12T13:40:03Z</time>
      </trkpt>
      <trkpt lat="49.27466" lon="-0.21442">
        <ele>4.94</ele>
        <time>2016-08-12T13:40:04Z</time>
      </trkpt>
      <trkpt lat="49.27513" lon="-0.21514">
        <ele>4.46</ele>
        <time>2016-08-12T13:40:17Z</time>
      </trkpt>
      <trkpt lat="49.2752" lon="-0.21526">
        <ele>4.46</ele>
        <time>2016-08-12T13:40:19Z</time>
      </trkpt>
      <trkpt lat="49.27525" lon="-0.21531">
        <ele>4.46</ele>
        <time>2016-08-12T13:40:20Z</time>
      </trkpt>
      <trkpt lat="49.27529" lon="-0.21536">
        <ele>4.46</ele>
        <time>2016-08-12T13:40:21Z</time>
      </trkpt>
      <trkpt lat="49.27534" lon="-0.21539">
        <ele>4.46</ele>
        <time>2016-08-12T13:40:22Z</time>
      </trkpt>
      <trkpt lat="49.27538" lon="-0.21541">
        <ele>4.46</ele>
        <time>2016-08-12T13:40:23Z</time>
      </trkpt>
      <trkpt lat="49.27543" lon="-0.21541">
        <ele>3.98</ele>
        <time>2016-08-12T13:40:24Z</time>
      </trkpt>
      <trkpt lat="49.27549" lon="-0.21539">
        <ele>3.98</ele>
        <time>2016-08-12T13:40:25Z</time>
      </trkpt>
      <trkpt lat="49.27555" lon="-0.21537">
        <ele>3.98</ele>
        <time>2016-08-12T13:40:26Z</time>
      </trkpt>
      <trkpt lat="49.27582" lon="-0.21527">
        <ele>3.02</ele>
        <time>2016-08-12T13:40:32Z</time>
      </trkpt>
      <trkpt lat="49.27675" lon="-0.21521">
        <ele>1.1</ele>
        <time>2016-08-12T13:40:47Z</time>
      </trkpt>
      <trkpt lat="49.27752" lon="-0.21547">
        <ele>0.14</ele>
        <time>2016-08-12T13:41:00Z</time>
      </trkpt>
      <trkpt lat="49.27818" lon="-0.21589">
        <ele>0.62</ele>
        <time>2016-08-12T13:41:12Z</time>
      </trkpt>
      <trkpt lat="49.27824" lon="-0.21592">
        <ele>0.62</ele>
        <time>2016-08-12T13:41:13Z</time>
      </trkpt>
      <trkpt lat="49.27914" lon="-0.2166">
        <ele>0.14</ele>
        <time>2016-08-12T13:41:30Z</time>
      </trkpt>
      <trkpt lat="49.27985" lon="-0.21701">
        <ele>0.62</ele>
        <time>2016-08-12T13:41:43Z</time>
      </trkpt>
      <trkpt lat="49.28052" lon="-0.21756">
        <ele>0.62</ele>
        <time>2016-08-12T13:41:56Z</time>
      </trkpt>
      <trkpt lat="49.28057" lon="-0.21761">
        <ele>0.62</ele>
        <time>2016-08-12T13:41:57Z</time>
      </trkpt>
      <trkpt lat="49.28061" lon="-0.21767">
        <ele>0.62</ele>
        <time>2016-08-12T13:41:58Z</time>
      </trkpt>
      <trkpt lat="49.28132" lon="-0.21869">
        <ele>1.1</ele>
        <time>2016-08-12T13:42:15Z</time>
      </trkpt>
      <trkpt lat="49.28158" lon="-0.2192">
        <ele>2.06</ele>
        <time>2016-08-12T13:42:23Z</time>
      </trkpt>
      <trkpt lat="49.28182" lon="-0.21988">
        <ele>2.54</ele>
        <time>2016-08-12T13:42:33Z</time>
      </trkpt>
      <trkpt lat="49.28182" lon="-0.21995">
        <ele>2.54</ele>
        <time>2016-08-12T13:42:34Z</time>
      </trkpt>
      <trkpt lat="49.28181" lon="-0.22001">
        <ele>2.54</ele>
        <time>2016-08-12T13:42:35Z</time>
      </trkpt>
      <trkpt lat="49.2818" lon="-0.22008">
        <ele>2.54</ele>
        <time>2016-08-12T13:42:36Z</time>
      </trkpt>
      <trkpt lat="49.28178" lon="-0.22015">
        <ele>2.54</ele>
        <time>2016-08-12T13:42:37Z</time>
      </trkpt>
      <trkpt lat="49.28167" lon="-0.22082">
        <ele>3.98</ele>
        <time>2016-08-12T13:42:46Z</time>
      </trkpt>
      <trkpt lat="49.28163" lon="-0.22121">
        <ele>4.94</ele>
        <time>2016-08-12T13:42:51Z</time>
      </trkpt>
      <trkpt lat="49.28163" lon="-0.22145">
        <ele>4.94</ele>
        <time>2016-08-12T13:42:54Z</time>
      </trkpt>
      <trkpt lat="49.28164" lon="-0.22153">
        <ele>5.42</ele>
        <time>2016-08-12T13:42:55Z</time>
      </trkpt>
      <trkpt lat="49.28175" lon="-0.22241">
        <ele>5.91</ele>
        <time>2016-08-12T13:43:06Z</time>
      </trkpt>
      <trkpt lat="49.28175" lon="-0.22248">
        <ele>5.91</ele>
        <time>2016-08-12T13:43:07Z</time>
      </trkpt>
      <trkpt lat="49.28174" lon="-0.22256">
        <ele>5.91</ele>
        <time>2016-08-12T13:43:08Z</time>
      </trkpt>
      <trkpt lat="49.28172" lon="-0.22264">
        <ele>5.91</ele>
        <time>2016-08-12T13:43:09Z</time>
      </trkpt>
      <trkpt lat="49.28169" lon="-0.22272">
        <ele>5.42</ele>
        <time>2016-08-12T13:43:10Z</time>
      </trkpt>
      <trkpt lat="49.28166" lon="-0.2228">
        <ele>4.94</ele>
        <time>2016-08-12T13:43:11Z</time>
      </trkpt>
      <trkpt lat="49.28162" lon="-0.22288">
        <ele>4.94</ele>
        <time>2016-08-12T13:43:12Z</time>
      </trkpt>
      <trkpt lat="49.28159" lon="-0.22295">
        <ele>4.94</ele>
        <time>2016-08-12T13:43:13Z</time>
      </trkpt>
      <trkpt lat="49.28143" lon="-0.22323">
        <ele>4.46</ele>
        <time>2016-08-12T13:43:17Z</time>
      </trkpt>
      <trkpt lat="49.28076" lon="-0.22442">
        <ele>5.91</ele>
        <time>2016-08-12T13:43:36Z</time>
      </trkpt>
      <trkpt lat="49.28064" lon="-0.22463">
        <ele>6.39</ele>
        <time>2016-08-12T13:43:40Z</time>
      </trkpt>
      <trkpt lat="49.28062" lon="-0.22468">
        <ele>6.39</ele>
        <time>2016-08-12T13:43:41Z</time>
      </trkpt>
      <trkpt lat="49.28054" lon="-0.22492">
        <ele>6.87</ele>
        <time>2016-08-12T13:43:47Z</time>
      </trkpt>
      <trkpt lat="49.28052" lon="-0.22493">
        <ele>6.87</ele>
        <time>2016-08-12T13:43:48Z</time>
      </trkpt>
      <trkpt lat="49.28049" lon="-0.22492">
        <ele>6.87</ele>
        <time>2016-08-12T13:43:49Z</time>
      </trkpt>
      <trkpt lat="49.28048" lon="-0.22489">
        <ele>6.87</ele>
        <time>2016-08-12T13:43:50Z</time>
      </trkpt>
      <trkpt lat="49.28048" lon="-0.22486">
        <ele>6.87</ele>
        <time>2016-08-12T13:43:51Z</time>
      </trkpt>
      <trkpt lat="49.28048" lon="-0.22483">
        <ele>6.87</ele>
        <time>2016-08-12T13:43:52Z</time>
      </trkpt>
      <trkpt lat="49.28049" lon="-0.2248">
        <ele>6.39</ele>
        <time>2016-08-12T13:43:53Z</time>
      </trkpt>
      <trkpt lat="49.28048" lon="-0.22478">
        <ele>6.39</ele>
        <time>2016-08-12T13:43:54Z</time>
      </trkpt>
      <trkpt lat="49.28046" lon="-0.22477">
        <ele>6.39</ele>
        <time>2016-08-12T13:43:55Z</time>
      </trkpt>
      <trkpt lat="49.28044" lon="-0.22477">
        <ele>6.39</ele>
        <time>2016-08-12T13:43:56Z</time>
      </trkpt>
      <trkpt lat="49.28041" lon="-0.22475">
        <ele>5.91</ele>
        <time>2016-08-12T13:43:57Z</time>
      </trkpt>
      <trkpt lat="49.28039" lon="-0.22474">
        <ele>6.39</ele>
        <time>2016-08-12T13:43:58Z</time>
      </trkpt>
      <trkpt lat="49.28037" lon="-0.22473">
        <ele>6.39</ele>
        <time>2016-08-12T13:43:59Z</time>
      </trkpt>
      <trkpt lat="49.28011" lon="-0.22451">
        <ele>5.91</ele>
        <time>2016-08-12T13:44:11Z</time>
      </trkpt>
      <trkpt lat="49.28" lon="-0.22433">
        <ele>5.42</ele>
        <time>2016-08-12T13:44:18Z</time>
      </trkpt>
      <trkpt lat="49.28" lon="-0.22429">
        <ele>5.42</ele>
        <time>2016-08-12T13:44:19Z</time>
      </trkpt>
      <trkpt lat="49.28001" lon="-0.22425">
        <ele>5.42</ele>
        <time>2016-08-12T13:44:20Z</time>
      </trkpt>
      <trkpt lat="49.28002" lon="-0.22421">
        <ele>5.42</ele>
        <time>2016-08-12T13:44:21Z</time>
      </trkpt>
      <trkpt lat="49.28003" lon="-0.22418">
        <ele>5.42</ele>
        <time>2016-08-12T13:44:22Z</time>
      </trkpt>
      <trkpt lat="49.28003" lon="-0.22403">
        <ele>4.94</ele>
        <time>2016-08-12T13:44:26Z</time>
      </trkpt>
      <trkpt lat="49.28001" lon="-0.224">
        <ele>4.94</ele>
        <time>2016-08-12T13:44:27Z</time>
      </trkpt>
      <trkpt lat="49.27999" lon="-0.22398">
        <ele>4.94</ele>
        <time>2016-08-12T13:44:28Z</time>
      </trkpt>
      <trkpt lat="49.27996" lon="-0.22396">
        <ele>4.94</ele>
        <time>2016-08-12T13:44:29Z</time>
      </trkpt>
      <trkpt lat="49.27994" lon="-0.22394">
        <ele>4.94</ele>
        <time>2016-08-12T13:44:30Z</time>
      </trkpt>
      <trkpt lat="49.27992" lon="-0.22391">
        <ele>4.94</ele>
        <time>2016-08-12T13:44:31Z</time>
      </trkpt>
      <trkpt lat="49.2799" lon="-0.22389">
        <ele>4.94</ele>
        <time>2016-08-12T13:44:32Z</time>
      </trkpt>
      <trkpt lat="49.27965" lon="-0.22362">
        <ele>4.46</ele>
        <time>2016-08-12T13:44:44Z</time>
      </trkpt>
      <trkpt lat="49.2796" lon="-0.22357">
        <ele>5.42</ele>
        <time>2016-08-12T13:44:58Z</time>
      </trkpt>
      <trkpt lat="49.27948" lon="-0.22344">
        <ele>4.94</ele>
        <time>2016-08-12T13:45:12Z</time>
      </trkpt>
      <trkpt lat="49.27945" lon="-0.22343">
        <ele>4.94</ele>
        <time>2016-08-12T13:45:13Z</time>
      </trkpt>
      <trkpt lat="49.27941" lon="-0.22341">
        <ele>4.46</ele>
        <time>2016-08-12T13:45:15Z</time>
      </trkpt>
      <trkpt lat="49.2794" lon="-0.22341">
        <ele>4.46</ele>
        <time>2016-08-12T13:45:16Z</time>
      </trkpt>
      <trkpt lat="49.27939" lon="-0.22342">
        <ele>4.46</ele>
        <time>2016-08-12T13:45:17Z</time>
      </trkpt>
      <trkpt lat="49.27938" lon="-0.22344">
        <ele>4.46</ele>
        <time>2016-08-12T13:45:18Z</time>
      </trkpt>
      <trkpt lat="49.27938" lon="-0.22345">
        <ele>4.94</ele>
        <time>2016-08-12T13:45:19Z</time>
      </trkpt>
      <trkpt lat="49.27935" lon="-0.22349">
        <ele>5.42</ele>
        <time>2016-08-12T13:45:31Z</time>
      </trkpt>
      <trkpt lat="49.27935" lon="-0.22348">
        <ele>5.42</ele>
        <time>2016-08-12T13:45:44Z</time>
      </trkpt>
      <trkpt lat="49.27948" lon="-0.22344">
        <ele>3.02</ele>
        <time>2016-08-12T13:45:53Z</time>
      </trkpt>
      <trkpt lat="49.27952" lon="-0.22349">
        <ele>2.54</ele>
        <time>2016-08-12T13:45:55Z</time>
      </trkpt>
      <trkpt lat="49.28001" lon="-0.22402">
        <ele>3.02</ele>
        <time>2016-08-12T13:46:12Z</time>
      </trkpt>
      <trkpt lat="49.28002" lon="-0.22406">
        <ele>3.5</ele>
        <time>2016-08-12T13:46:13Z</time>
      </trkpt>
      <trkpt lat="49.28002" lon="-0.22431">
        <ele>4.46</ele>
        <time>2016-08-12T13:46:18Z</time>
      </trkpt>
      <trkpt lat="49.28042" lon="-0.22474">
        <ele>4.94</ele>
        <time>2016-08-12T13:46:32Z</time>
      </trkpt>
      <trkpt lat="49.2805" lon="-0.22475">
        <ele>4.94</ele>
        <time>2016-08-12T13:46:34Z</time>
      </trkpt>
      <trkpt lat="49.28054" lon="-0.22473">
        <ele>4.94</ele>
        <time>2016-08-12T13:46:35Z</time>
      </trkpt>
      <trkpt lat="49.28058" lon="-0.22469">
        <ele>4.94</ele>
        <time>2016-08-12T13:46:36Z</time>
      </trkpt>
      <trkpt lat="49.28061" lon="-0.22464">
        <ele>4.94</ele>
        <time>2016-08-12T13:46:37Z</time>
      </trkpt>
      <trkpt lat="49.28064" lon="-0.22458">
        <ele>4.94</ele>
        <time>2016-08-12T13:46:38Z</time>
      </trkpt>
      <trkpt lat="49.28067" lon="-0.22452">
        <ele>4.94</ele>
        <time>2016-08-12T13:46:39Z</time>
      </trkpt>
      <trkpt lat="49.28128" lon="-0.22343">
        <ele>3.5</ele>
        <time>2016-08-12T13:46:56Z</time>
      </trkpt>
      <trkpt lat="49.28167" lon="-0.22267">
        <ele>3.5</ele>
        <time>2016-08-12T13:47:07Z</time>
      </trkpt>
      <trkpt lat="49.28169" lon="-0.22259">
        <ele>3.5</ele>
        <time>2016-08-12T13:47:08Z</time>
      </trkpt>
      <trkpt lat="49.28169" lon="-0.22251">
        <ele>3.98</ele>
        <time>2016-08-12T13:47:09Z</time>
      </trkpt>
      <trkpt lat="49.2817" lon="-0.22218">
        <ele>4.46</ele>
        <time>2016-08-12T13:47:13Z</time>
      </trkpt>
      <trkpt lat="49.2816" lon="-0.22131">
        <ele>3.98</ele>
        <time>2016-08-12T13:47:23Z</time>
      </trkpt>
      <trkpt lat="49.28161" lon="-0.22123">
        <ele>4.46</ele>
        <time>2016-08-12T13:47:24Z</time>
      </trkpt>
      <trkpt lat="49.28179" lon="-0.22001">
        <ele>3.02</ele>
        <time>2016-08-12T13:47:37Z</time>
      </trkpt>
      <trkpt lat="49.28179" lon="-0.21992">
        <ele>2.54</ele>
        <time>2016-08-12T13:47:38Z</time>
      </trkpt>
      <trkpt lat="49.28178" lon="-0.21983">
        <ele>2.54</ele>
        <time>2016-08-12T13:47:39Z</time>
      </trkpt>
      <trkpt lat="49.28177" lon="-0.21974">
        <ele>2.06</ele>
        <time>2016-08-12T13:47:40Z</time>
      </trkpt>
      <trkpt lat="49.28174" lon="-0.21965">
        <ele>2.06</ele>
        <time>2016-08-12T13:47:41Z</time>
      </trkpt>
      <trkpt lat="49.28171" lon="-0.21956">
        <ele>2.06</ele>
        <time>2016-08-12T13:47:42Z</time>
      </trkpt>
      <trkpt lat="49.28167" lon="-0.21948">
        <ele>2.06</ele>
        <time>2016-08-12T13:47:43Z</time>
      </trkpt>
      <trkpt lat="49.28122" lon="-0.21856">
        <ele>2.54</ele>
        <time>2016-08-12T13:47:55Z</time>
      </trkpt>
      <trkpt lat="49.28066" lon="-0.21777">
        <ele>3.02</ele>
        <time>2016-08-12T13:48:07Z</time>
      </trkpt>
      <trkpt lat="49.27977" lon="-0.21703">
        <ele>0.62</ele>
        <time>2016-08-12T13:48:23Z</time>
      </trkpt>
      <trkpt lat="49.27919" lon="-0.21669">
        <ele>0.62</ele>
        <time>2016-08-12T13:48:33Z</time>
      </trkpt>
      <trkpt lat="49.27828" lon="-0.21603">
        <ele>0.62</ele>
        <time>2016-08-12T13:48:49Z</time>
      </trkpt>
      <trkpt lat="49.27748" lon="-0.2155">
        <ele>0.62</ele>
        <time>2016-08-12T13:49:03Z</time>
      </trkpt>
      <trkpt lat="49.27652" lon="-0.21523">
        <ele>1.58</ele>
        <time>2016-08-12T13:49:19Z</time>
      </trkpt>
      <trkpt lat="49.27557" lon="-0.21543">
        <ele>1.1</ele>
        <time>2016-08-12T13:49:35Z</time>
      </trkpt>
      <trkpt lat="49.27545" lon="-0.21547">
        <ele>1.1</ele>
        <time>2016-08-12T13:49:37Z</time>
      </trkpt>
      <trkpt lat="49.2754" lon="-0.21547">
        <ele>1.1</ele>
        <time>2016-08-12T13:49:38Z</time>
      </trkpt>
      <trkpt lat="49.27534" lon="-0.21546">
        <ele>0.62</ele>
        <time>2016-08-12T13:49:39Z</time>
      </trkpt>
      <trkpt lat="49.27528" lon="-0.21542">
        <ele>0.14</ele>
        <time>2016-08-12T13:49:40Z</time>
      </trkpt>
      <trkpt lat="49.27523" lon="-0.21537">
        <ele>0.14</ele>
        <time>2016-08-12T13:49:41Z</time>
      </trkpt>
      <trkpt lat="49.27519" lon="-0.2153">
        <ele>0.14</ele>
        <time>2016-08-12T13:49:42Z</time>
      </trkpt>
      <trkpt lat="49.27514" lon="-0.21523">
        <ele>0.14</ele>
        <time>2016-08-12T13:49:43Z</time>
      </trkpt>
      <trkpt lat="49.27451" lon="-0.21425">
        <ele>2.54</ele>
        <time>2016-08-12T13:49:57Z</time>
      </trkpt>
      <trkpt lat="49.27425" lon="-0.21387">
        <ele>2.06</ele>
        <time>2016-08-12T13:50:05Z</time>
      </trkpt>
      <trkpt lat="49.27425" lon="-0.21389">
        <ele>3.5</ele>
        <time>2016-08-12T13:50:20Z</time>
      </trkpt>
      <trkpt lat="49.27424" lon="-0.21386">
        <ele>3.02</ele>
        <time>2016-08-12T13:50:34Z</time>
      </trkpt>
      <trkpt lat="49.27423" lon="-0.21381">
        <ele>3.02</ele>
        <time>2016-08-12T13:50:35Z</time>
      </trkpt>
      <trkpt lat="49.27424" lon="-0.21376">
        <ele>3.02</ele>
        <time>2016-08-12T13:50:36Z</time>
      </trkpt>
      <trkpt lat="49.27425" lon="-0.2137">
        <ele>3.02</ele>
        <time>2016-08-12T13:50:37Z</time>
      </trkpt>
      <trkpt lat="49.27427" lon="-0.21364">
        <ele>3.02</ele>
        <time>2016-08-12T13:50:38Z</time>
      </trkpt>
      <trkpt lat="49.27466" lon="-0.21241">
        <ele>-0.34</ele>
        <time>2016-08-12T13:50:52Z</time>
      </trkpt>
      <trkpt lat="49.27506" lon="-0.21106">
        <ele>-1.79</ele>
        <time>2016-08-12T13:51:07Z</time>
      </trkpt>
      <trkpt lat="49.2756" lon="-0.20938">
        <ele>-2.75</ele>
        <time>2016-08-12T13:51:26Z</time>
      </trkpt>
      <trkpt lat="49.27563" lon="-0.20929">
        <ele>-2.75</ele>
        <time>2016-08-12T13:51:27Z</time>
      </trkpt>
      <trkpt lat="49.27566" lon="-0.20921">
        <ele>-2.27</ele>
        <time>2016-08-12T13:51:28Z</time>
      </trkpt>
      <trkpt lat="49.27571" lon="-0.20913">
        <ele>-2.75</ele>
        <time>2016-08-12T13:51:29Z</time>
      </trkpt>
      <trkpt lat="49.27575" lon="-0.20904">
        <ele>-2.75</ele>
        <time>2016-08-12T13:51:30Z</time>
      </trkpt>
      <trkpt lat="49.27578" lon="-0.20896">
        <ele>-3.23</ele>
        <time>2016-08-12T13:51:31Z</time>
      </trkpt>
      <trkpt lat="49.27581" lon="-0.20888">
        <ele>-3.23</ele>
        <time>2016-08-12T13:51:32Z</time>
      </trkpt>
      <trkpt lat="49.27585" lon="-0.2088">
        <ele>-3.23</ele>
        <time>2016-08-12T13:51:33Z</time>
      </trkpt>
      <trkpt lat="49.27643" lon="-0.2076">
        <ele>-1.3</ele>
        <time>2016-08-12T13:51:48Z</time>
      </trkpt>
      <trkpt lat="49.27688" lon="-0.20686">
        <ele>1.1</ele>
        <time>2016-08-12T13:51:58Z</time>
      </trkpt>
      <trkpt lat="49.27692" lon="-0.20679">
        <ele>1.58</ele>
        <time>2016-08-12T13:51:59Z</time>
      </trkpt>
      <trkpt lat="49.27696" lon="-0.20671">
        <ele>1.58</ele>
        <time>2016-08-12T13:52:00Z</time>
      </trkpt>
      <trkpt lat="49.27774" lon="-0.20564">
        <ele>2.54</ele>
        <time>2016-08-12T13:52:16Z</time>
      </trkpt>
      <trkpt lat="49.27837" lon="-0.20471">
        <ele>3.5</ele>
        <time>2016-08-12T13:52:30Z</time>
      </trkpt>
      <trkpt lat="49.27872" lon="-0.2039">
        <ele>3.98</ele>
        <time>2016-08-12T13:52:43Z</time>
      </trkpt>
      <trkpt lat="49.27872" lon="-0.20384">
        <ele>3.98</ele>
        <time>2016-08-12T13:52:44Z</time>
      </trkpt>
      <trkpt lat="49.27873" lon="-0.20377">
        <ele>4.46</ele>
        <time>2016-08-12T13:52:45Z</time>
      </trkpt>
      <trkpt lat="49.27873" lon="-0.2037">
        <ele>4.46</ele>
        <time>2016-08-12T13:52:46Z</time>
      </trkpt>
      <trkpt lat="49.27875" lon="-0.20363">
        <ele>4.94</ele>
        <time>2016-08-12T13:52:47Z</time>
      </trkpt>
      <trkpt lat="49.27878" lon="-0.20356">
        <ele>4.94</ele>
        <time>2016-08-12T13:52:48Z</time>
      </trkpt>
      <trkpt lat="49.27882" lon="-0.2035">
        <ele>4.94</ele>
        <time>2016-08-12T13:52:49Z</time>
      </trkpt>
      <trkpt lat="49.27886" lon="-0.20344">
        <ele>5.42</ele>
        <time>2016-08-12T13:52:50Z</time>
      </trkpt>
      <trkpt lat="49.27889" lon="-0.20337">
        <ele>4.94</ele>
        <time>2016-08-12T13:52:51Z</time>
      </trkpt>
      <trkpt lat="49.27892" lon="-0.2033">
        <ele>4.94</ele>
        <time>2016-08-12T13:52:52Z</time>
      </trkpt>
      <trkpt lat="49.27929" lon="-0.20223">
        <ele>3.98</ele>
        <time>2016-08-12T13:53:05Z</time>
      </trkpt>
      <trkpt lat="49.27977" lon="-0.20095">
        <ele>3.98</ele>
        <time>2016-08-12T13:53:21Z</time>
      </trkpt>
      <trkpt lat="49.27979" lon="-0.20087">
        <ele>3.5</ele>
        <time>2016-08-12T13:53:22Z</time>
      </trkpt>
      <trkpt lat="49.28016" lon="-0.19991">
        <ele>3.02</ele>
        <time>2016-08-12T13:53:35Z</time>
      </trkpt>
      <trkpt lat="49.28018" lon="-0.19984">
        <ele>3.02</ele>
        <time>2016-08-12T13:53:36Z</time>
      </trkpt>
      <trkpt lat="49.2802" lon="-0.19978">
        <ele>2.54</ele>
        <time>2016-08-12T13:53:37Z</time>
      </trkpt>
      <trkpt lat="49.28043" lon="-0.19915">
        <ele>3.5</ele>
        <time>2016-08-12T13:53:45Z</time>
      </trkpt>
      <trkpt lat="49.28046" lon="-0.19907">
        <ele>3.5</ele>
        <time>2016-08-12T13:53:46Z</time>
      </trkpt>
      <trkpt lat="49.28048" lon="-0.19899">
        <ele>3.5</ele>
        <time>2016-08-12T13:53:47Z</time>
      </trkpt>
      <trkpt lat="49.28078" lon="-0.19774">
        <ele>3.02</ele>
        <time>2016-08-12T13:54:01Z</time>
      </trkpt>
      <trkpt lat="49.28093" lon="-0.19724">
        <ele>3.02</ele>
        <time>2016-08-12T13:54:07Z</time>
      </trkpt>
      <trkpt lat="49.28097" lon="-0.19718">
        <ele>3.02</ele>
        <time>2016-08-12T13:54:08Z</time>
      </trkpt>
      <trkpt lat="49.28101" lon="-0.19716">
        <ele>3.02</ele>
        <time>2016-08-12T13:54:09Z</time>
      </trkpt>
      <trkpt lat="49.28106" lon="-0.19717">
        <ele>3.5</ele>
        <time>2016-08-12T13:54:10Z</time>
      </trkpt>
      <trkpt lat="49.28111" lon="-0.1972">
        <ele>3.5</ele>
        <time>2016-08-12T13:54:11Z</time>
      </trkpt>
      <trkpt lat="49.28116" lon="-0.19724">
        <ele>3.98</ele>
        <time>2016-08-12T13:54:12Z</time>
      </trkpt>
      <trkpt lat="49.28121" lon="-0.19729">
        <ele>3.98</ele>
        <time>2016-08-12T13:54:13Z</time>
      </trkpt>
      <trkpt lat="49.28126" lon="-0.19733">
        <ele>4.46</ele>
        <time>2016-08-12T13:54:14Z</time>
      </trkpt>
      <trkpt lat="49.28192" lon="-0.19797">
        <ele>4.94</ele>
        <time>2016-08-12T13:54:28Z</time>
      </trkpt>
      <trkpt lat="49.28262" lon="-0.19863">
        <ele>4.46</ele>
        <time>2016-08-12T13:54:42Z</time>
      </trkpt>
      <trkpt lat="49.28267" lon="-0.19868">
        <ele>4.46</ele>
        <time>2016-08-12T13:54:43Z</time>
      </trkpt>
      <trkpt lat="49.28271" lon="-0.19873">
        <ele>4.46</ele>
        <time>2016-08-12T13:54:44Z</time>
      </trkpt>
      <trkpt lat="49.2833" lon="-0.19932">
        <ele>5.42</ele>
        <time>2016-08-12T13:54:56Z</time>
      </trkpt>
      <trkpt lat="49.2834" lon="-0.1994">
        <ele>5.42</ele>
        <time>2016-08-12T13:54:58Z</time>
      </trkpt>
      <trkpt lat="49.28364" lon="-0.19964">
        <ele>5.42</ele>
        <time>2016-08-12T13:55:03Z</time>
      </trkpt>
      <trkpt lat="49.28441" lon="-0.20038">
        <ele>4.46</ele>
        <time>2016-08-12T13:55:19Z</time>
      </trkpt>
      <trkpt lat="49.28446" lon="-0.20042">
        <ele>4.46</ele>
        <time>2016-08-12T13:55:20Z</time>
      </trkpt>
      <trkpt lat="49.28451" lon="-0.20047">
        <ele>4.94</ele>
        <time>2016-08-12T13:55:21Z</time>
      </trkpt>
      <trkpt lat="49.28455" lon="-0.2005">
        <ele>4.94</ele>
        <time>2016-08-12T13:55:22Z</time>
      </trkpt>
      <trkpt lat="49.2846" lon="-0.20052">
        <ele>4.94</ele>
        <time>2016-08-12T13:55:23Z</time>
      </trkpt>
      <trkpt lat="49.28528" lon="-0.20071">
        <ele>7.35</ele>
        <time>2016-08-12T13:55:37Z</time>
      </trkpt>
      <trkpt lat="49.28561" lon="-0.2008">
        <ele>8.31</ele>
        <time>2016-08-12T13:55:48Z</time>
      </trkpt>
      <trkpt lat="49.28563" lon="-0.20087">
        <ele>8.79</ele>
        <time>2016-08-12T13:55:55Z</time>
      </trkpt>
      <trkpt lat="49.28563" lon="-0.2009">
        <ele>8.79</ele>
        <time>2016-08-12T13:55:56Z</time>
      </trkpt>
      <trkpt lat="49.28563" lon="-0.20093">
        <ele>8.79</ele>
        <time>2016-08-12T13:55:57Z</time>
      </trkpt>
      <trkpt lat="49.28562" lon="-0.20096">
        <ele>8.79</ele>
        <time>2016-08-12T13:55:58Z</time>
      </trkpt>
      <trkpt lat="49.28562" lon="-0.20099">
        <ele>8.79</ele>
        <time>2016-08-12T13:55:59Z</time>
      </trkpt>
      <trkpt lat="49.28561" lon="-0.20103">
        <ele>8.79</ele>
        <time>2016-08-12T13:56:00Z</time>
      </trkpt>
      <trkpt lat="49.28561" lon="-0.20115">
        <ele>8.79</ele>
        <time>2016-08-12T13:56:03Z</time>
      </trkpt>
      <trkpt lat="49.28563" lon="-0.20116">
        <ele>8.79</ele>
        <time>2016-08-12T13:56:04Z</time>
      </trkpt>
      <trkpt lat="49.28565" lon="-0.20116">
        <ele>8.79</ele>
        <time>2016-08-12T13:56:05Z</time>
      </trkpt>
      <trkpt lat="49.28567" lon="-0.20115">
        <ele>8.31</ele>
        <time>2016-08-12T13:56:06Z</time>
      </trkpt>
      <trkpt lat="49.2857" lon="-0.20115">
        <ele>8.31</ele>
        <time>2016-08-12T13:56:07Z</time>
      </trkpt>
      <trkpt lat="49.28572" lon="-0.20114">
        <ele>7.83</ele>
        <time>2016-08-12T13:56:08Z</time>
      </trkpt>
      <trkpt lat="49.28602" lon="-0.20099">
        <ele>7.35</ele>
        <time>2016-08-12T13:56:23Z</time>
      </trkpt>
      <trkpt lat="49.28603" lon="-0.20097">
        <ele>7.83</ele>
        <time>2016-08-12T13:56:24Z</time>
      </trkpt>
      <trkpt lat="49.28603" lon="-0.20095">
        <ele>7.83</ele>
        <time>2016-08-12T13:56:25Z</time>
      </trkpt>
      <trkpt lat="49.28604" lon="-0.20093">
        <ele>7.83</ele>
        <time>2016-08-12T13:56:26Z</time>
      </trkpt>
      <trkpt lat="49.28603" lon="-0.2009">
        <ele>7.83</ele>
        <time>2016-08-12T13:56:27Z</time>
      </trkpt>
      <trkpt lat="49.28602" lon="-0.20088">
        <ele>7.83</ele>
        <time>2016-08-12T13:56:28Z</time>
      </trkpt>
      <trkpt lat="49.28601" lon="-0.20086">
        <ele>7.83</ele>
        <time>2016-08-12T13:56:29Z</time>
      </trkpt>
      <trkpt lat="49.28599" lon="-0.20084">
        <ele>7.35</ele>
        <time>2016-08-12T13:56:30Z</time>
      </trkpt>
      <trkpt lat="49.28597" lon="-0.20083">
        <ele>7.35</ele>
        <time>2016-08-12T13:56:31Z</time>
      </trkpt>
      <trkpt lat="49.28595" lon="-0.20083">
        <ele>7.35</ele>
        <time>2016-08-12T13:56:32Z</time>
      </trkpt>
      <trkpt lat="49.28593" lon="-0.20083">
        <ele>7.35</ele>
        <time>2016-08-12T13:56:33Z</time>
      </trkpt>
      <trkpt lat="49.28592" lon="-0.20084">
        <ele>7.35</ele>
        <time>2016-08-12T13:56:34Z</time>
      </trkpt>
      <trkpt lat="49.28591" lon="-0.20085">
        <ele>7.35</ele>
        <time>2016-08-12T13:56:35Z</time>
      </trkpt>
      <trkpt lat="49.28591" lon="-0.20088">
        <ele>7.35</ele>
        <time>2016-08-12T13:56:36Z</time>
      </trkpt>
      <trkpt lat="49.28591" lon="-0.20091">
        <ele>7.35</ele>
        <time>2016-08-12T13:56:37Z</time>
      </trkpt>
      <trkpt lat="49.28593" lon="-0.20104">
        <ele>6.87</ele>
        <time>2016-08-12T13:56:40Z</time>
      </trkpt>
      <trkpt lat="49.28592" lon="-0.20107">
        <ele>6.87</ele>
        <time>2016-08-12T13:56:41Z</time>
      </trkpt>
      <trkpt lat="49.2859" lon="-0.20109">
        <ele>6.39</ele>
        <time>2016-08-12T13:56:42Z</time>
      </trkpt>
      <trkpt lat="49.28588" lon="-0.20111">
        <ele>6.39</ele>
        <time>2016-08-12T13:56:43Z</time>
      </trkpt>
      <trkpt lat="49.28585" lon="-0.20112">
        <ele>6.87</ele>
        <time>2016-08-12T13:56:44Z</time>
      </trkpt>
      <trkpt lat="49.28582" lon="-0.20113">
        <ele>6.39</ele>
        <time>2016-08-12T13:56:45Z</time>
      </trkpt>
      <trkpt lat="49.28572" lon="-0.20119">
        <ele>7.35</ele>
        <time>2016-08-12T13:56:50Z</time>
      </trkpt>
      <trkpt lat="49.28572" lon="-0.2012">
        <ele>6.87</ele>
        <time>2016-08-12T13:56:51Z</time>
      </trkpt>
      <trkpt lat="49.28568" lon="-0.2012">
        <ele>6.87</ele>
        <time>2016-08-12T13:56:54Z</time>
      </trkpt>
      <trkpt lat="49.28567" lon="-0.2012">
        <ele>7.35</ele>
        <time>2016-08-12T13:56:55Z</time>
      </trkpt>
      <trkpt lat="49.28562" lon="-0.20119">
        <ele>7.35</ele>
        <time>2016-08-12T13:56:58Z</time>
      </trkpt>
      <trkpt lat="49.28561" lon="-0.20117">
        <ele>7.35</ele>
        <time>2016-08-12T13:56:59Z</time>
      </trkpt>
      <trkpt lat="49.2856" lon="-0.20113">
        <ele>7.35</ele>
        <time>2016-08-12T13:57:00Z</time>
      </trkpt>
      <trkpt lat="49.2856" lon="-0.20108">
        <ele>7.35</ele>
        <time>2016-08-12T13:57:01Z</time>
      </trkpt>
      <trkpt lat="49.2856" lon="-0.20103">
        <ele>7.35</ele>
        <time>2016-08-12T13:57:02Z</time>
      </trkpt>
      <trkpt lat="49.2856" lon="-0.20098">
        <ele>7.83</ele>
        <time>2016-08-12T13:57:03Z</time>
      </trkpt>
      <trkpt lat="49.28561" lon="-0.20095">
        <ele>7.83</ele>
        <time>2016-08-12T13:57:04Z</time>
      </trkpt>
      <trkpt lat="49.28561" lon="-0.20093">
        <ele>7.83</ele>
        <time>2016-08-12T13:57:05Z</time>
      </trkpt>
      <trkpt lat="49.28562" lon="-0.2009">
        <ele>7.83</ele>
        <time>2016-08-12T13:57:06Z</time>
      </trkpt>
      <trkpt lat="49.28561" lon="-0.20087">
        <ele>7.83</ele>
        <time>2016-08-12T13:57:07Z</time>
      </trkpt>
      <trkpt lat="49.2856" lon="-0.20084">
        <ele>7.83</ele>
        <time>2016-08-12T13:57:08Z</time>
      </trkpt>
      <trkpt lat="49.28556" lon="-0.20081">
        <ele>7.35</ele>
        <time>2016-08-12T13:57:09Z</time>
      </trkpt>
      <trkpt lat="49.28552" lon="-0.2008">
        <ele>7.35</ele>
        <time>2016-08-12T13:57:10Z</time>
      </trkpt>
      <trkpt lat="49.28545" lon="-0.20077">
        <ele>7.35</ele>
        <time>2016-08-12T13:57:12Z</time>
      </trkpt>
      <trkpt lat="49.28537" lon="-0.20074">
        <ele>6.87</ele>
        <time>2016-08-12T13:57:14Z</time>
      </trkpt>
      <trkpt lat="49.28477" lon="-0.20059">
        <ele>7.35</ele>
        <time>2016-08-12T13:57:27Z</time>
      </trkpt>
      <trkpt lat="49.28474" lon="-0.20053">
        <ele>6.87</ele>
        <time>2016-08-12T13:57:28Z</time>
      </trkpt>
      <trkpt lat="49.28474" lon="-0.20046">
        <ele>6.87</ele>
        <time>2016-08-12T13:57:29Z</time>
      </trkpt>
      <trkpt lat="49.28475" lon="-0.20038">
        <ele>6.87</ele>
        <time>2016-08-12T13:57:30Z</time>
      </trkpt>
      <trkpt lat="49.28476" lon="-0.2003">
        <ele>6.87</ele>
        <time>2016-08-12T13:57:31Z</time>
      </trkpt>
      <trkpt lat="49.2849" lon="-0.19906">
        <ele>6.39</ele>
        <time>2016-08-12T13:57:45Z</time>
      </trkpt>
      <trkpt lat="49.28492" lon="-0.1988">
        <ele>6.39</ele>
        <time>2016-08-12T13:57:48Z</time>
      </trkpt>
      <trkpt lat="49.28495" lon="-0.19837">
        <ele>6.87</ele>
        <time>2016-08-12T13:57:55Z</time>
      </trkpt>
      <trkpt lat="49.28492" lon="-0.19834">
        <ele>6.87</ele>
        <time>2016-08-12T13:57:56Z</time>
      </trkpt>
      <trkpt lat="49.28488" lon="-0.19831">
        <ele>6.87</ele>
        <time>2016-08-12T13:57:57Z</time>
      </trkpt>
      <trkpt lat="49.28483" lon="-0.19826">
        <ele>6.39</ele>
        <time>2016-08-12T13:57:58Z</time>
      </trkpt>
      <trkpt lat="49.28479" lon="-0.1982">
        <ele>6.39</ele>
        <time>2016-08-12T13:57:59Z</time>
      </trkpt>
      <trkpt lat="49.28474" lon="-0.19815">
        <ele>5.91</ele>
        <time>2016-08-12T13:58:00Z</time>
      </trkpt>
      <trkpt lat="49.28469" lon="-0.19811">
        <ele>5.91</ele>
        <time>2016-08-12T13:58:01Z</time>
      </trkpt>
      <trkpt lat="49.28454" lon="-0.19796">
        <ele>5.91</ele>
        <time>2016-08-12T13:58:04Z</time>
      </trkpt>
      <trkpt lat="49.28449" lon="-0.1979">
        <ele>5.91</ele>
        <time>2016-08-12T13:58:05Z</time>
      </trkpt>
      <trkpt lat="49.28444" lon="-0.19786">
        <ele>6.39</ele>
        <time>2016-08-12T13:58:06Z</time>
      </trkpt>
      <trkpt lat="49.28438" lon="-0.19782">
        <ele>6.39</ele>
        <time>2016-08-12T13:58:07Z</time>
      </trkpt>
      <trkpt lat="49.28433" lon="-0.19777">
        <ele>6.39</ele>
        <time>2016-08-12T13:58:08Z</time>
      </trkpt>
      <trkpt lat="49.28428" lon="-0.19772">
        <ele>6.39</ele>
        <time>2016-08-12T13:58:09Z</time>
      </trkpt>
      <trkpt lat="49.28353" lon="-0.197">
        <ele>6.87</ele>
        <time>2016-08-12T13:58:23Z</time>
      </trkpt>
      <trkpt lat="49.28331" lon="-0.19678">
        <ele>6.87</ele>
        <time>2016-08-12T13:58:27Z</time>
      </trkpt>
      <trkpt lat="49.28237" lon="-0.19587">
        <ele>4.46</ele>
        <time>2016-08-12T13:58:44Z</time>
      </trkpt>
      <trkpt lat="49.28216" lon="-0.19565">
        <ele>3.98</ele>
        <time>2016-08-12T13:58:48Z</time>
      </trkpt>
      <trkpt lat="49.28211" lon="-0.19559">
        <ele>3.98</ele>
        <time>2016-08-12T13:58:49Z</time>
      </trkpt>
      <trkpt lat="49.28205" lon="-0.19554">
        <ele>3.98</ele>
        <time>2016-08-12T13:58:50Z</time>
      </trkpt>
      <trkpt lat="49.282" lon="-0.19549">
        <ele>3.5</ele>
        <time>2016-08-12T13:58:51Z</time>
      </trkpt>
      <trkpt lat="49.28195" lon="-0.19543">
        <ele>3.5</ele>
        <time>2016-08-12T13:58:52Z</time>
      </trkpt>
      <trkpt lat="49.28189" lon="-0.19538">
        <ele>3.02</ele>
        <time>2016-08-12T13:58:53Z</time>
      </trkpt>
      <trkpt lat="49.28179" lon="-0.19528">
        <ele>2.54</ele>
        <time>2016-08-12T13:58:55Z</time>
      </trkpt>
      <trkpt lat="49.28175" lon="-0.19524">
        <ele>2.54</ele>
        <time>2016-08-12T13:58:56Z</time>
      </trkpt>
      <trkpt lat="49.28168" lon="-0.19519">
        <ele>2.54</ele>
        <time>2016-08-12T13:59:03Z</time>
      </trkpt>
      <trkpt lat="49.28166" lon="-0.19518">
        <ele>3.02</ele>
        <time>2016-08-12T13:59:17Z</time>
      </trkpt>
      <trkpt lat="49.28165" lon="-0.19515">
        <ele>3.02</ele>
        <time>2016-08-12T13:59:18Z</time>
      </trkpt>
      <trkpt lat="49.28164" lon="-0.19512">
        <ele>3.5</ele>
        <time>2016-08-12T13:59:19Z</time>
      </trkpt>
      <trkpt lat="49.28165" lon="-0.19507">
        <ele>3.5</ele>
        <time>2016-08-12T13:59:20Z</time>
      </trkpt>
      <trkpt lat="49.28167" lon="-0.19501">
        <ele>3.5</ele>
        <time>2016-08-12T13:59:21Z</time>
      </trkpt>
      <trkpt lat="49.28169" lon="-0.19495">
        <ele>3.5</ele>
        <time>2016-08-12T13:59:22Z</time>
      </trkpt>
      <trkpt lat="49.28172" lon="-0.19488">
        <ele>3.5</ele>
        <time>2016-08-12T13:59:23Z</time>
      </trkpt>
      <trkpt lat="49.28175" lon="-0.1948">
        <ele>3.5</ele>
        <time>2016-08-12T13:59:24Z</time>
      </trkpt>
      <trkpt lat="49.28221" lon="-0.1935">
        <ele>3.5</ele>
        <time>2016-08-12T13:59:40Z</time>
      </trkpt>
      <trkpt lat="49.28269" lon="-0.19218">
        <ele>3.02</ele>
        <time>2016-08-12T13:59:56Z</time>
      </trkpt>
      <trkpt lat="49.2831" lon="-0.19087">
        <ele>3.5</ele>
        <time>2016-08-12T14:00:11Z</time>
      </trkpt>
      <trkpt lat="49.28319" lon="-0.19042">
        <ele>3.98</ele>
        <time>2016-08-12T14:00:16Z</time>
      </trkpt>
      <trkpt lat="49.2832" lon="-0.19032">
        <ele>3.98</ele>
        <time>2016-08-12T14:00:17Z</time>
      </trkpt>
      <trkpt lat="49.28323" lon="-0.19013">
        <ele>3.98</ele>
        <time>2016-08-12T14:00:19Z</time>
      </trkpt>
      <trkpt lat="49.28346" lon="-0.18875">
        <ele>3.98</ele>
        <time>2016-08-12T14:00:33Z</time>
      </trkpt>
      <trkpt lat="49.28352" lon="-0.18846">
        <ele>3.5</ele>
        <time>2016-08-12T14:00:36Z</time>
      </trkpt>
      <trkpt lat="49.28371" lon="-0.18784">
        <ele>3.5</ele>
        <time>2016-08-12T14:00:43Z</time>
      </trkpt>
      <trkpt lat="49.28381" lon="-0.18746">
        <ele>3.02</ele>
        <time>2016-08-12T14:00:47Z</time>
      </trkpt>
      <trkpt lat="49.28403" lon="-0.18683">
        <ele>3.02</ele>
        <time>2016-08-12T14:00:54Z</time>
      </trkpt>
      <trkpt lat="49.28407" lon="-0.18675">
        <ele>3.02</ele>
        <time>2016-08-12T14:00:55Z</time>
      </trkpt>
      <trkpt lat="49.2841" lon="-0.18666">
        <ele>2.54</ele>
        <time>2016-08-12T14:00:56Z</time>
      </trkpt>
      <trkpt lat="49.28439" lon="-0.18588">
        <ele>3.98</ele>
        <time>2016-08-12T14:01:05Z</time>
      </trkpt>
      <trkpt lat="49.28471" lon="-0.18451">
        <ele>3.5</ele>
        <time>2016-08-12T14:01:21Z</time>
      </trkpt>
      <trkpt lat="49.28473" lon="-0.18418">
        <ele>3.5</ele>
        <time>2016-08-12T14:01:30Z</time>
      </trkpt>
      <trkpt lat="49.28473" lon="-0.18309">
        <ele>3.98</ele>
        <time>2016-08-12T14:01:41Z</time>
      </trkpt>
      <trkpt lat="49.28464" lon="-0.18179">
        <ele>3.5</ele>
        <time>2016-08-12T14:01:54Z</time>
      </trkpt>
      <trkpt lat="49.28452" lon="-0.18019">
        <ele>3.98</ele>
        <time>2016-08-12T14:02:10Z</time>
      </trkpt>
      <trkpt lat="49.2845" lon="-0.1796">
        <ele>3.5</ele>
        <time>2016-08-12T14:02:16Z</time>
      </trkpt>
      <trkpt lat="49.28456" lon="-0.17876">
        <ele>2.54</ele>
        <time>2016-08-12T14:02:25Z</time>
      </trkpt>
      <trkpt lat="49.28463" lon="-0.17825">
        <ele>2.06</ele>
        <time>2016-08-12T14:02:31Z</time>
      </trkpt>
      <trkpt lat="49.28463" lon="-0.17818">
        <ele>2.06</ele>
        <time>2016-08-12T14:02:32Z</time>
      </trkpt>
      <trkpt lat="49.28461" lon="-0.17812">
        <ele>2.06</ele>
        <time>2016-08-12T14:02:33Z</time>
      </trkpt>
      <trkpt lat="49.28461" lon="-0.17806">
        <ele>2.06</ele>
        <time>2016-08-12T14:02:34Z</time>
      </trkpt>
      <trkpt lat="49.28462" lon="-0.178">
        <ele>2.06</ele>
        <time>2016-08-12T14:02:35Z</time>
      </trkpt>
      <trkpt lat="49.28464" lon="-0.17794">
        <ele>2.06</ele>
        <time>2016-08-12T14:02:36Z</time>
      </trkpt>
      <trkpt lat="49.28467" lon="-0.17788">
        <ele>2.06</ele>
        <time>2016-08-12T14:02:37Z</time>
      </trkpt>
      <trkpt lat="49.2847" lon="-0.17782">
        <ele>2.54</ele>
        <time>2016-08-12T14:02:38Z</time>
      </trkpt>
      <trkpt lat="49.28473" lon="-0.17775">
        <ele>2.54</ele>
        <time>2016-08-12T14:02:39Z</time>
      </trkpt>
      <trkpt lat="49.28474" lon="-0.17766">
        <ele>2.54</ele>
        <time>2016-08-12T14:02:40Z</time>
      </trkpt>
      <trkpt lat="49.28492" lon="-0.17649">
        <ele>3.02</ele>
        <time>2016-08-12T14:02:53Z</time>
      </trkpt>
      <trkpt lat="49.28492" lon="-0.1763">
        <ele>3.5</ele>
        <time>2016-08-12T14:02:55Z</time>
      </trkpt>
      <trkpt lat="49.28492" lon="-0.17621">
        <ele>3.5</ele>
        <time>2016-08-12T14:02:56Z</time>
      </trkpt>
      <trkpt lat="49.28491" lon="-0.17611">
        <ele>3.02</ele>
        <time>2016-08-12T14:02:57Z</time>
      </trkpt>
      <trkpt lat="49.28476" lon="-0.17472">
        <ele>3.5</ele>
        <time>2016-08-12T14:03:12Z</time>
      </trkpt>
      <trkpt lat="49.2846" lon="-0.17336">
        <ele>3.98</ele>
        <time>2016-08-12T14:03:26Z</time>
      </trkpt>
      <trkpt lat="49.2845" lon="-0.17246">
        <ele>3.98</ele>
        <time>2016-08-12T14:03:35Z</time>
      </trkpt>
      <trkpt lat="49.28438" lon="-0.17138">
        <ele>3.5</ele>
        <time>2016-08-12T14:03:46Z</time>
      </trkpt>
      <trkpt lat="49.28436" lon="-0.1713">
        <ele>3.5</ele>
        <time>2016-08-12T14:03:47Z</time>
      </trkpt>
      <trkpt lat="49.28436" lon="-0.17121">
        <ele>3.5</ele>
        <time>2016-08-12T14:03:48Z</time>
      </trkpt>
      <trkpt lat="49.28436" lon="-0.17112">
        <ele>3.98</ele>
        <time>2016-08-12T14:03:49Z</time>
      </trkpt>
      <trkpt lat="49.28436" lon="-0.17102">
        <ele>3.98</ele>
        <time>2016-08-12T14:03:50Z</time>
      </trkpt>
      <trkpt lat="49.28435" lon="-0.17092">
        <ele>3.98</ele>
        <time>2016-08-12T14:03:51Z</time>
      </trkpt>
      <trkpt lat="49.28429" lon="-0.16936">
        <ele>3.98</ele>
        <time>2016-08-12T14:04:07Z</time>
      </trkpt>
      <trkpt lat="49.28444" lon="-0.16802">
        <ele>1.58</ele>
        <time>2016-08-12T14:04:21Z</time>
      </trkpt>
      <trkpt lat="49.28445" lon="-0.16679">
        <ele>1.58</ele>
        <time>2016-08-12T14:04:33Z</time>
      </trkpt>
      <trkpt lat="49.28442" lon="-0.16629">
        <ele>1.1</ele>
        <time>2016-08-12T14:04:38Z</time>
      </trkpt>
      <trkpt lat="49.28441" lon="-0.16599">
        <ele>0.14</ele>
        <time>2016-08-12T14:04:41Z</time>
      </trkpt>
      <trkpt lat="49.28446" lon="-0.16469">
        <ele>-0.34</ele>
        <time>2016-08-12T14:04:54Z</time>
      </trkpt>
      <trkpt lat="49.28461" lon="-0.1632">
        <ele>1.58</ele>
        <time>2016-08-12T14:05:08Z</time>
      </trkpt>
      <trkpt lat="49.28466" lon="-0.16287">
        <ele>1.58</ele>
        <time>2016-08-12T14:05:11Z</time>
      </trkpt>
      <trkpt lat="49.28472" lon="-0.16196">
        <ele>1.58</ele>
        <time>2016-08-12T14:05:22Z</time>
      </trkpt>
      <trkpt lat="49.28472" lon="-0.1619">
        <ele>2.06</ele>
        <time>2016-08-12T14:05:24Z</time>
      </trkpt>
      <trkpt lat="49.28473" lon="-0.16187">
        <ele>2.54</ele>
        <time>2016-08-12T14:05:25Z</time>
      </trkpt>
      <trkpt lat="49.28473" lon="-0.16184">
        <ele>3.02</ele>
        <time>2016-08-12T14:05:26Z</time>
      </trkpt>
      <trkpt lat="49.28472" lon="-0.16176">
        <ele>3.5</ele>
        <time>2016-08-12T14:05:31Z</time>
      </trkpt>
      <trkpt lat="49.28471" lon="-0.16173">
        <ele>3.02</ele>
        <time>2016-08-12T14:05:32Z</time>
      </trkpt>
      <trkpt lat="49.2847" lon="-0.16169">
        <ele>3.02</ele>
        <time>2016-08-12T14:05:33Z</time>
      </trkpt>
      <trkpt lat="49.28468" lon="-0.16148">
        <ele>3.02</ele>
        <time>2016-08-12T14:05:38Z</time>
      </trkpt>
      <trkpt lat="49.28468" lon="-0.16141">
        <ele>2.54</ele>
        <time>2016-08-12T14:05:39Z</time>
      </trkpt>
      <trkpt lat="49.28469" lon="-0.16132">
        <ele>2.54</ele>
        <time>2016-08-12T14:05:40Z</time>
      </trkpt>
      <trkpt lat="49.28468" lon="-0.16123">
        <ele>2.06</ele>
        <time>2016-08-12T14:05:41Z</time>
      </trkpt>
      <trkpt lat="49.28467" lon="-0.16112">
        <ele>1.58</ele>
        <time>2016-08-12T14:05:42Z</time>
      </trkpt>
      <trkpt lat="49.28462" lon="-0.16002">
        <ele>1.58</ele>
        <time>2016-08-12T14:05:52Z</time>
      </trkpt>
      <trkpt lat="49.28454" lon="-0.15832">
        <ele>3.02</ele>
        <time>2016-08-12T14:06:08Z</time>
      </trkpt>
      <trkpt lat="49.28446" lon="-0.15672">
        <ele>3.5</ele>
        <time>2016-08-12T14:06:23Z</time>
      </trkpt>
      <trkpt lat="49.28438" lon="-0.15462">
        <ele>3.02</ele>
        <time>2016-08-12T14:06:42Z</time>
      </trkpt>
      <trkpt lat="49.28431" lon="-0.15275">
        <ele>2.06</ele>
        <time>2016-08-12T14:06:58Z</time>
      </trkpt>
      <trkpt lat="49.28428" lon="-0.15124">
        <ele>0.14</ele>
        <time>2016-08-12T14:07:11Z</time>
      </trkpt>
      <trkpt lat="49.28435" lon="-0.14983">
        <ele>-0.82</ele>
        <time>2016-08-12T14:07:24Z</time>
      </trkpt>
      <trkpt lat="49.28446" lon="-0.14806">
        <ele>-0.34</ele>
        <time>2016-08-12T14:07:40Z</time>
      </trkpt>
      <trkpt lat="49.2846" lon="-0.14618">
        <ele>0.62</ele>
        <time>2016-08-12T14:07:57Z</time>
      </trkpt>
      <trkpt lat="49.28474" lon="-0.1449">
        <ele>1.58</ele>
        <time>2016-08-12T14:08:09Z</time>
      </trkpt>
      <trkpt lat="49.28504" lon="-0.14355">
        <ele>2.54</ele>
        <time>2016-08-12T14:08:23Z</time>
      </trkpt>
      <trkpt lat="49.28507" lon="-0.14335">
        <ele>2.54</ele>
        <time>2016-08-12T14:08:25Z</time>
      </trkpt>
      <trkpt lat="49.28527" lon="-0.1419">
        <ele>2.54</ele>
        <time>2016-08-12T14:08:40Z</time>
      </trkpt>
      <trkpt lat="49.28541" lon="-0.14064">
        <ele>1.58</ele>
        <time>2016-08-12T14:08:53Z</time>
      </trkpt>
      <trkpt lat="49.28544" lon="-0.13951">
        <ele>1.58</ele>
        <time>2016-08-12T14:09:06Z</time>
      </trkpt>
      <trkpt lat="49.28546" lon="-0.13923">
        <ele>1.58</ele>
        <time>2016-08-12T14:09:12Z</time>
      </trkpt>
      <trkpt lat="49.28547" lon="-0.13916">
        <ele>1.58</ele>
        <time>2016-08-12T14:09:13Z</time>
      </trkpt>
      <trkpt lat="49.28561" lon="-0.13807">
        <ele>2.54</ele>
        <time>2016-08-12T14:09:25Z</time>
      </trkpt>
      <trkpt lat="49.28578" lon="-0.1368">
        <ele>3.98</ele>
        <time>2016-08-12T14:09:39Z</time>
      </trkpt>
      <trkpt lat="49.28586" lon="-0.13643">
        <ele>4.46</ele>
        <time>2016-08-12T14:09:45Z</time>
      </trkpt>
      <trkpt lat="49.28589" lon="-0.13641">
        <ele>4.94</ele>
        <time>2016-08-12T14:09:46Z</time>
      </trkpt>
      <trkpt lat="49.28594" lon="-0.13643">
        <ele>4.94</ele>
        <time>2016-08-12T14:09:47Z</time>
      </trkpt>
      <trkpt lat="49.2866" lon="-0.13663">
        <ele>5.91</ele>
        <time>2016-08-12T14:09:59Z</time>
      </trkpt>
      <trkpt lat="49.28716" lon="-0.13679">
        <ele>6.39</ele>
        <time>2016-08-12T14:10:09Z</time>
      </trkpt>
      <trkpt lat="49.28802" lon="-0.13704">
        <ele>6.87</ele>
        <time>2016-08-12T14:10:24Z</time>
      </trkpt>
      <trkpt lat="49.28867" lon="-0.13724">
        <ele>7.83</ele>
        <time>2016-08-12T14:10:36Z</time>
      </trkpt>
      <trkpt lat="49.28901" lon="-0.13735">
        <ele>7.83</ele>
        <time>2016-08-12T14:10:45Z</time>
      </trkpt>
      <trkpt lat="49.2891" lon="-0.13738">
        <ele>7.83</ele>
        <time>2016-08-12T14:10:47Z</time>
      </trkpt>
      <trkpt lat="49.28935" lon="-0.13745">
        <ele>10.23</ele>
        <time>2016-08-12T14:10:56Z</time>
      </trkpt>
      <trkpt lat="49.28934" lon="-0.13747">
        <ele>10.71</ele>
        <time>2016-08-12T14:10:57Z</time>
      </trkpt>
      <trkpt lat="49.28932" lon="-0.13748">
        <ele>10.71</ele>
        <time>2016-08-12T14:10:58Z</time>
      </trkpt>
      <trkpt lat="49.2893" lon="-0.13748">
        <ele>10.23</ele>
        <time>2016-08-12T14:10:59Z</time>
      </trkpt>
      <trkpt lat="49.28928" lon="-0.13747">
        <ele>10.23</ele>
        <time>2016-08-12T14:11:00Z</time>
      </trkpt>
      <trkpt lat="49.28925" lon="-0.13746">
        <ele>9.75</ele>
        <time>2016-08-12T14:11:01Z</time>
      </trkpt>
      <trkpt lat="49.28922" lon="-0.13745">
        <ele>9.75</ele>
        <time>2016-08-12T14:11:02Z</time>
      </trkpt>
      <trkpt lat="49.28919" lon="-0.13744">
        <ele>9.27</ele>
        <time>2016-08-12T14:11:03Z</time>
      </trkpt>
      <trkpt lat="49.28889" lon="-0.13734">
        <ele>8.79</ele>
        <time>2016-08-12T14:11:11Z</time>
      </trkpt>
      <trkpt lat="49.28887" lon="-0.13728">
        <ele>8.31</ele>
        <time>2016-08-12T14:11:12Z</time>
      </trkpt>
      <trkpt lat="49.28887" lon="-0.13722">
        <ele>8.31</ele>
        <time>2016-08-12T14:11:13Z</time>
      </trkpt>
      <trkpt lat="49.28888" lon="-0.13715">
        <ele>7.83</ele>
        <time>2016-08-12T14:11:14Z</time>
      </trkpt>
      <trkpt lat="49.28889" lon="-0.13709">
        <ele>7.83</ele>
        <time>2016-08-12T14:11:15Z</time>
      </trkpt>
      <trkpt lat="49.2889" lon="-0.13703">
        <ele>7.83</ele>
        <time>2016-08-12T14:11:16Z</time>
      </trkpt>
      <trkpt lat="49.2889" lon="-0.13697">
        <ele>7.35</ele>
        <time>2016-08-12T14:11:17Z</time>
      </trkpt>
      <trkpt lat="49.28891" lon="-0.13691">
        <ele>7.35</ele>
        <time>2016-08-12T14:11:18Z</time>
      </trkpt>
      <trkpt lat="49.28892" lon="-0.13686">
        <ele>7.35</ele>
        <time>2016-08-12T14:11:19Z</time>
      </trkpt>
      <trkpt lat="49.28893" lon="-0.1368">
        <ele>7.35</ele>
        <time>2016-08-12T14:11:20Z</time>
      </trkpt>
      <trkpt lat="49.28897" lon="-0.13647">
        <ele>6.39</ele>
        <time>2016-08-12T14:11:27Z</time>
      </trkpt>
      <trkpt lat="49.28899" lon="-0.13645">
        <ele>6.87</ele>
        <time>2016-08-12T14:11:28Z</time>
      </trkpt>
      <trkpt lat="49.28902" lon="-0.13644">
        <ele>7.35</ele>
        <time>2016-08-12T14:11:29Z</time>
      </trkpt>
      <trkpt lat="49.28905" lon="-0.13645">
        <ele>7.35</ele>
        <time>2016-08-12T14:11:30Z</time>
      </trkpt>
      <trkpt lat="49.28909" lon="-0.13646">
        <ele>7.83</ele>
        <time>2016-08-12T14:11:31Z</time>
      </trkpt>
      <trkpt lat="49.28913" lon="-0.13646">
        <ele>7.83</ele>
        <time>2016-08-12T14:11:32Z</time>
      </trkpt>
      <trkpt lat="49.28965" lon="-0.13661">
        <ele>9.75</ele>
        <time>2016-08-12T14:11:44Z</time>
      </trkpt>
      <trkpt lat="49.28985" lon="-0.1367">
        <ele>11.19</ele>
        <time>2016-08-12T14:11:52Z</time>
      </trkpt>
      <trkpt lat="49.28987" lon="-0.1367">
        <ele>11.19</ele>
        <time>2016-08-12T14:11:53Z</time>
      </trkpt>
      <trkpt lat="49.28988" lon="-0.1367">
        <ele>11.19</ele>
        <time>2016-08-12T14:11:54Z</time>
      </trkpt>
      <trkpt lat="49.28989" lon="-0.1367">
        <ele>11.19</ele>
        <time>2016-08-12T14:11:56Z</time>
      </trkpt>
      <trkpt lat="49.2899" lon="-0.13671">
        <ele>11.19</ele>
        <time>2016-08-12T14:11:57Z</time>
      </trkpt>
      <trkpt lat="49.28992" lon="-0.13673">
        <ele>11.19</ele>
        <time>2016-08-12T14:11:58Z</time>
      </trkpt>
      <trkpt lat="49.28994" lon="-0.13675">
        <ele>11.19</ele>
        <time>2016-08-12T14:11:59Z</time>
      </trkpt>
      <trkpt lat="49.28996" lon="-0.13676">
        <ele>10.71</ele>
        <time>2016-08-12T14:12:00Z</time>
      </trkpt>
      <trkpt lat="49.28999" lon="-0.13676">
        <ele>10.71</ele>
        <time>2016-08-12T14:12:01Z</time>
      </trkpt>
      <trkpt lat="49.29002" lon="-0.13676">
        <ele>10.23</ele>
        <time>2016-08-12T14:12:02Z</time>
      </trkpt>
      <trkpt lat="49.29007" lon="-0.13671">
        <ele>8.79</ele>
        <time>2016-08-12T14:12:04Z</time>
      </trkpt>
      <trkpt lat="49.29008" lon="-0.13665">
        <ele>8.31</ele>
        <time>2016-08-12T14:12:05Z</time>
      </trkpt>
      <trkpt lat="49.2901" lon="-0.13652">
        <ele>6.87</ele>
        <time>2016-08-12T14:12:07Z</time>
      </trkpt>
      <trkpt lat="49.29023" lon="-0.13583">
        <ele>6.39</ele>
        <time>2016-08-12T14:12:16Z</time>
      </trkpt>
      <trkpt lat="49.29024" lon="-0.13575">
        <ele>5.91</ele>
        <time>2016-08-12T14:12:17Z</time>
      </trkpt>
      <trkpt lat="49.29025" lon="-0.13568">
        <ele>5.91</ele>
        <time>2016-08-12T14:12:18Z</time>
      </trkpt>
      <trkpt lat="49.29026" lon="-0.1356">
        <ele>5.42</ele>
        <time>2016-08-12T14:12:19Z</time>
      </trkpt>
      <trkpt lat="49.29028" lon="-0.13552">
        <ele>5.42</ele>
        <time>2016-08-12T14:12:20Z</time>
      </trkpt>
      <trkpt lat="49.29052" lon="-0.13417">
        <ele>6.87</ele>
        <time>2016-08-12T14:12:37Z</time>
      </trkpt>
      <trkpt lat="49.29076" lon="-0.1328">
        <ele>7.83</ele>
        <time>2016-08-12T14:12:54Z</time>
      </trkpt>
      <trkpt lat="49.29097" lon="-0.13151">
        <ele>7.83</ele>
        <time>2016-08-12T14:13:10Z</time>
      </trkpt>
      <trkpt lat="49.29114" lon="-0.13046">
        <ele>6.87</ele>
        <time>2016-08-12T14:13:23Z</time>
      </trkpt>
      <trkpt lat="49.29116" lon="-0.13038">
        <ele>6.87</ele>
        <time>2016-08-12T14:13:24Z</time>
      </trkpt>
      <trkpt lat="49.29139" lon="-0.12924">
        <ele>6.87</ele>
        <time>2016-08-12T14:13:39Z</time>
      </trkpt>
      <trkpt lat="49.29162" lon="-0.12809">
        <ele>7.35</ele>
        <time>2016-08-12T14:13:54Z</time>
      </trkpt>
      <trkpt lat="49.29172" lon="-0.12764">
        <ele>7.35</ele>
        <time>2016-08-12T14:14:00Z</time>
      </trkpt>
      <trkpt lat="49.29171" lon="-0.12757">
        <ele>7.35</ele>
        <time>2016-08-12T14:14:01Z</time>
      </trkpt>
      <trkpt lat="49.2917" lon="-0.12751">
        <ele>7.83</ele>
        <time>2016-08-12T14:14:02Z</time>
      </trkpt>
      <trkpt lat="49.29168" lon="-0.12746">
        <ele>7.83</ele>
        <time>2016-08-12T14:14:03Z</time>
      </trkpt>
      <trkpt lat="49.29165" lon="-0.12742">
        <ele>8.79</ele>
        <time>2016-08-12T14:14:04Z</time>
      </trkpt>
      <trkpt lat="49.2916" lon="-0.12739">
        <ele>9.27</ele>
        <time>2016-08-12T14:14:05Z</time>
      </trkpt>
      <trkpt lat="49.29155" lon="-0.12738">
        <ele>9.75</ele>
        <time>2016-08-12T14:14:06Z</time>
      </trkpt>
      <trkpt lat="49.2915" lon="-0.12737">
        <ele>10.23</ele>
        <time>2016-08-12T14:14:07Z</time>
      </trkpt>
      <trkpt lat="49.29145" lon="-0.12735">
        <ele>10.71</ele>
        <time>2016-08-12T14:14:08Z</time>
      </trkpt>
      <trkpt lat="49.29095" lon="-0.1272">
        <ele>9.27</ele>
        <time>2016-08-12T14:14:18Z</time>
      </trkpt>
      <trkpt lat="49.29088" lon="-0.12717">
        <ele>8.79</ele>
        <time>2016-08-12T14:14:22Z</time>
      </trkpt>
      <trkpt lat="49.29087" lon="-0.12714">
        <ele>8.79</ele>
        <time>2016-08-12T14:14:23Z</time>
      </trkpt>
      <trkpt lat="49.29086" lon="-0.12708">
        <ele>9.27</ele>
        <time>2016-08-12T14:14:24Z</time>
      </trkpt>
      <trkpt lat="49.29087" lon="-0.12703">
        <ele>9.27</ele>
        <time>2016-08-12T14:14:25Z</time>
      </trkpt>
      <trkpt lat="49.29088" lon="-0.12697">
        <ele>9.27</ele>
        <time>2016-08-12T14:14:26Z</time>
      </trkpt>
      <trkpt lat="49.29091" lon="-0.12691">
        <ele>9.27</ele>
        <time>2016-08-12T14:14:27Z</time>
      </trkpt>
      <trkpt lat="49.29093" lon="-0.12685">
        <ele>9.27</ele>
        <time>2016-08-12T14:14:28Z</time>
      </trkpt>
      <trkpt lat="49.29095" lon="-0.12679">
        <ele>9.27</ele>
        <time>2016-08-12T14:14:29Z</time>
      </trkpt>
      <trkpt lat="49.29097" lon="-0.12672">
        <ele>9.27</ele>
        <time>2016-08-12T14:14:30Z</time>
      </trkpt>
      <trkpt lat="49.29098" lon="-0.12665">
        <ele>8.79</ele>
        <time>2016-08-12T14:14:31Z</time>
      </trkpt>
      <trkpt lat="49.29099" lon="-0.12658">
        <ele>8.79</ele>
        <time>2016-08-12T14:14:32Z</time>
      </trkpt>
      <trkpt lat="49.29098" lon="-0.12643">
        <ele>8.79</ele>
        <time>2016-08-12T14:14:34Z</time>
      </trkpt>
      <trkpt lat="49.29089" lon="-0.12575">
        <ele>11.19</ele>
        <time>2016-08-12T14:14:43Z</time>
      </trkpt>
      <trkpt lat="49.2909" lon="-0.12566">
        <ele>10.71</ele>
        <time>2016-08-12T14:14:44Z</time>
      </trkpt>
      <trkpt lat="49.2909" lon="-0.12558">
        <ele>10.71</ele>
        <time>2016-08-12T14:14:45Z</time>
      </trkpt>
      <trkpt lat="49.29094" lon="-0.12523">
        <ele>9.75</ele>
        <time>2016-08-12T14:14:49Z</time>
      </trkpt>
      <trkpt lat="49.29096" lon="-0.12514">
        <ele>9.27</ele>
        <time>2016-08-12T14:14:50Z</time>
      </trkpt>
      <trkpt lat="49.29102" lon="-0.12489">
        <ele>8.31</ele>
        <time>2016-08-12T14:14:53Z</time>
      </trkpt>
      <trkpt lat="49.29116" lon="-0.12425">
        <ele>5.91</ele>
        <time>2016-08-12T14:15:04Z</time>
      </trkpt>
      <trkpt lat="49.29116" lon="-0.12422">
        <ele>5.42</ele>
        <time>2016-08-12T14:15:05Z</time>
      </trkpt>
      <trkpt lat="49.29116" lon="-0.12421">
        <ele>4.94</ele>
        <time>2016-08-12T14:15:12Z</time>
      </trkpt>
      <trkpt lat="49.29116" lon="-0.12419">
        <ele>4.94</ele>
        <time>2016-08-12T14:15:13Z</time>
      </trkpt>
      <trkpt lat="49.29129" lon="-0.12368">
        <ele>5.42</ele>
        <time>2016-08-12T14:15:22Z</time>
      </trkpt>
      <trkpt lat="49.29149" lon="-0.12279">
        <ele>6.87</ele>
        <time>2016-08-12T14:15:36Z</time>
      </trkpt>
      <trkpt lat="49.29151" lon="-0.12273">
        <ele>6.87</ele>
        <time>2016-08-12T14:15:37Z</time>
      </trkpt>
      <trkpt lat="49.29153" lon="-0.12268">
        <ele>6.87</ele>
        <time>2016-08-12T14:15:38Z</time>
      </trkpt>
      <trkpt lat="49.29154" lon="-0.12262">
        <ele>6.87</ele>
        <time>2016-08-12T14:15:39Z</time>
      </trkpt>
      <trkpt lat="49.29155" lon="-0.12256">
        <ele>6.87</ele>
        <time>2016-08-12T14:15:40Z</time>
      </trkpt>
      <trkpt lat="49.29156" lon="-0.12249">
        <ele>6.87</ele>
        <time>2016-08-12T14:15:41Z</time>
      </trkpt>
      <trkpt lat="49.29157" lon="-0.12242">
        <ele>6.87</ele>
        <time>2016-08-12T14:15:42Z</time>
      </trkpt>
      <trkpt lat="49.29159" lon="-0.12236">
        <ele>6.87</ele>
        <time>2016-08-12T14:15:43Z</time>
      </trkpt>
      <trkpt lat="49.2916" lon="-0.12229">
        <ele>6.87</ele>
        <time>2016-08-12T14:15:44Z</time>
      </trkpt>
      <trkpt lat="49.29162" lon="-0.12222">
        <ele>6.87</ele>
        <time>2016-08-12T14:15:45Z</time>
      </trkpt>
      <trkpt lat="49.29164" lon="-0.12216">
        <ele>6.87</ele>
        <time>2016-08-12T14:15:46Z</time>
      </trkpt>
      <trkpt lat="49.29165" lon="-0.12209">
        <ele>6.87</ele>
        <time>2016-08-12T14:15:47Z</time>
      </trkpt>
      <trkpt lat="49.29181" lon="-0.12142">
        <ele>6.39</ele>
        <time>2016-08-12T14:15:59Z</time>
      </trkpt>
      <trkpt lat="49.29183" lon="-0.12135">
        <ele>6.87</ele>
        <time>2016-08-12T14:16:00Z</time>
      </trkpt>
      <trkpt lat="49.29184" lon="-0.12129">
        <ele>6.39</ele>
        <time>2016-08-12T14:16:01Z</time>
      </trkpt>
      <trkpt lat="49.29187" lon="-0.12116">
        <ele>6.39</ele>
        <time>2016-08-12T14:16:03Z</time>
      </trkpt>
      <trkpt lat="49.29202" lon="-0.12057">
        <ele>6.39</ele>
        <time>2016-08-12T14:16:15Z</time>
      </trkpt>
      <trkpt lat="49.29205" lon="-0.12057">
        <ele>6.39</ele>
        <time>2016-08-12T14:16:16Z</time>
      </trkpt>
      <trkpt lat="49.29207" lon="-0.12058">
        <ele>6.39</ele>
        <time>2016-08-12T14:16:17Z</time>
      </trkpt>
      <trkpt lat="49.29217" lon="-0.12064">
        <ele>6.87</ele>
        <time>2016-08-12T14:16:22Z</time>
      </trkpt>
      <trkpt lat="49.29219" lon="-0.12066">
        <ele>6.87</ele>
        <time>2016-08-12T14:16:23Z</time>
      </trkpt>
      <trkpt lat="49.29222" lon="-0.12069">
        <ele>6.87</ele>
        <time>2016-08-12T14:16:24Z</time>
      </trkpt>
      <trkpt lat="49.29226" lon="-0.12071">
        <ele>6.87</ele>
        <time>2016-08-12T14:16:25Z</time>
      </trkpt>
      <trkpt lat="49.29231" lon="-0.12074">
        <ele>7.35</ele>
        <time>2016-08-12T14:16:26Z</time>
      </trkpt>
      <trkpt lat="49.29235" lon="-0.12076">
        <ele>7.83</ele>
        <time>2016-08-12T14:16:27Z</time>
      </trkpt>
      <trkpt lat="49.29239" lon="-0.12077">
        <ele>7.35</ele>
        <time>2016-08-12T14:16:28Z</time>
      </trkpt>
      <trkpt lat="49.29255" lon="-0.12084">
        <ele>9.75</ele>
        <time>2016-08-12T14:16:38Z</time>
      </trkpt>
      <trkpt lat="49.29255" lon="-0.12085">
        <ele>9.75</ele>
        <time>2016-08-12T14:16:39Z</time>
      </trkpt>
      <trkpt lat="49.29254" lon="-0.12086">
        <ele>9.75</ele>
        <time>2016-08-12T14:16:40Z</time>
      </trkpt>
      <trkpt lat="49.29253" lon="-0.12086">
        <ele>9.75</ele>
        <time>2016-08-12T14:16:41Z</time>
      </trkpt>
      <trkpt lat="49.29251" lon="-0.12085">
        <ele>9.75</ele>
        <time>2016-08-12T14:16:42Z</time>
      </trkpt>
      <trkpt lat="49.29248" lon="-0.12083">
        <ele>9.75</ele>
        <time>2016-08-12T14:16:43Z</time>
      </trkpt>
      <trkpt lat="49.29235" lon="-0.12077">
        <ele>9.75</ele>
        <time>2016-08-12T14:16:47Z</time>
      </trkpt>
      <trkpt lat="49.29227" lon="-0.12072">
        <ele>9.27</ele>
        <time>2016-08-12T14:16:49Z</time>
      </trkpt>
      <trkpt lat="49.29223" lon="-0.12071">
        <ele>9.27</ele>
        <time>2016-08-12T14:16:50Z</time>
      </trkpt>
      <trkpt lat="49.29219" lon="-0.12069">
        <ele>9.27</ele>
        <time>2016-08-12T14:16:51Z</time>
      </trkpt>
      <trkpt lat="49.29204" lon="-0.1206">
        <ele>6.39</ele>
        <time>2016-08-12T14:16:56Z</time>
      </trkpt>
      <trkpt lat="49.29204" lon="-0.12045">
        <ele>5.91</ele>
        <time>2016-08-12T14:16:59Z</time>
      </trkpt>
      <trkpt lat="49.29204" lon="-0.12038">
        <ele>6.39</ele>
        <time>2016-08-12T14:17:00Z</time>
      </trkpt>
      <trkpt lat="49.29209" lon="-0.12017">
        <ele>5.42</ele>
        <time>2016-08-12T14:17:03Z</time>
      </trkpt>
      <trkpt lat="49.29211" lon="-0.1201">
        <ele>5.42</ele>
        <time>2016-08-12T14:17:04Z</time>
      </trkpt>
      <trkpt lat="49.29228" lon="-0.11939">
        <ele>4.46</ele>
        <time>2016-08-12T14:17:14Z</time>
      </trkpt>
      <trkpt lat="49.29231" lon="-0.11912">
        <ele>4.94</ele>
        <time>2016-08-12T14:17:18Z</time>
      </trkpt>
      <trkpt lat="49.29233" lon="-0.11905">
        <ele>5.42</ele>
        <time>2016-08-12T14:17:19Z</time>
      </trkpt>
      <trkpt lat="49.29236" lon="-0.119">
        <ele>5.42</ele>
        <time>2016-08-12T14:17:20Z</time>
      </trkpt>
      <trkpt lat="49.29239" lon="-0.11895">
        <ele>5.91</ele>
        <time>2016-08-12T14:17:21Z</time>
      </trkpt>
      <trkpt lat="49.29243" lon="-0.1189">
        <ele>5.91</ele>
        <time>2016-08-12T14:17:22Z</time>
      </trkpt>
      <trkpt lat="49.29246" lon="-0.11886">
        <ele>5.91</ele>
        <time>2016-08-12T14:17:23Z</time>
      </trkpt>
      <trkpt lat="49.2925" lon="-0.1188">
        <ele>5.91</ele>
        <time>2016-08-12T14:17:24Z</time>
      </trkpt>
      <trkpt lat="49.29258" lon="-0.1187">
        <ele>5.91</ele>
        <time>2016-08-12T14:17:26Z</time>
      </trkpt>
      <trkpt lat="49.2929" lon="-0.11831">
        <ele>7.35</ele>
        <time>2016-08-12T14:17:34Z</time>
      </trkpt>
      <trkpt lat="49.29294" lon="-0.11828">
        <ele>7.35</ele>
        <time>2016-08-12T14:17:35Z</time>
      </trkpt>
      <trkpt lat="49.29298" lon="-0.11825">
        <ele>6.87</ele>
        <time>2016-08-12T14:17:36Z</time>
      </trkpt>
      <trkpt lat="49.29302" lon="-0.11824">
        <ele>6.87</ele>
        <time>2016-08-12T14:17:37Z</time>
      </trkpt>
      <trkpt lat="49.29305" lon="-0.11823">
        <ele>6.87</ele>
        <time>2016-08-12T14:17:38Z</time>
      </trkpt>
      <trkpt lat="49.29308" lon="-0.11824">
        <ele>6.87</ele>
        <time>2016-08-12T14:17:39Z</time>
      </trkpt>
      <trkpt lat="49.2931" lon="-0.11824">
        <ele>6.87</ele>
        <time>2016-08-12T14:17:40Z</time>
      </trkpt>
      <trkpt lat="49.29312" lon="-0.11825">
        <ele>6.87</ele>
        <time>2016-08-12T14:17:41Z</time>
      </trkpt>
      <trkpt lat="49.29315" lon="-0.11825">
        <ele>6.39</ele>
        <time>2016-08-12T14:17:42Z</time>
      </trkpt>
      <trkpt lat="49.29316" lon="-0.11823">
        <ele>6.39</ele>
        <time>2016-08-12T14:17:43Z</time>
      </trkpt>
      <trkpt lat="49.29317" lon="-0.11819">
        <ele>6.39</ele>
        <time>2016-08-12T14:17:44Z</time>
      </trkpt>
      <trkpt lat="49.29334" lon="-0.11729">
        <ele>3.5</ele>
        <time>2016-08-12T14:17:56Z</time>
      </trkpt>
      <trkpt lat="49.29338" lon="-0.11709">
        <ele>3.98</ele>
        <time>2016-08-12T14:17:59Z</time>
      </trkpt>
      <trkpt lat="49.29338" lon="-0.11703">
        <ele>3.98</ele>
        <time>2016-08-12T14:18:00Z</time>
      </trkpt>
      <trkpt lat="49.29339" lon="-0.11699">
        <ele>3.98</ele>
        <time>2016-08-12T14:18:01Z</time>
      </trkpt>
      <trkpt lat="49.2934" lon="-0.11686">
        <ele>5.42</ele>
        <time>2016-08-12T14:18:05Z</time>
      </trkpt>
      <trkpt lat="49.2934" lon="-0.11684">
        <ele>5.42</ele>
        <time>2016-08-12T14:18:06Z</time>
      </trkpt>
      <trkpt lat="49.29341" lon="-0.1168">
        <ele>4.46</ele>
        <time>2016-08-12T14:18:09Z</time>
      </trkpt>
      <trkpt lat="49.29344" lon="-0.11681">
        <ele>4.46</ele>
        <time>2016-08-12T14:18:12Z</time>
      </trkpt>
      <trkpt lat="49.29345" lon="-0.11681">
        <ele>4.46</ele>
        <time>2016-08-12T14:18:13Z</time>
      </trkpt>
      <trkpt lat="49.29347" lon="-0.11681">
        <ele>3.98</ele>
        <time>2016-08-12T14:18:16Z</time>
      </trkpt>
      <trkpt lat="49.29349" lon="-0.1168">
        <ele>3.98</ele>
        <time>2016-08-12T14:18:17Z</time>
      </trkpt>
      <trkpt lat="49.29368" lon="-0.11685">
        <ele>4.46</ele>
        <time>2016-08-12T14:18:29Z</time>
      </trkpt>
      <trkpt lat="49.29372" lon="-0.11688">
        <ele>5.42</ele>
        <time>2016-08-12T14:18:31Z</time>
      </trkpt>
      <trkpt lat="49.29374" lon="-0.11688">
        <ele>4.94</ele>
        <time>2016-08-12T14:18:32Z</time>
      </trkpt>
      <trkpt lat="49.29379" lon="-0.11684">
        <ele>2.54</ele>
        <time>2016-08-12T14:18:37Z</time>
      </trkpt>
      <trkpt lat="49.2938" lon="-0.11683">
        <ele>2.54</ele>
        <time>2016-08-12T14:18:38Z</time>
      </trkpt>
      <trkpt lat="49.29384" lon="-0.11685">
        <ele>2.54</ele>
        <time>2016-08-12T14:18:42Z</time>
      </trkpt>
      <trkpt lat="49.29385" lon="-0.11686">
        <ele>3.02</ele>
        <time>2016-08-12T14:18:43Z</time>
      </trkpt>
      <trkpt lat="49.29388" lon="-0.11685">
        <ele>5.91</ele>
        <time>2016-08-12T14:18:56Z</time>
      </trkpt>
      <trkpt lat="49.29387" lon="-0.11686">
        <ele>7.35</ele>
        <time>2016-08-12T14:19:10Z</time>
      </trkpt>
      <trkpt lat="49.29385" lon="-0.11687">
        <ele>7.35</ele>
        <time>2016-08-12T14:19:11Z</time>
      </trkpt>
      <trkpt lat="49.29384" lon="-0.11686">
        <ele>6.87</ele>
        <time>2016-08-12T14:19:12Z</time>
      </trkpt>
      <trkpt lat="49.29382" lon="-0.11686">
        <ele>6.39</ele>
        <time>2016-08-12T14:19:13Z</time>
      </trkpt>
      <trkpt lat="49.2938" lon="-0.11687">
        <ele>6.87</ele>
        <time>2016-08-12T14:19:14Z</time>
      </trkpt>
      <trkpt lat="49.29377" lon="-0.11686">
        <ele>6.87</ele>
        <time>2016-08-12T14:19:15Z</time>
      </trkpt>
      <trkpt lat="49.29371" lon="-0.11684">
        <ele>7.35</ele>
        <time>2016-08-12T14:19:17Z</time>
      </trkpt>
      <trkpt lat="49.29368" lon="-0.11686">
        <ele>7.35</ele>
        <time>2016-08-12T14:19:18Z</time>
      </trkpt>
      <trkpt lat="49.29366" lon="-0.11687">
        <ele>7.83</ele>
        <time>2016-08-12T14:19:19Z</time>
      </trkpt>
      <trkpt lat="49.29362" lon="-0.11687">
        <ele>7.83</ele>
        <time>2016-08-12T14:19:20Z</time>
      </trkpt>
      <trkpt lat="49.29359" lon="-0.11685">
        <ele>7.83</ele>
        <time>2016-08-12T14:19:21Z</time>
      </trkpt>
      <trkpt lat="49.2934" lon="-0.11677">
        <ele>8.31</ele>
        <time>2016-08-12T14:19:28Z</time>
      </trkpt>
      <trkpt lat="49.2934" lon="-0.11673">
        <ele>8.79</ele>
        <time>2016-08-12T14:19:29Z</time>
      </trkpt>
      <trkpt lat="49.29339" lon="-0.11669">
        <ele>8.79</ele>
        <time>2016-08-12T14:19:30Z</time>
      </trkpt>
      <trkpt lat="49.29328" lon="-0.11627">
        <ele>9.27</ele>
        <time>2016-08-12T14:19:42Z</time>
      </trkpt>
      <trkpt lat="49.29326" lon="-0.11623">
        <ele>9.75</ele>
        <time>2016-08-12T14:19:43Z</time>
      </trkpt>
      <trkpt lat="49.29317" lon="-0.11604">
        <ele>9.27</ele>
        <time>2016-08-12T14:19:48Z</time>
      </trkpt>
      <trkpt lat="49.29315" lon="-0.11602">
        <ele>9.27</ele>
        <time>2016-08-12T14:19:49Z</time>
      </trkpt>
      <trkpt lat="49.29312" lon="-0.11599">
        <ele>8.31</ele>
        <time>2016-08-12T14:19:50Z</time>
      </trkpt>
      <trkpt lat="49.29309" lon="-0.11597">
        <ele>8.31</ele>
        <time>2016-08-12T14:19:51Z</time>
      </trkpt>
      <trkpt lat="49.29306" lon="-0.11595">
        <ele>8.31</ele>
        <time>2016-08-12T14:19:52Z</time>
      </trkpt>
      <trkpt lat="49.29303" lon="-0.11593">
        <ele>8.79</ele>
        <time>2016-08-12T14:19:53Z</time>
      </trkpt>
      <trkpt lat="49.29288" lon="-0.11586">
        <ele>7.83</ele>
        <time>2016-08-12T14:19:57Z</time>
      </trkpt>
      <trkpt lat="49.29284" lon="-0.11585">
        <ele>7.35</ele>
        <time>2016-08-12T14:19:58Z</time>
      </trkpt>
      <trkpt lat="49.29275" lon="-0.11582">
        <ele>6.87</ele>
        <time>2016-08-12T14:20:00Z</time>
      </trkpt>
      <trkpt lat="49.2927" lon="-0.11582">
        <ele>6.87</ele>
        <time>2016-08-12T14:20:01Z</time>
      </trkpt>
      <trkpt lat="49.29247" lon="-0.11574">
        <ele>7.35</ele>
        <time>2016-08-12T14:20:07Z</time>
      </trkpt>
      <trkpt lat="49.29246" lon="-0.11571">
        <ele>6.87</ele>
        <time>2016-08-12T14:20:08Z</time>
      </trkpt>
      <trkpt lat="49.29245" lon="-0.11567">
        <ele>6.39</ele>
        <time>2016-08-12T14:20:09Z</time>
      </trkpt>
      <trkpt lat="49.29246" lon="-0.11562">
        <ele>6.39</ele>
        <time>2016-08-12T14:20:10Z</time>
      </trkpt>
      <trkpt lat="49.29247" lon="-0.11556">
        <ele>5.91</ele>
        <time>2016-08-12T14:20:11Z</time>
      </trkpt>
      <trkpt lat="49.29248" lon="-0.11551">
        <ele>5.42</ele>
        <time>2016-08-12T14:20:12Z</time>
      </trkpt>
      <trkpt lat="49.29249" lon="-0.11546">
        <ele>4.94</ele>
        <time>2016-08-12T14:20:13Z</time>
      </trkpt>
      <trkpt lat="49.2925" lon="-0.11541">
        <ele>4.94</ele>
        <time>2016-08-12T14:20:14Z</time>
      </trkpt>
      <trkpt lat="49.29258" lon="-0.1151">
        <ele>3.5</ele>
        <time>2016-08-12T14:20:20Z</time>
      </trkpt>
      <trkpt lat="49.2926" lon="-0.11504">
        <ele>3.98</ele>
        <time>2016-08-12T14:20:21Z</time>
      </trkpt>
      <trkpt lat="49.2927" lon="-0.11454">
        <ele>3.98</ele>
        <time>2016-08-12T14:20:28Z</time>
      </trkpt>
      <trkpt lat="49.2927" lon="-0.11447">
        <ele>3.98</ele>
        <time>2016-08-12T14:20:29Z</time>
      </trkpt>
      <trkpt lat="49.29271" lon="-0.11441">
        <ele>3.98</ele>
        <time>2016-08-12T14:20:30Z</time>
      </trkpt>
      <trkpt lat="49.29272" lon="-0.11435">
        <ele>3.98</ele>
        <time>2016-08-12T14:20:31Z</time>
      </trkpt>
      <trkpt lat="49.29273" lon="-0.11431">
        <ele>3.5</ele>
        <time>2016-08-12T14:20:32Z</time>
      </trkpt>
      <trkpt lat="49.29274" lon="-0.11425">
        <ele>4.94</ele>
        <time>2016-08-12T14:20:38Z</time>
      </trkpt>
      <trkpt lat="49.29275" lon="-0.11423">
        <ele>4.94</ele>
        <time>2016-08-12T14:20:39Z</time>
      </trkpt>
      <trkpt lat="49.29279" lon="-0.11404">
        <ele>4.46</ele>
        <time>2016-08-12T14:20:43Z</time>
      </trkpt>
      <trkpt lat="49.29284" lon="-0.11381">
        <ele>3.98</ele>
        <time>2016-08-12T14:20:46Z</time>
      </trkpt>
      <trkpt lat="49.29291" lon="-0.1135">
        <ele>3.02</ele>
        <time>2016-08-12T14:20:50Z</time>
      </trkpt>
      <trkpt lat="49.29292" lon="-0.11342">
        <ele>3.02</ele>
        <time>2016-08-12T14:20:51Z</time>
      </trkpt>
      <trkpt lat="49.29294" lon="-0.11334">
        <ele>3.02</ele>
        <time>2016-08-12T14:20:52Z</time>
      </trkpt>
      <trkpt lat="49.29296" lon="-0.11327">
        <ele>2.54</ele>
        <time>2016-08-12T14:20:53Z</time>
      </trkpt>
      <trkpt lat="49.29298" lon="-0.11319">
        <ele>2.54</ele>
        <time>2016-08-12T14:20:54Z</time>
      </trkpt>
      <trkpt lat="49.29313" lon="-0.11256">
        <ele>2.06</ele>
        <time>2016-08-12T14:21:02Z</time>
      </trkpt>
      <trkpt lat="49.29326" lon="-0.11195">
        <ele>1.1</ele>
        <time>2016-08-12T14:21:10Z</time>
      </trkpt>
      <trkpt lat="49.29327" lon="-0.11188">
        <ele>1.1</ele>
        <time>2016-08-12T14:21:11Z</time>
      </trkpt>
      <trkpt lat="49.29328" lon="-0.11177">
        <ele>1.1</ele>
        <time>2016-08-12T14:21:13Z</time>
      </trkpt>
      <trkpt lat="49.29327" lon="-0.11174">
        <ele>1.1</ele>
        <time>2016-08-12T14:21:14Z</time>
      </trkpt>
      <trkpt lat="49.29324" lon="-0.11171">
        <ele>1.1</ele>
        <time>2016-08-12T14:21:15Z</time>
      </trkpt>
      <trkpt lat="49.29322" lon="-0.11169">
        <ele>1.58</ele>
        <time>2016-08-12T14:21:16Z</time>
      </trkpt>
      <trkpt lat="49.29319" lon="-0.11168">
        <ele>1.58</ele>
        <time>2016-08-12T14:21:17Z</time>
      </trkpt>
      <trkpt lat="49.29311" lon="-0.11166">
        <ele>1.58</ele>
        <time>2016-08-12T14:21:19Z</time>
      </trkpt>
      <trkpt lat="49.29302" lon="-0.11165">
        <ele>2.06</ele>
        <time>2016-08-12T14:21:21Z</time>
      </trkpt>
      <trkpt lat="49.29289" lon="-0.11166">
        <ele>2.06</ele>
        <time>2016-08-12T14:21:24Z</time>
      </trkpt>
      <trkpt lat="49.29282" lon="-0.11166">
        <ele>1.1</ele>
        <time>2016-08-12T14:21:26Z</time>
      </trkpt>
      <trkpt lat="49.29279" lon="-0.11164">
        <ele>1.58</ele>
        <time>2016-08-12T14:21:27Z</time>
      </trkpt>
      <trkpt lat="49.29277" lon="-0.11159">
        <ele>1.1</ele>
        <time>2016-08-12T14:21:28Z</time>
      </trkpt>
      <trkpt lat="49.29276" lon="-0.11153">
        <ele>1.1</ele>
        <time>2016-08-12T14:21:29Z</time>
      </trkpt>
      <trkpt lat="49.29276" lon="-0.11146">
        <ele>0.62</ele>
        <time>2016-08-12T14:21:30Z</time>
      </trkpt>
      <trkpt lat="49.29276" lon="-0.11094">
        <ele>-1.79</ele>
        <time>2016-08-12T14:21:37Z</time>
      </trkpt>
      <trkpt lat="49.29275" lon="-0.11086">
        <ele>-1.79</ele>
        <time>2016-08-12T14:21:38Z</time>
      </trkpt>
      <trkpt lat="49.29275" lon="-0.11071">
        <ele>-1.79</ele>
        <time>2016-08-12T14:21:40Z</time>
      </trkpt>
      <trkpt lat="49.29275" lon="-0.11064">
        <ele>-1.79</ele>
        <time>2016-08-12T14:21:41Z</time>
      </trkpt>
      <trkpt lat="49.29275" lon="-0.11057">
        <ele>-1.3</ele>
        <time>2016-08-12T14:21:42Z</time>
      </trkpt>
      <trkpt lat="49.29275" lon="-0.11019">
        <ele>-1.79</ele>
        <time>2016-08-12T14:21:48Z</time>
      </trkpt>
      <trkpt lat="49.29277" lon="-0.10956">
        <ele>-2.27</ele>
        <time>2016-08-12T14:21:56Z</time>
      </trkpt>
      <trkpt lat="49.29278" lon="-0.10905">
        <ele>0.62</ele>
        <time>2016-08-12T14:22:03Z</time>
      </trkpt>
      <trkpt lat="49.29279" lon="-0.10897">
        <ele>0.62</ele>
        <time>2016-08-12T14:22:04Z</time>
      </trkpt>
      <trkpt lat="49.29279" lon="-0.1089">
        <ele>1.1</ele>
        <time>2016-08-12T14:22:05Z</time>
      </trkpt>
      <trkpt lat="49.2928" lon="-0.10859">
        <ele>0.62</ele>
        <time>2016-08-12T14:22:09Z</time>
      </trkpt>
      <trkpt lat="49.29281" lon="-0.10845">
        <ele>0.14</ele>
        <time>2016-08-12T14:22:11Z</time>
      </trkpt>
      <trkpt lat="49.2928" lon="-0.10839">
        <ele>0.14</ele>
        <time>2016-08-12T14:22:12Z</time>
      </trkpt>
      <trkpt lat="49.2928" lon="-0.10832">
        <ele>0.14</ele>
        <time>2016-08-12T14:22:13Z</time>
      </trkpt>
      <trkpt lat="49.2928" lon="-0.10825">
        <ele>-0.34</ele>
        <time>2016-08-12T14:22:14Z</time>
      </trkpt>
      <trkpt lat="49.2928" lon="-0.10819">
        <ele>-0.34</ele>
        <time>2016-08-12T14:22:15Z</time>
      </trkpt>
      <trkpt lat="49.29279" lon="-0.10813">
        <ele>-0.82</ele>
        <time>2016-08-12T14:22:16Z</time>
      </trkpt>
      <trkpt lat="49.29279" lon="-0.10807">
        <ele>-1.3</ele>
        <time>2016-08-12T14:22:17Z</time>
      </trkpt>
      <trkpt lat="49.29279" lon="-0.108">
        <ele>-1.3</ele>
        <time>2016-08-12T14:22:18Z</time>
      </trkpt>
      <trkpt lat="49.29279" lon="-0.10795">
        <ele>-1.3</ele>
        <time>2016-08-12T14:22:19Z</time>
      </trkpt>
      <trkpt lat="49.29279" lon="-0.10789">
        <ele>-1.3</ele>
        <time>2016-08-12T14:22:20Z</time>
      </trkpt>
      <trkpt lat="49.29279" lon="-0.10783">
        <ele>-1.79</ele>
        <time>2016-08-12T14:22:21Z</time>
      </trkpt>
      <trkpt lat="49.2928" lon="-0.10766">
        <ele>-0.82</ele>
        <time>2016-08-12T14:22:24Z</time>
      </trkpt>
      <trkpt lat="49.29281" lon="-0.1076">
        <ele>-0.82</ele>
        <time>2016-08-12T14:22:25Z</time>
      </trkpt>
      <trkpt lat="49.29281" lon="-0.10754">
        <ele>-0.82</ele>
        <time>2016-08-12T14:22:26Z</time>
      </trkpt>
      <trkpt lat="49.29282" lon="-0.10748">
        <ele>-0.82</ele>
        <time>2016-08-12T14:22:27Z</time>
      </trkpt>
      <trkpt lat="49.29283" lon="-0.10742">
        <ele>-0.82</ele>
        <time>2016-08-12T14:22:28Z</time>
      </trkpt>
      <trkpt lat="49.29283" lon="-0.10737">
        <ele>-0.82</ele>
        <time>2016-08-12T14:22:29Z</time>
      </trkpt>
      <trkpt lat="49.29282" lon="-0.10733">
        <ele>-0.34</ele>
        <time>2016-08-12T14:22:30Z</time>
      </trkpt>
      <trkpt lat="49.29281" lon="-0.1073">
        <ele>-0.34</ele>
        <time>2016-08-12T14:22:31Z</time>
      </trkpt>
      <trkpt lat="49.2928" lon="-0.10728">
        <ele>0.14</ele>
        <time>2016-08-12T14:22:32Z</time>
      </trkpt>
      <trkpt lat="49.2928" lon="-0.10726">
        <ele>0.62</ele>
        <time>2016-08-12T14:22:33Z</time>
      </trkpt>
      <trkpt lat="49.29279" lon="-0.10724">
        <ele>1.1</ele>
        <time>2016-08-12T14:22:34Z</time>
      </trkpt>
      <trkpt lat="49.29278" lon="-0.1072">
        <ele>2.06</ele>
        <time>2016-08-12T14:22:36Z</time>
      </trkpt>
      <trkpt lat="49.29278" lon="-0.10717">
        <ele>2.06</ele>
        <time>2016-08-12T14:22:37Z</time>
      </trkpt>
      <trkpt lat="49.29279" lon="-0.10715">
        <ele>1.58</ele>
        <time>2016-08-12T14:22:38Z</time>
      </trkpt>
      <trkpt lat="49.29282" lon="-0.10714">
        <ele>1.58</ele>
        <time>2016-08-12T14:22:39Z</time>
      </trkpt>
      <trkpt lat="49.29285" lon="-0.10712">
        <ele>1.58</ele>
        <time>2016-08-12T14:22:40Z</time>
      </trkpt>
      <trkpt lat="49.29288" lon="-0.1071">
        <ele>1.58</ele>
        <time>2016-08-12T14:22:41Z</time>
      </trkpt>
      <trkpt lat="49.29293" lon="-0.10707">
        <ele>1.1</ele>
        <time>2016-08-12T14:22:42Z</time>
      </trkpt>
      <trkpt lat="49.29299" lon="-0.10705">
        <ele>1.58</ele>
        <time>2016-08-12T14:22:43Z</time>
      </trkpt>
      <trkpt lat="49.29305" lon="-0.10703">
        <ele>2.06</ele>
        <time>2016-08-12T14:22:44Z</time>
      </trkpt>
      <trkpt lat="49.29348" lon="-0.10685">
        <ele>3.02</ele>
        <time>2016-08-12T14:22:52Z</time>
      </trkpt>
      <trkpt lat="49.2942" lon="-0.10655">
        <ele>4.46</ele>
        <time>2016-08-12T14:23:06Z</time>
      </trkpt>
      <trkpt lat="49.29429" lon="-0.10652">
        <ele>4.94</ele>
        <time>2016-08-12T14:23:08Z</time>
      </trkpt>
      <trkpt lat="49.29433" lon="-0.10649">
        <ele>4.94</ele>
        <time>2016-08-12T14:23:09Z</time>
      </trkpt>
      <trkpt lat="49.29436" lon="-0.10645">
        <ele>4.94</ele>
        <time>2016-08-12T14:23:10Z</time>
      </trkpt>
      <trkpt lat="49.29438" lon="-0.1064">
        <ele>4.94</ele>
        <time>2016-08-12T14:23:11Z</time>
      </trkpt>
      <trkpt lat="49.2944" lon="-0.10634">
        <ele>4.94</ele>
        <time>2016-08-12T14:23:12Z</time>
      </trkpt>
      <trkpt lat="49.29441" lon="-0.10629">
        <ele>5.42</ele>
        <time>2016-08-12T14:23:13Z</time>
      </trkpt>
      <trkpt lat="49.29443" lon="-0.10624">
        <ele>5.42</ele>
        <time>2016-08-12T14:23:14Z</time>
      </trkpt>
      <trkpt lat="49.29445" lon="-0.10619">
        <ele>5.42</ele>
        <time>2016-08-12T14:23:15Z</time>
      </trkpt>
      <trkpt lat="49.29446" lon="-0.10614">
        <ele>5.42</ele>
        <time>2016-08-12T14:23:16Z</time>
      </trkpt>
      <trkpt lat="49.29447" lon="-0.10608">
        <ele>5.42</ele>
        <time>2016-08-12T14:23:17Z</time>
      </trkpt>
      <trkpt lat="49.29449" lon="-0.10603">
        <ele>4.94</ele>
        <time>2016-08-12T14:23:18Z</time>
      </trkpt>
      <trkpt lat="49.29452" lon="-0.10597">
        <ele>4.94</ele>
        <time>2016-08-12T14:23:19Z</time>
      </trkpt>
      <trkpt lat="49.29455" lon="-0.10592">
        <ele>4.94</ele>
        <time>2016-08-12T14:23:20Z</time>
      </trkpt>
      <trkpt lat="49.29458" lon="-0.10588">
        <ele>4.94</ele>
        <time>2016-08-12T14:23:21Z</time>
      </trkpt>
      <trkpt lat="49.29462" lon="-0.10583">
        <ele>4.46</ele>
        <time>2016-08-12T14:23:22Z</time>
      </trkpt>
      <trkpt lat="49.29484" lon="-0.10557">
        <ele>3.98</ele>
        <time>2016-08-12T14:23:28Z</time>
      </trkpt>
      <trkpt lat="49.29515" lon="-0.1052">
        <ele>3.02</ele>
        <time>2016-08-12T14:23:38Z</time>
      </trkpt>
      <trkpt lat="49.29521" lon="-0.10509">
        <ele>2.54</ele>
        <time>2016-08-12T14:23:40Z</time>
      </trkpt>
      <trkpt lat="49.29528" lon="-0.10499">
        <ele>2.54</ele>
        <time>2016-08-12T14:23:42Z</time>
      </trkpt>
      <trkpt lat="49.29558" lon="-0.10436">
        <ele>4.46</ele>
        <time>2016-08-12T14:23:53Z</time>
      </trkpt>
      <trkpt lat="49.29572" lon="-0.10403">
        <ele>3.5</ele>
        <time>2016-08-12T14:23:59Z</time>
      </trkpt>
      <trkpt lat="49.29574" lon="-0.10398">
        <ele>3.5</ele>
        <time>2016-08-12T14:24:00Z</time>
      </trkpt>
      <trkpt lat="49.29606" lon="-0.1033">
        <ele>4.46</ele>
        <time>2016-08-12T14:24:15Z</time>
      </trkpt>
      <trkpt lat="49.29622" lon="-0.10289">
        <ele>5.91</ele>
        <time>2016-08-12T14:24:24Z</time>
      </trkpt>
      <trkpt lat="49.29652" lon="-0.1023">
        <ele>7.35</ele>
        <time>2016-08-12T14:24:38Z</time>
      </trkpt>
      <trkpt lat="49.29672" lon="-0.10221">
        <ele>6.87</ele>
        <time>2016-08-12T14:24:47Z</time>
      </trkpt>
      <trkpt lat="49.2969" lon="-0.10235">
        <ele>6.87</ele>
        <time>2016-08-12T14:24:55Z</time>
      </trkpt>
      <trkpt lat="49.29692" lon="-0.10236">
        <ele>6.87</ele>
        <time>2016-08-12T14:24:56Z</time>
      </trkpt>
      <trkpt lat="49.29693" lon="-0.10238">
        <ele>6.87</ele>
        <time>2016-08-12T14:24:57Z</time>
      </trkpt>
      <trkpt lat="49.29699" lon="-0.10245">
        <ele>7.35</ele>
        <time>2016-08-12T14:25:02Z</time>
      </trkpt>
      <trkpt lat="49.29698" lon="-0.10247">
        <ele>7.35</ele>
        <time>2016-08-12T14:25:03Z</time>
      </trkpt>
      <trkpt lat="49.29697" lon="-0.10247">
        <ele>6.87</ele>
        <time>2016-08-12T14:25:04Z</time>
      </trkpt>
      <trkpt lat="49.29695" lon="-0.10245">
        <ele>6.87</ele>
        <time>2016-08-12T14:25:05Z</time>
      </trkpt>
      <trkpt lat="49.29695" lon="-0.10243">
        <ele>6.87</ele>
        <time>2016-08-12T14:25:06Z</time>
      </trkpt>
      <trkpt lat="49.29695" lon="-0.10241">
        <ele>6.87</ele>
        <time>2016-08-12T14:25:07Z</time>
      </trkpt>
      <trkpt lat="49.29695" lon="-0.10239">
        <ele>6.87</ele>
        <time>2016-08-12T14:25:08Z</time>
      </trkpt>
      <trkpt lat="49.29693" lon="-0.10237">
        <ele>7.35</ele>
        <time>2016-08-12T14:25:18Z</time>
      </trkpt>
      <trkpt lat="49.29691" lon="-0.10237">
        <ele>7.83</ele>
        <time>2016-08-12T14:25:19Z</time>
      </trkpt>
      <trkpt lat="49.29689" lon="-0.10237">
        <ele>7.83</ele>
        <time>2016-08-12T14:25:20Z</time>
      </trkpt>
      <trkpt lat="49.2968" lon="-0.10238">
        <ele>7.83</ele>
        <time>2016-08-12T14:25:23Z</time>
      </trkpt>
      <trkpt lat="49.29648" lon="-0.10236">
        <ele>6.39</ele>
        <time>2016-08-12T14:25:35Z</time>
      </trkpt>
      <trkpt lat="49.29643" lon="-0.10248">
        <ele>5.91</ele>
        <time>2016-08-12T14:25:47Z</time>
      </trkpt>
      <trkpt lat="49.29639" lon="-0.10246">
        <ele>5.42</ele>
        <time>2016-08-12T14:25:58Z</time>
      </trkpt>
      <trkpt lat="49.29637" lon="-0.10246">
        <ele>4.94</ele>
        <time>2016-08-12T14:25:59Z</time>
      </trkpt>
      <trkpt lat="49.29636" lon="-0.10245">
        <ele>4.94</ele>
        <time>2016-08-12T14:26:00Z</time>
      </trkpt>
      <trkpt lat="49.2963" lon="-0.10247">
        <ele>4.94</ele>
        <time>2016-08-12T14:26:06Z</time>
      </trkpt>
      <trkpt lat="49.29629" lon="-0.10248">
        <ele>4.94</ele>
        <time>2016-08-12T14:26:07Z</time>
      </trkpt>
      <trkpt lat="49.29629" lon="-0.1025">
        <ele>5.42</ele>
        <time>2016-08-12T14:26:08Z</time>
      </trkpt>
      <trkpt lat="49.29628" lon="-0.10251">
        <ele>5.42</ele>
        <time>2016-08-12T14:26:09Z</time>
      </trkpt>
      <trkpt lat="49.29628" lon="-0.10253">
        <ele>5.91</ele>
        <time>2016-08-12T14:26:10Z</time>
      </trkpt>
      <trkpt lat="49.29627" lon="-0.10255">
        <ele>5.91</ele>
        <time>2016-08-12T14:26:11Z</time>
      </trkpt>
      <trkpt lat="49.29617" lon="-0.10282">
        <ele>6.87</ele>
        <time>2016-08-12T14:26:27Z</time>
      </trkpt>
      <trkpt lat="49.29611" lon="-0.10291">
        <ele>7.83</ele>
        <time>2016-08-12T14:26:34Z</time>
      </trkpt>
      <trkpt lat="49.2961" lon="-0.10291">
        <ele>7.83</ele>
        <time>2016-08-12T14:26:35Z</time>
      </trkpt>
      <trkpt lat="49.29609" lon="-0.1029">
        <ele>7.83</ele>
        <time>2016-08-12T14:26:36Z</time>
      </trkpt>
      <trkpt lat="49.29604" lon="-0.10285">
        <ele>9.27</ele>
        <time>2016-08-12T14:26:42Z</time>
      </trkpt>
      <trkpt lat="49.29597" lon="-0.10281">
        <ele>10.71</ele>
        <time>2016-08-12T14:26:48Z</time>
      </trkpt>
      <trkpt lat="49.29596" lon="-0.10279">
        <ele>11.19</ele>
        <time>2016-08-12T14:26:49Z</time>
      </trkpt>
      <trkpt lat="49.29595" lon="-0.10278">
        <ele>11.19</ele>
        <time>2016-08-12T14:26:50Z</time>
      </trkpt>
      <trkpt lat="49.29594" lon="-0.10278">
        <ele>11.67</ele>
        <time>2016-08-12T14:26:51Z</time>
      </trkpt>
      <trkpt lat="49.29592" lon="-0.10277">
        <ele>11.67</ele>
        <time>2016-08-12T14:26:52Z</time>
      </trkpt>
      <trkpt lat="49.29592" lon="-0.10276">
        <ele>11.67</ele>
        <time>2016-08-12T14:26:53Z</time>
      </trkpt>
      <trkpt lat="49.29577" lon="-0.10264">
        <ele>12.15</ele>
        <time>2016-08-12T14:27:05Z</time>
      </trkpt>
      <trkpt lat="49.29559" lon="-0.10248">
        <ele>12.63</ele>
        <time>2016-08-12T14:27:21Z</time>
      </trkpt>
      <trkpt lat="49.29543" lon="-0.10234">
        <ele>11.19</ele>
        <time>2016-08-12T14:27:36Z</time>
      </trkpt>
      <trkpt lat="49.29522" lon="-0.10215">
        <ele>9.75</ele>
        <time>2016-08-12T14:27:54Z</time>
      </trkpt>
      <trkpt lat="49.29513" lon="-0.10208">
        <ele>10.23</ele>
        <time>2016-08-12T14:28:02Z</time>
      </trkpt>
      <trkpt lat="49.29511" lon="-0.10207">
        <ele>10.71</ele>
        <time>2016-08-12T14:28:03Z</time>
      </trkpt>
      <trkpt lat="49.29508" lon="-0.10204">
        <ele>10.23</ele>
        <time>2016-08-12T14:28:18Z</time>
      </trkpt>
      <trkpt lat="49.29504" lon="-0.10201">
        <ele>9.75</ele>
        <time>2016-08-12T14:28:23Z</time>
      </trkpt>
      <trkpt lat="49.29503" lon="-0.10199">
        <ele>10.23</ele>
        <time>2016-08-12T14:28:25Z</time>
      </trkpt>
      <trkpt lat="49.29502" lon="-0.10198">
        <ele>10.23</ele>
        <time>2016-08-12T14:28:26Z</time>
      </trkpt>
      <trkpt lat="49.29501" lon="-0.10198">
        <ele>9.75</ele>
        <time>2016-08-12T14:28:27Z</time>
      </trkpt>
      <trkpt lat="49.29499" lon="-0.10197">
        <ele>9.75</ele>
        <time>2016-08-12T14:28:28Z</time>
      </trkpt>
      <trkpt lat="49.29498" lon="-0.10196">
        <ele>9.75</ele>
        <time>2016-08-12T14:28:29Z</time>
      </trkpt>
      <trkpt lat="49.29498" lon="-0.10195">
        <ele>9.75</ele>
        <time>2016-08-12T14:28:30Z</time>
      </trkpt>
      <trkpt lat="49.29497" lon="-0.10193">
        <ele>9.27</ele>
        <time>2016-08-12T14:28:31Z</time>
      </trkpt>
      <trkpt lat="49.29496" lon="-0.10193">
        <ele>9.27</ele>
        <time>2016-08-12T14:28:32Z</time>
      </trkpt>
      <trkpt lat="49.29484" lon="-0.10181">
        <ele>8.31</ele>
        <time>2016-08-12T14:28:44Z</time>
      </trkpt>
      <trkpt lat="49.29465" lon="-0.10166">
        <ele>7.83</ele>
        <time>2016-08-12T14:28:52Z</time>
      </trkpt>
      <trkpt lat="49.29464" lon="-0.10165">
        <ele>7.83</ele>
        <time>2016-08-12T14:28:53Z</time>
      </trkpt>
      <trkpt lat="49.29464" lon="-0.10164">
        <ele>7.83</ele>
        <time>2016-08-12T14:28:54Z</time>
      </trkpt>
      <trkpt lat="49.29463" lon="-0.10163">
        <ele>7.83</ele>
        <time>2016-08-12T14:28:55Z</time>
      </trkpt>
      <trkpt lat="49.29462" lon="-0.10162">
        <ele>7.83</ele>
        <time>2016-08-12T14:28:56Z</time>
      </trkpt>
      <trkpt lat="49.29447" lon="-0.10153">
        <ele>9.27</ele>
        <time>2016-08-12T14:29:09Z</time>
      </trkpt>
      <trkpt lat="49.29438" lon="-0.10147">
        <ele>9.75</ele>
        <time>2016-08-12T14:29:16Z</time>
      </trkpt>
      <trkpt lat="49.29437" lon="-0.10149">
        <ele>9.75</ele>
        <time>2016-08-12T14:29:17Z</time>
      </trkpt>
      <trkpt lat="49.29432" lon="-0.10155">
        <ele>10.23</ele>
        <time>2016-08-12T14:29:20Z</time>
      </trkpt>
      <trkpt lat="49.29429" lon="-0.10156">
        <ele>10.23</ele>
        <time>2016-08-12T14:29:21Z</time>
      </trkpt>
      <trkpt lat="49.29426" lon="-0.10155">
        <ele>10.23</ele>
        <time>2016-08-12T14:29:22Z</time>
      </trkpt>
      <trkpt lat="49.29423" lon="-0.10154">
        <ele>10.71</ele>
        <time>2016-08-12T14:29:23Z</time>
      </trkpt>
      <trkpt lat="49.29419" lon="-0.10152">
        <ele>10.71</ele>
        <time>2016-08-12T14:29:24Z</time>
      </trkpt>
      <trkpt lat="49.29415" lon="-0.10149">
        <ele>10.71</ele>
        <time>2016-08-12T14:29:25Z</time>
      </trkpt>
      <trkpt lat="49.2937" lon="-0.10115">
        <ele>9.27</ele>
        <time>2016-08-12T14:29:38Z</time>
      </trkpt>
      <trkpt lat="49.29368" lon="-0.10112">
        <ele>9.27</ele>
        <time>2016-08-12T14:29:39Z</time>
      </trkpt>
      <trkpt lat="49.29368" lon="-0.1011">
        <ele>8.79</ele>
        <time>2016-08-12T14:29:40Z</time>
      </trkpt>
      <trkpt lat="49.2937" lon="-0.10109">
        <ele>8.31</ele>
        <time>2016-08-12T14:29:41Z</time>
      </trkpt>
      <trkpt lat="49.29373" lon="-0.10111">
        <ele>8.31</ele>
        <time>2016-08-12T14:29:42Z</time>
      </trkpt>
      <trkpt lat="49.29375" lon="-0.10114">
        <ele>8.31</ele>
        <time>2016-08-12T14:29:43Z</time>
      </trkpt>
      <trkpt lat="49.29378" lon="-0.10117">
        <ele>8.31</ele>
        <time>2016-08-12T14:29:44Z</time>
      </trkpt>
      <trkpt lat="49.29382" lon="-0.1012">
        <ele>8.31</ele>
        <time>2016-08-12T14:29:45Z</time>
      </trkpt>
      <trkpt lat="49.29386" lon="-0.10121">
        <ele>8.31</ele>
        <time>2016-08-12T14:29:46Z</time>
      </trkpt>
      <trkpt lat="49.29389" lon="-0.10123">
        <ele>8.31</ele>
        <time>2016-08-12T14:29:47Z</time>
      </trkpt>
      <trkpt lat="49.2942" lon="-0.10141">
        <ele>7.83</ele>
        <time>2016-08-12T14:29:56Z</time>
      </trkpt>
      <trkpt lat="49.29422" lon="-0.10141">
        <ele>7.83</ele>
        <time>2016-08-12T14:29:57Z</time>
      </trkpt>
      <trkpt lat="49.29423" lon="-0.10139">
        <ele>7.83</ele>
        <time>2016-08-12T14:29:58Z</time>
      </trkpt>
      <trkpt lat="49.29424" lon="-0.10137">
        <ele>7.83</ele>
        <time>2016-08-12T14:29:59Z</time>
      </trkpt>
      <trkpt lat="49.29424" lon="-0.10135">
        <ele>7.83</ele>
        <time>2016-08-12T14:30:00Z</time>
      </trkpt>
      <trkpt lat="49.29424" lon="-0.10132">
        <ele>7.83</ele>
        <time>2016-08-12T14:30:01Z</time>
      </trkpt>
      <trkpt lat="49.29423" lon="-0.10129">
        <ele>7.35</ele>
        <time>2016-08-12T14:30:02Z</time>
      </trkpt>
      <trkpt lat="49.29423" lon="-0.10126">
        <ele>7.35</ele>
        <time>2016-08-12T14:30:03Z</time>
      </trkpt>
      <trkpt lat="49.29422" lon="-0.10124">
        <ele>6.87</ele>
        <time>2016-08-12T14:30:04Z</time>
      </trkpt>
      <trkpt lat="49.29422" lon="-0.10121">
        <ele>6.39</ele>
        <time>2016-08-12T14:30:05Z</time>
      </trkpt>
      <trkpt lat="49.29414" lon="-0.10089">
        <ele>4.94</ele>
        <time>2016-08-12T14:30:12Z</time>
      </trkpt>
      <trkpt lat="49.29411" lon="-0.10075">
        <ele>4.46</ele>
        <time>2016-08-12T14:30:14Z</time>
      </trkpt>
      <trkpt lat="49.29409" lon="-0.10069">
        <ele>3.98</ele>
        <time>2016-08-12T14:30:15Z</time>
      </trkpt>
      <trkpt lat="49.29408" lon="-0.10062">
        <ele>3.5</ele>
        <time>2016-08-12T14:30:16Z</time>
      </trkpt>
      <trkpt lat="49.29409" lon="-0.10054">
        <ele>3.5</ele>
        <time>2016-08-12T14:30:17Z</time>
      </trkpt>
      <trkpt lat="49.2941" lon="-0.10047">
        <ele>3.98</ele>
        <time>2016-08-12T14:30:18Z</time>
      </trkpt>
      <trkpt lat="49.29412" lon="-0.1004">
        <ele>3.5</ele>
        <time>2016-08-12T14:30:19Z</time>
      </trkpt>
      <trkpt lat="49.29415" lon="-0.10034">
        <ele>3.5</ele>
        <time>2016-08-12T14:30:20Z</time>
      </trkpt>
      <trkpt lat="49.29416" lon="-0.10028">
        <ele>3.5</ele>
        <time>2016-08-12T14:30:21Z</time>
      </trkpt>
      <trkpt lat="49.29418" lon="-0.10022">
        <ele>3.5</ele>
        <time>2016-08-12T14:30:22Z</time>
      </trkpt>
      <trkpt lat="49.29436" lon="-0.09983">
        <ele>3.98</ele>
        <time>2016-08-12T14:30:31Z</time>
      </trkpt>
      <trkpt lat="49.29456" lon="-0.09973">
        <ele>6.39</ele>
        <time>2016-08-12T14:30:37Z</time>
      </trkpt>
      <trkpt lat="49.29476" lon="-0.0996">
        <ele>7.35</ele>
        <time>2016-08-12T14:30:43Z</time>
      </trkpt>
      <trkpt lat="49.29477" lon="-0.09955">
        <ele>7.35</ele>
        <time>2016-08-12T14:30:44Z</time>
      </trkpt>
      <trkpt lat="49.29476" lon="-0.0995">
        <ele>6.87</ele>
        <time>2016-08-12T14:30:45Z</time>
      </trkpt>
      <trkpt lat="49.29471" lon="-0.09921">
        <ele>5.91</ele>
        <time>2016-08-12T14:30:50Z</time>
      </trkpt>
      <trkpt lat="49.29469" lon="-0.09915">
        <ele>5.91</ele>
        <time>2016-08-12T14:30:51Z</time>
      </trkpt>
      <trkpt lat="49.29468" lon="-0.09909">
        <ele>5.91</ele>
        <time>2016-08-12T14:30:52Z</time>
      </trkpt>
      <trkpt lat="49.29466" lon="-0.09903">
        <ele>5.91</ele>
        <time>2016-08-12T14:30:53Z</time>
      </trkpt>
      <trkpt lat="49.29465" lon="-0.09897">
        <ele>5.42</ele>
        <time>2016-08-12T14:30:54Z</time>
      </trkpt>
      <trkpt lat="49.29461" lon="-0.09879">
        <ele>6.39</ele>
        <time>2016-08-12T14:30:57Z</time>
      </trkpt>
      <trkpt lat="49.2946" lon="-0.09866">
        <ele>6.39</ele>
        <time>2016-08-12T14:30:59Z</time>
      </trkpt>
      <trkpt lat="49.29461" lon="-0.0986">
        <ele>6.39</ele>
        <time>2016-08-12T14:31:00Z</time>
      </trkpt>
      <trkpt lat="49.29478" lon="-0.09801">
        <ele>6.39</ele>
        <time>2016-08-12T14:31:12Z</time>
      </trkpt>
      <trkpt lat="49.29467" lon="-0.09739">
        <ele>5.91</ele>
        <time>2016-08-12T14:31:24Z</time>
      </trkpt>
      <trkpt lat="49.29451" lon="-0.09653">
        <ele>5.91</ele>
        <time>2016-08-12T14:31:40Z</time>
      </trkpt>
      <trkpt lat="49.29444" lon="-0.09617">
        <ele>5.42</ele>
        <time>2016-08-12T14:31:48Z</time>
      </trkpt>
      <trkpt lat="49.29442" lon="-0.09616">
        <ele>5.42</ele>
        <time>2016-08-12T14:31:49Z</time>
      </trkpt>
      <trkpt lat="49.29437" lon="-0.09615">
        <ele>4.94</ele>
        <time>2016-08-12T14:31:55Z</time>
      </trkpt>
      <trkpt lat="49.29436" lon="-0.09613">
        <ele>4.94</ele>
        <time>2016-08-12T14:31:56Z</time>
      </trkpt>
      <trkpt lat="49.29435" lon="-0.09595">
        <ele>5.42</ele>
        <time>2016-08-12T14:32:01Z</time>
      </trkpt>
      <trkpt lat="49.29437" lon="-0.09592">
        <ele>5.42</ele>
        <time>2016-08-12T14:32:02Z</time>
      </trkpt>
      <trkpt lat="49.29439" lon="-0.0959">
        <ele>5.42</ele>
        <time>2016-08-12T14:32:03Z</time>
      </trkpt>
      <trkpt lat="49.29441" lon="-0.09587">
        <ele>5.42</ele>
        <time>2016-08-12T14:32:04Z</time>
      </trkpt>
      <trkpt lat="49.29442" lon="-0.09584">
        <ele>5.42</ele>
        <time>2016-08-12T14:32:05Z</time>
      </trkpt>
      <trkpt lat="49.29459" lon="-0.0953">
        <ele>4.94</ele>
        <time>2016-08-12T14:32:18Z</time>
      </trkpt>
      <trkpt lat="49.29461" lon="-0.09522">
        <ele>4.46</ele>
        <time>2016-08-12T14:32:20Z</time>
      </trkpt>
      <trkpt lat="49.29461" lon="-0.09519">
        <ele>4.46</ele>
        <time>2016-08-12T14:32:21Z</time>
      </trkpt>
      <trkpt lat="49.2946" lon="-0.09516">
        <ele>4.94</ele>
        <time>2016-08-12T14:32:22Z</time>
      </trkpt>
      <trkpt lat="49.29461" lon="-0.09512">
        <ele>4.94</ele>
        <time>2016-08-12T14:32:23Z</time>
      </trkpt>
      <trkpt lat="49.29462" lon="-0.09509">
        <ele>4.94</ele>
        <time>2016-08-12T14:32:24Z</time>
      </trkpt>
      <trkpt lat="49.29469" lon="-0.09484">
        <ele>3.5</ele>
        <time>2016-08-12T14:32:31Z</time>
      </trkpt>
      <trkpt lat="49.29468" lon="-0.0948">
        <ele>3.02</ele>
        <time>2016-08-12T14:32:32Z</time>
      </trkpt>
      <trkpt lat="49.29466" lon="-0.09476">
        <ele>3.02</ele>
        <time>2016-08-12T14:32:33Z</time>
      </trkpt>
      <trkpt lat="49.29464" lon="-0.09474">
        <ele>3.02</ele>
        <time>2016-08-12T14:32:34Z</time>
      </trkpt>
      <trkpt lat="49.29461" lon="-0.09471">
        <ele>3.5</ele>
        <time>2016-08-12T14:32:35Z</time>
      </trkpt>
      <trkpt lat="49.29459" lon="-0.09469">
        <ele>3.5</ele>
        <time>2016-08-12T14:32:36Z</time>
      </trkpt>
      <trkpt lat="49.29456" lon="-0.09466">
        <ele>3.5</ele>
        <time>2016-08-12T14:32:37Z</time>
      </trkpt>
      <trkpt lat="49.29454" lon="-0.09463">
        <ele>3.5</ele>
        <time>2016-08-12T14:32:38Z</time>
      </trkpt>
      <trkpt lat="49.29453" lon="-0.0946">
        <ele>3.5</ele>
        <time>2016-08-12T14:32:39Z</time>
      </trkpt>
      <trkpt lat="49.29453" lon="-0.09456">
        <ele>3.5</ele>
        <time>2016-08-12T14:32:40Z</time>
      </trkpt>
      <trkpt lat="49.29453" lon="-0.09451">
        <ele>3.5</ele>
        <time>2016-08-12T14:32:41Z</time>
      </trkpt>
      <trkpt lat="49.29454" lon="-0.09447">
        <ele>3.98</ele>
        <time>2016-08-12T14:32:42Z</time>
      </trkpt>
      <trkpt lat="49.29455" lon="-0.09443">
        <ele>3.98</ele>
        <time>2016-08-12T14:32:43Z</time>
      </trkpt>
      <trkpt lat="49.29456" lon="-0.0944">
        <ele>3.98</ele>
        <time>2016-08-12T14:32:44Z</time>
      </trkpt>
      <trkpt lat="49.29468" lon="-0.09389">
        <ele>3.5</ele>
        <time>2016-08-12T14:32:58Z</time>
      </trkpt>
      <trkpt lat="49.29477" lon="-0.09364">
        <ele>2.54</ele>
        <time>2016-08-12T14:33:09Z</time>
      </trkpt>
      <trkpt lat="49.29477" lon="-0.09362">
        <ele>3.02</ele>
        <time>2016-08-12T14:33:22Z</time>
      </trkpt>
      <trkpt lat="49.29477" lon="-0.09364">
        <ele>4.94</ele>
        <time>2016-08-12T14:33:43Z</time>
      </trkpt>
      <trkpt lat="49.29475" lon="-0.09364">
        <ele>4.94</ele>
        <time>2016-08-12T14:34:01Z</time>
      </trkpt>
      <trkpt lat="49.29474" lon="-0.09364">
        <ele>5.42</ele>
        <time>2016-08-12T14:34:15Z</time>
      </trkpt>
      <trkpt lat="49.29475" lon="-0.09364">
        <ele>5.42</ele>
        <time>2016-08-12T14:34:34Z</time>
      </trkpt>
      <trkpt lat="49.29474" lon="-0.09366">
        <ele>5.42</ele>
        <time>2016-08-12T14:34:35Z</time>
      </trkpt>
      <trkpt lat="49.29474" lon="-0.09368">
        <ele>5.42</ele>
        <time>2016-08-12T14:34:36Z</time>
      </trkpt>
      <trkpt lat="49.29473" lon="-0.09371">
        <ele>5.42</ele>
        <time>2016-08-12T14:34:37Z</time>
      </trkpt>
      <trkpt lat="49.29473" lon="-0.09374">
        <ele>5.42</ele>
        <time>2016-08-12T14:34:38Z</time>
      </trkpt>
      <trkpt lat="49.29461" lon="-0.09423">
        <ele>5.91</ele>
        <time>2016-08-12T14:34:49Z</time>
      </trkpt>
      <trkpt lat="49.29454" lon="-0.09462">
        <ele>7.35</ele>
        <time>2016-08-12T14:34:59Z</time>
      </trkpt>
      <trkpt lat="49.29456" lon="-0.09465">
        <ele>7.35</ele>
        <time>2016-08-12T14:35:00Z</time>
      </trkpt>
      <trkpt lat="49.29458" lon="-0.09467">
        <ele>7.35</ele>
        <time>2016-08-12T14:35:01Z</time>
      </trkpt>
      <trkpt lat="49.29461" lon="-0.0947">
        <ele>7.35</ele>
        <time>2016-08-12T14:35:02Z</time>
      </trkpt>
      <trkpt lat="49.29463" lon="-0.09472">
        <ele>7.35</ele>
        <time>2016-08-12T14:35:03Z</time>
      </trkpt>
      <trkpt lat="49.29465" lon="-0.09475">
        <ele>7.35</ele>
        <time>2016-08-12T14:35:04Z</time>
      </trkpt>
      <trkpt lat="49.29466" lon="-0.09479">
        <ele>7.35</ele>
        <time>2016-08-12T14:35:05Z</time>
      </trkpt>
      <trkpt lat="49.29466" lon="-0.09484">
        <ele>7.83</ele>
        <time>2016-08-12T14:35:06Z</time>
      </trkpt>
      <trkpt lat="49.29466" lon="-0.09488">
        <ele>7.83</ele>
        <time>2016-08-12T14:35:07Z</time>
      </trkpt>
      <trkpt lat="49.29466" lon="-0.09492">
        <ele>7.83</ele>
        <time>2016-08-12T14:35:08Z</time>
      </trkpt>
      <trkpt lat="49.29465" lon="-0.09497">
        <ele>7.83</ele>
        <time>2016-08-12T14:35:09Z</time>
      </trkpt>
      <trkpt lat="49.29464" lon="-0.09501">
        <ele>7.35</ele>
        <time>2016-08-12T14:35:10Z</time>
      </trkpt>
      <trkpt lat="49.29463" lon="-0.09505">
        <ele>7.35</ele>
        <time>2016-08-12T14:35:11Z</time>
      </trkpt>
      <trkpt lat="49.29447" lon="-0.09561">
        <ele>6.39</ele>
        <time>2016-08-12T14:35:24Z</time>
      </trkpt>
      <trkpt lat="49.2944" lon="-0.0962">
        <ele>5.91</ele>
        <time>2016-08-12T14:35:37Z</time>
      </trkpt>
      <trkpt lat="49.29455" lon="-0.09691">
        <ele>5.42</ele>
        <time>2016-08-12T14:35:50Z</time>
      </trkpt>
      <trkpt lat="49.29456" lon="-0.09697">
        <ele>5.42</ele>
        <time>2016-08-12T14:35:51Z</time>
      </trkpt>
      <trkpt lat="49.29473" lon="-0.09771">
        <ele>6.39</ele>
        <time>2016-08-12T14:36:03Z</time>
      </trkpt>
      <trkpt lat="49.29482" lon="-0.09802">
        <ele>6.39</ele>
        <time>2016-08-12T14:36:11Z</time>
      </trkpt>
      <trkpt lat="49.29482" lon="-0.09805">
        <ele>6.39</ele>
        <time>2016-08-12T14:36:12Z</time>
      </trkpt>
      <trkpt lat="49.29478" lon="-0.0982">
        <ele>6.39</ele>
        <time>2016-08-12T14:36:15Z</time>
      </trkpt>
      <trkpt lat="49.29468" lon="-0.09851">
        <ele>5.91</ele>
        <time>2016-08-12T14:36:20Z</time>
      </trkpt>
      <trkpt lat="49.29466" lon="-0.09857">
        <ele>5.91</ele>
        <time>2016-08-12T14:36:21Z</time>
      </trkpt>
      <trkpt lat="49.29465" lon="-0.09863">
        <ele>5.91</ele>
        <time>2016-08-12T14:36:22Z</time>
      </trkpt>
      <trkpt lat="49.29465" lon="-0.0987">
        <ele>5.91</ele>
        <time>2016-08-12T14:36:23Z</time>
      </trkpt>
      <trkpt lat="49.29466" lon="-0.09876">
        <ele>5.91</ele>
        <time>2016-08-12T14:36:24Z</time>
      </trkpt>
      <trkpt lat="49.29467" lon="-0.09882">
        <ele>5.91</ele>
        <time>2016-08-12T14:36:25Z</time>
      </trkpt>
      <trkpt lat="49.29469" lon="-0.09888">
        <ele>6.39</ele>
        <time>2016-08-12T14:36:26Z</time>
      </trkpt>
      <trkpt lat="49.2948" lon="-0.09952">
        <ele>6.87</ele>
        <time>2016-08-12T14:36:36Z</time>
      </trkpt>
      <trkpt lat="49.29479" lon="-0.09958">
        <ele>6.39</ele>
        <time>2016-08-12T14:36:37Z</time>
      </trkpt>
      <trkpt lat="49.29477" lon="-0.09963">
        <ele>6.39</ele>
        <time>2016-08-12T14:36:38Z</time>
      </trkpt>
      <trkpt lat="49.29474" lon="-0.09968">
        <ele>6.39</ele>
        <time>2016-08-12T14:36:39Z</time>
      </trkpt>
      <trkpt lat="49.2947" lon="-0.0997">
        <ele>6.87</ele>
        <time>2016-08-12T14:36:40Z</time>
      </trkpt>
      <trkpt lat="49.29465" lon="-0.09972">
        <ele>6.39</ele>
        <time>2016-08-12T14:36:41Z</time>
      </trkpt>
      <trkpt lat="49.2946" lon="-0.09974">
        <ele>6.39</ele>
        <time>2016-08-12T14:36:42Z</time>
      </trkpt>
      <trkpt lat="49.29438" lon="-0.09981">
        <ele>5.91</ele>
        <time>2016-08-12T14:36:47Z</time>
      </trkpt>
      <trkpt lat="49.29434" lon="-0.09984">
        <ele>5.91</ele>
        <time>2016-08-12T14:36:48Z</time>
      </trkpt>
      <trkpt lat="49.29432" lon="-0.0999">
        <ele>5.91</ele>
        <time>2016-08-12T14:36:49Z</time>
      </trkpt>
      <trkpt lat="49.29427" lon="-0.10002">
        <ele>5.91</ele>
        <time>2016-08-12T14:36:51Z</time>
      </trkpt>
      <trkpt lat="49.2942" lon="-0.1002">
        <ele>5.91</ele>
        <time>2016-08-12T14:36:55Z</time>
      </trkpt>
      <trkpt lat="49.29418" lon="-0.1002">
        <ele>5.91</ele>
        <time>2016-08-12T14:36:56Z</time>
      </trkpt>
      <trkpt lat="49.29416" lon="-0.10019">
        <ele>5.91</ele>
        <time>2016-08-12T14:36:57Z</time>
      </trkpt>
      <trkpt lat="49.29414" lon="-0.10017">
        <ele>5.91</ele>
        <time>2016-08-12T14:36:58Z</time>
      </trkpt>
      <trkpt lat="49.29411" lon="-0.10015">
        <ele>5.91</ele>
        <time>2016-08-12T14:36:59Z</time>
      </trkpt>
      <trkpt lat="49.29377" lon="-0.09992">
        <ele>4.46</ele>
        <time>2016-08-12T14:37:12Z</time>
      </trkpt>
      <trkpt lat="49.29364" lon="-0.09984">
        <ele>3.98</ele>
        <time>2016-08-12T14:37:19Z</time>
      </trkpt>
      <trkpt lat="49.29349" lon="-0.09975">
        <ele>4.94</ele>
        <time>2016-08-12T14:37:27Z</time>
      </trkpt>
      <trkpt lat="49.29342" lon="-0.09975">
        <ele>5.42</ele>
        <time>2016-08-12T14:37:31Z</time>
      </trkpt>
      <trkpt lat="49.2932" lon="-0.09957">
        <ele>7.35</ele>
        <time>2016-08-12T14:37:43Z</time>
      </trkpt>
      <trkpt lat="49.29286" lon="-0.09932">
        <ele>7.35</ele>
        <time>2016-08-12T14:37:54Z</time>
      </trkpt>
      <trkpt lat="49.29271" lon="-0.0992">
        <ele>7.83</ele>
        <time>2016-08-12T14:37:59Z</time>
      </trkpt>
      <trkpt lat="49.29266" lon="-0.09923">
        <ele>7.83</ele>
        <time>2016-08-12T14:38:08Z</time>
      </trkpt>
      <trkpt lat="49.29252" lon="-0.09916">
        <ele>7.35</ele>
        <time>2016-08-12T14:38:14Z</time>
      </trkpt>
      <trkpt lat="49.29228" lon="-0.09903">
        <ele>9.27</ele>
        <time>2016-08-12T14:38:26Z</time>
      </trkpt>
      <trkpt lat="49.29227" lon="-0.09903">
        <ele>9.27</ele>
        <time>2016-08-12T14:38:27Z</time>
      </trkpt>
      <trkpt lat="49.29221" lon="-0.09918">
        <ele>8.79</ele>
        <time>2016-08-12T14:38:33Z</time>
      </trkpt>
      <trkpt lat="49.29188" lon="-0.09984">
        <ele>7.83</ele>
        <time>2016-08-12T14:38:46Z</time>
      </trkpt>
      <trkpt lat="49.29186" lon="-0.0999">
        <ele>7.83</ele>
        <time>2016-08-12T14:38:56Z</time>
      </trkpt>
      <trkpt lat="49.29185" lon="-0.09993">
        <ele>7.83</ele>
        <time>2016-08-12T14:38:57Z</time>
      </trkpt>
      <trkpt lat="49.29184" lon="-0.09995">
        <ele>7.35</ele>
        <time>2016-08-12T14:38:58Z</time>
      </trkpt>
      <trkpt lat="49.29176" lon="-0.10018">
        <ele>5.42</ele>
        <time>2016-08-12T14:39:08Z</time>
      </trkpt>
      <trkpt lat="49.29168" lon="-0.10028">
        <ele>4.94</ele>
        <time>2016-08-12T14:39:11Z</time>
      </trkpt>
      <trkpt lat="49.29165" lon="-0.10034">
        <ele>4.94</ele>
        <time>2016-08-12T14:39:12Z</time>
      </trkpt>
      <trkpt lat="49.29163" lon="-0.10039">
        <ele>5.42</ele>
        <time>2016-08-12T14:39:13Z</time>
      </trkpt>
      <trkpt lat="49.29158" lon="-0.10054">
        <ele>5.91</ele>
        <time>2016-08-12T14:39:16Z</time>
      </trkpt>
      <trkpt lat="49.29156" lon="-0.10054">
        <ele>5.91</ele>
        <time>2016-08-12T14:39:17Z</time>
      </trkpt>
      <trkpt lat="49.29155" lon="-0.10051">
        <ele>5.91</ele>
        <time>2016-08-12T14:39:18Z</time>
      </trkpt>
      <trkpt lat="49.29155" lon="-0.10048">
        <ele>5.91</ele>
        <time>2016-08-12T14:39:19Z</time>
      </trkpt>
      <trkpt lat="49.29155" lon="-0.10043">
        <ele>5.91</ele>
        <time>2016-08-12T14:39:20Z</time>
      </trkpt>
      <trkpt lat="49.29155" lon="-0.10038">
        <ele>5.91</ele>
        <time>2016-08-12T14:39:21Z</time>
      </trkpt>
      <trkpt lat="49.29154" lon="-0.10033">
        <ele>5.91</ele>
        <time>2016-08-12T14:39:22Z</time>
      </trkpt>
      <trkpt lat="49.29153" lon="-0.10028">
        <ele>5.91</ele>
        <time>2016-08-12T14:39:23Z</time>
      </trkpt>
      <trkpt lat="49.29151" lon="-0.10024">
        <ele>5.91</ele>
        <time>2016-08-12T14:39:24Z</time>
      </trkpt>
      <trkpt lat="49.29149" lon="-0.10021">
        <ele>5.91</ele>
        <time>2016-08-12T14:39:25Z</time>
      </trkpt>
      <trkpt lat="49.2914" lon="-0.10012">
        <ele>5.91</ele>
        <time>2016-08-12T14:39:29Z</time>
      </trkpt>
      <trkpt lat="49.29137" lon="-0.10013">
        <ele>5.91</ele>
        <time>2016-08-12T14:39:30Z</time>
      </trkpt>
      <trkpt lat="49.29135" lon="-0.10016">
        <ele>5.91</ele>
        <time>2016-08-12T14:39:31Z</time>
      </trkpt>
      <trkpt lat="49.29133" lon="-0.10021">
        <ele>5.91</ele>
        <time>2016-08-12T14:39:32Z</time>
      </trkpt>
      <trkpt lat="49.29131" lon="-0.10026">
        <ele>5.91</ele>
        <time>2016-08-12T14:39:33Z</time>
      </trkpt>
      <trkpt lat="49.29128" lon="-0.10031">
        <ele>5.91</ele>
        <time>2016-08-12T14:39:34Z</time>
      </trkpt>
      <trkpt lat="49.29125" lon="-0.10035">
        <ele>5.91</ele>
        <time>2016-08-12T14:39:35Z</time>
      </trkpt>
      <trkpt lat="49.29075" lon="-0.10116">
        <ele>5.91</ele>
        <time>2016-08-12T14:39:49Z</time>
      </trkpt>
      <trkpt lat="49.29039" lon="-0.10159">
        <ele>7.83</ele>
        <time>2016-08-12T14:40:00Z</time>
      </trkpt>
      <trkpt lat="49.2904" lon="-0.1016">
        <ele>7.83</ele>
        <time>2016-08-12T14:40:24Z</time>
      </trkpt>
      <trkpt lat="49.2904" lon="-0.1016">
        <ele>7.83</ele>
        <time>2016-08-12T14:40:47Z</time>
      </trkpt>
      <trkpt lat="49.29037" lon="-0.1016">
        <ele>7.83</ele>
        <time>2016-08-12T14:41:18Z</time>
      </trkpt>
      <trkpt lat="49.2901" lon="-0.10197">
        <ele>7.35</ele>
        <time>2016-08-12T14:41:27Z</time>
      </trkpt>
      <trkpt lat="49.28983" lon="-0.10234">
        <ele>7.35</ele>
        <time>2016-08-12T14:41:33Z</time>
      </trkpt>
      <trkpt lat="49.28975" lon="-0.10248">
        <ele>7.35</ele>
        <time>2016-08-12T14:41:35Z</time>
      </trkpt>
      <trkpt lat="49.28971" lon="-0.10256">
        <ele>6.87</ele>
        <time>2016-08-12T14:41:36Z</time>
      </trkpt>
      <trkpt lat="49.28968" lon="-0.10264">
        <ele>6.87</ele>
        <time>2016-08-12T14:41:37Z</time>
      </trkpt>
      <trkpt lat="49.28964" lon="-0.10272">
        <ele>6.39</ele>
        <time>2016-08-12T14:41:38Z</time>
      </trkpt>
      <trkpt lat="49.2896" lon="-0.10279">
        <ele>5.91</ele>
        <time>2016-08-12T14:41:39Z</time>
      </trkpt>
      <trkpt lat="49.28943" lon="-0.10306">
        <ele>5.91</ele>
        <time>2016-08-12T14:41:43Z</time>
      </trkpt>
      <trkpt lat="49.28864" lon="-0.10388">
        <ele>4.94</ele>
        <time>2016-08-12T14:41:58Z</time>
      </trkpt>
      <trkpt lat="49.28859" lon="-0.10394">
        <ele>4.94</ele>
        <time>2016-08-12T14:41:59Z</time>
      </trkpt>
      <trkpt lat="49.28854" lon="-0.10401">
        <ele>4.94</ele>
        <time>2016-08-12T14:42:00Z</time>
      </trkpt>
      <trkpt lat="49.28786" lon="-0.10514">
        <ele>5.42</ele>
        <time>2016-08-12T14:42:15Z</time>
      </trkpt>
      <trkpt lat="49.28768" lon="-0.10557">
        <ele>5.42</ele>
        <time>2016-08-12T14:42:23Z</time>
      </trkpt>
      <trkpt lat="49.28766" lon="-0.10564">
        <ele>5.42</ele>
        <time>2016-08-12T14:42:24Z</time>
      </trkpt>
      <trkpt lat="49.28764" lon="-0.10571">
        <ele>5.42</ele>
        <time>2016-08-12T14:42:25Z</time>
      </trkpt>
      <trkpt lat="49.28751" lon="-0.10606">
        <ele>4.94</ele>
        <time>2016-08-12T14:42:32Z</time>
      </trkpt>
      <trkpt lat="49.28748" lon="-0.10612">
        <ele>4.94</ele>
        <time>2016-08-12T14:42:33Z</time>
      </trkpt>
      <trkpt lat="49.2874" lon="-0.10626">
        <ele>4.94</ele>
        <time>2016-08-12T14:42:35Z</time>
      </trkpt>
      <trkpt lat="49.28684" lon="-0.10716">
        <ele>4.94</ele>
        <time>2016-08-12T14:42:46Z</time>
      </trkpt>
      <trkpt lat="49.28678" lon="-0.10721">
        <ele>4.94</ele>
        <time>2016-08-12T14:42:47Z</time>
      </trkpt>
      <trkpt lat="49.28672" lon="-0.10726">
        <ele>4.94</ele>
        <time>2016-08-12T14:42:48Z</time>
      </trkpt>
      <trkpt lat="49.28666" lon="-0.10729">
        <ele>4.94</ele>
        <time>2016-08-12T14:42:49Z</time>
      </trkpt>
      <trkpt lat="49.28659" lon="-0.10732">
        <ele>4.94</ele>
        <time>2016-08-12T14:42:50Z</time>
      </trkpt>
      <trkpt lat="49.28653" lon="-0.10735">
        <ele>5.42</ele>
        <time>2016-08-12T14:42:51Z</time>
      </trkpt>
      <trkpt lat="49.28647" lon="-0.10739">
        <ele>5.42</ele>
        <time>2016-08-12T14:42:52Z</time>
      </trkpt>
      <trkpt lat="49.28641" lon="-0.10744">
        <ele>5.42</ele>
        <time>2016-08-12T14:42:53Z</time>
      </trkpt>
      <trkpt lat="49.28631" lon="-0.10755">
        <ele>5.91</ele>
        <time>2016-08-12T14:42:55Z</time>
      </trkpt>
      <trkpt lat="49.28626" lon="-0.10761">
        <ele>5.91</ele>
        <time>2016-08-12T14:42:56Z</time>
      </trkpt>
      <trkpt lat="49.28623" lon="-0.10768">
        <ele>5.91</ele>
        <time>2016-08-12T14:42:57Z</time>
      </trkpt>
      <trkpt lat="49.28617" lon="-0.1078">
        <ele>5.91</ele>
        <time>2016-08-12T14:42:59Z</time>
      </trkpt>
      <trkpt lat="49.28616" lon="-0.10786">
        <ele>5.91</ele>
        <time>2016-08-12T14:43:00Z</time>
      </trkpt>
      <trkpt lat="49.28608" lon="-0.10808">
        <ele>6.39</ele>
        <time>2016-08-12T14:43:04Z</time>
      </trkpt>
      <trkpt lat="49.28605" lon="-0.10812">
        <ele>6.39</ele>
        <time>2016-08-12T14:43:05Z</time>
      </trkpt>
      <trkpt lat="49.28601" lon="-0.10816">
        <ele>6.39</ele>
        <time>2016-08-12T14:43:06Z</time>
      </trkpt>
      <trkpt lat="49.28597" lon="-0.10818">
        <ele>5.91</ele>
        <time>2016-08-12T14:43:07Z</time>
      </trkpt>
      <trkpt lat="49.28592" lon="-0.10818">
        <ele>5.91</ele>
        <time>2016-08-12T14:43:08Z</time>
      </trkpt>
      <trkpt lat="49.28588" lon="-0.1082">
        <ele>5.91</ele>
        <time>2016-08-12T14:43:09Z</time>
      </trkpt>
      <trkpt lat="49.28583" lon="-0.10822">
        <ele>5.91</ele>
        <time>2016-08-12T14:43:10Z</time>
      </trkpt>
      <trkpt lat="49.28545" lon="-0.10844">
        <ele>6.87</ele>
        <time>2016-08-12T14:43:22Z</time>
      </trkpt>
      <trkpt lat="49.28542" lon="-0.1086">
        <ele>6.39</ele>
        <time>2016-08-12T14:43:25Z</time>
      </trkpt>
      <trkpt lat="49.28544" lon="-0.10867">
        <ele>6.39</ele>
        <time>2016-08-12T14:43:26Z</time>
      </trkpt>
      <trkpt lat="49.28545" lon="-0.10875">
        <ele>6.39</ele>
        <time>2016-08-12T14:43:27Z</time>
      </trkpt>
      <trkpt lat="49.28544" lon="-0.10883">
        <ele>6.39</ele>
        <time>2016-08-12T14:43:28Z</time>
      </trkpt>
      <trkpt lat="49.28542" lon="-0.10889">
        <ele>6.39</ele>
        <time>2016-08-12T14:43:29Z</time>
      </trkpt>
      <trkpt lat="49.28539" lon="-0.10895">
        <ele>6.39</ele>
        <time>2016-08-12T14:43:30Z</time>
      </trkpt>
      <trkpt lat="49.28535" lon="-0.10901">
        <ele>5.91</ele>
        <time>2016-08-12T14:43:31Z</time>
      </trkpt>
      <trkpt lat="49.2853" lon="-0.10915">
        <ele>5.91</ele>
        <time>2016-08-12T14:43:33Z</time>
      </trkpt>
      <trkpt lat="49.28529" lon="-0.10924">
        <ele>5.42</ele>
        <time>2016-08-12T14:43:34Z</time>
      </trkpt>
      <trkpt lat="49.28529" lon="-0.10933">
        <ele>5.42</ele>
        <time>2016-08-12T14:43:35Z</time>
      </trkpt>
      <trkpt lat="49.28553" lon="-0.11056">
        <ele>6.39</ele>
        <time>2016-08-12T14:43:50Z</time>
      </trkpt>
      <trkpt lat="49.28586" lon="-0.11184">
        <ele>7.35</ele>
        <time>2016-08-12T14:44:06Z</time>
      </trkpt>
      <trkpt lat="49.28596" lon="-0.11216">
        <ele>6.87</ele>
        <time>2016-08-12T14:44:16Z</time>
      </trkpt>
      <trkpt lat="49.286" lon="-0.11225">
        <ele>6.87</ele>
        <time>2016-08-12T14:44:18Z</time>
      </trkpt>
      <trkpt lat="49.28602" lon="-0.1123">
        <ele>6.39</ele>
        <time>2016-08-12T14:44:19Z</time>
      </trkpt>
      <trkpt lat="49.28605" lon="-0.11235">
        <ele>6.39</ele>
        <time>2016-08-12T14:44:20Z</time>
      </trkpt>
      <trkpt lat="49.28606" lon="-0.11242">
        <ele>6.39</ele>
        <time>2016-08-12T14:44:21Z</time>
      </trkpt>
      <trkpt lat="49.28606" lon="-0.11251">
        <ele>6.39</ele>
        <time>2016-08-12T14:44:22Z</time>
      </trkpt>
      <trkpt lat="49.28607" lon="-0.11259">
        <ele>6.39</ele>
        <time>2016-08-12T14:44:23Z</time>
      </trkpt>
      <trkpt lat="49.28609" lon="-0.11268">
        <ele>6.39</ele>
        <time>2016-08-12T14:44:24Z</time>
      </trkpt>
      <trkpt lat="49.28611" lon="-0.11276">
        <ele>6.39</ele>
        <time>2016-08-12T14:44:25Z</time>
      </trkpt>
      <trkpt lat="49.28613" lon="-0.11285">
        <ele>5.91</ele>
        <time>2016-08-12T14:44:26Z</time>
      </trkpt>
      <trkpt lat="49.28616" lon="-0.11294">
        <ele>5.42</ele>
        <time>2016-08-12T14:44:27Z</time>
      </trkpt>
      <trkpt lat="49.28659" lon="-0.11446">
        <ele>4.46</ele>
        <time>2016-08-12T14:44:43Z</time>
      </trkpt>
      <trkpt lat="49.28683" lon="-0.11553">
        <ele>3.98</ele>
        <time>2016-08-12T14:44:55Z</time>
      </trkpt>
      <trkpt lat="49.28688" lon="-0.11592">
        <ele>3.98</ele>
        <time>2016-08-12T14:44:59Z</time>
      </trkpt>
      <trkpt lat="49.28688" lon="-0.11671">
        <ele>3.5</ele>
        <time>2016-08-12T14:45:08Z</time>
      </trkpt>
      <trkpt lat="49.28686" lon="-0.11836">
        <ele>3.02</ele>
        <time>2016-08-12T14:45:24Z</time>
      </trkpt>
      <trkpt lat="49.28689" lon="-0.11877">
        <ele>3.02</ele>
        <time>2016-08-12T14:45:28Z</time>
      </trkpt>
      <trkpt lat="49.28691" lon="-0.11887">
        <ele>3.02</ele>
        <time>2016-08-12T14:45:29Z</time>
      </trkpt>
      <trkpt lat="49.28732" lon="-0.12049">
        <ele>3.98</ele>
        <time>2016-08-12T14:45:46Z</time>
      </trkpt>
      <trkpt lat="49.28768" lon="-0.12193">
        <ele>3.98</ele>
        <time>2016-08-12T14:46:01Z</time>
      </trkpt>
      <trkpt lat="49.28771" lon="-0.12213">
        <ele>3.98</ele>
        <time>2016-08-12T14:46:03Z</time>
      </trkpt>
      <trkpt lat="49.28771" lon="-0.12223">
        <ele>3.98</ele>
        <time>2016-08-12T14:46:04Z</time>
      </trkpt>
      <trkpt lat="49.28771" lon="-0.12233">
        <ele>3.98</ele>
        <time>2016-08-12T14:46:05Z</time>
      </trkpt>
      <trkpt lat="49.28766" lon="-0.12291">
        <ele>3.5</ele>
        <time>2016-08-12T14:46:11Z</time>
      </trkpt>
      <trkpt lat="49.28769" lon="-0.12299">
        <ele>3.5</ele>
        <time>2016-08-12T14:46:12Z</time>
      </trkpt>
      <trkpt lat="49.28773" lon="-0.12304">
        <ele>3.98</ele>
        <time>2016-08-12T14:46:13Z</time>
      </trkpt>
      <trkpt lat="49.28778" lon="-0.12308">
        <ele>3.98</ele>
        <time>2016-08-12T14:46:14Z</time>
      </trkpt>
      <trkpt lat="49.28784" lon="-0.1231">
        <ele>3.98</ele>
        <time>2016-08-12T14:46:15Z</time>
      </trkpt>
      <trkpt lat="49.2879" lon="-0.12312">
        <ele>3.5</ele>
        <time>2016-08-12T14:46:16Z</time>
      </trkpt>
      <trkpt lat="49.28869" lon="-0.12338">
        <ele>3.02</ele>
        <time>2016-08-12T14:46:30Z</time>
      </trkpt>
      <trkpt lat="49.28913" lon="-0.12352">
        <ele>2.54</ele>
        <time>2016-08-12T14:46:38Z</time>
      </trkpt>
      <trkpt lat="49.28924" lon="-0.12356">
        <ele>2.06</ele>
        <time>2016-08-12T14:46:40Z</time>
      </trkpt>
      <trkpt lat="49.2893" lon="-0.12358">
        <ele>2.06</ele>
        <time>2016-08-12T14:46:41Z</time>
      </trkpt>
      <trkpt lat="49.28946" lon="-0.12363">
        <ele>1.58</ele>
        <time>2016-08-12T14:46:44Z</time>
      </trkpt>
      <trkpt lat="49.28952" lon="-0.12364">
        <ele>1.58</ele>
        <time>2016-08-12T14:46:45Z</time>
      </trkpt>
      <trkpt lat="49.2903" lon="-0.12387">
        <ele>1.1</ele>
        <time>2016-08-12T14:46:59Z</time>
      </trkpt>
      <trkpt lat="49.2909" lon="-0.12406">
        <ele>1.58</ele>
        <time>2016-08-12T14:47:10Z</time>
      </trkpt>
      <trkpt lat="49.2916" lon="-0.12425">
        <ele>4.46</ele>
        <time>2016-08-12T14:47:24Z</time>
      </trkpt>
      <trkpt lat="49.29191" lon="-0.12438">
        <ele>4.46</ele>
        <time>2016-08-12T14:47:37Z</time>
      </trkpt>
      <trkpt lat="49.29198" lon="-0.12442">
        <ele>4.46</ele>
        <time>2016-08-12T14:47:42Z</time>
      </trkpt>
      <trkpt lat="49.29199" lon="-0.12441">
        <ele>4.46</ele>
        <time>2016-08-12T14:47:43Z</time>
      </trkpt>
      <trkpt lat="49.29202" lon="-0.12442">
        <ele>4.94</ele>
        <time>2016-08-12T14:47:45Z</time>
      </trkpt>
      <trkpt lat="49.29203" lon="-0.12444">
        <ele>5.42</ele>
        <time>2016-08-12T14:47:46Z</time>
      </trkpt>
      <trkpt lat="49.29203" lon="-0.12446">
        <ele>5.91</ele>
        <time>2016-08-12T14:47:47Z</time>
      </trkpt>
      <trkpt lat="49.29202" lon="-0.12446">
        <ele>6.39</ele>
        <time>2016-08-12T14:47:48Z</time>
      </trkpt>
      <trkpt lat="49.29201" lon="-0.12446">
        <ele>6.87</ele>
        <time>2016-08-12T14:47:49Z</time>
      </trkpt>
      <trkpt lat="49.292" lon="-0.12445">
        <ele>6.87</ele>
        <time>2016-08-12T14:47:50Z</time>
      </trkpt>
      <trkpt lat="49.29198" lon="-0.12444">
        <ele>7.35</ele>
        <time>2016-08-12T14:47:51Z</time>
      </trkpt>
      <trkpt lat="49.29172" lon="-0.12434">
        <ele>6.87</ele>
        <time>2016-08-12T14:48:01Z</time>
      </trkpt>
      <trkpt lat="49.29151" lon="-0.12428">
        <ele>6.87</ele>
        <time>2016-08-12T14:48:07Z</time>
      </trkpt>
      <trkpt lat="49.29136" lon="-0.12421">
        <ele>7.35</ele>
        <time>2016-08-12T14:48:11Z</time>
      </trkpt>
      <trkpt lat="49.29128" lon="-0.12419">
        <ele>7.83</ele>
        <time>2016-08-12T14:48:13Z</time>
      </trkpt>
      <trkpt lat="49.29124" lon="-0.12419">
        <ele>7.35</ele>
        <time>2016-08-12T14:48:14Z</time>
      </trkpt>
      <trkpt lat="49.2912" lon="-0.12422">
        <ele>7.35</ele>
        <time>2016-08-12T14:48:15Z</time>
      </trkpt>
      <trkpt lat="49.29117" lon="-0.12427">
        <ele>6.87</ele>
        <time>2016-08-12T14:48:16Z</time>
      </trkpt>
      <trkpt lat="49.29115" lon="-0.12434">
        <ele>6.87</ele>
        <time>2016-08-12T14:48:17Z</time>
      </trkpt>
      <trkpt lat="49.29114" lon="-0.12441">
        <ele>6.87</ele>
        <time>2016-08-12T14:48:18Z</time>
      </trkpt>
      <trkpt lat="49.29112" lon="-0.12448">
        <ele>7.35</ele>
        <time>2016-08-12T14:48:19Z</time>
      </trkpt>
      <trkpt lat="49.29095" lon="-0.12537">
        <ele>9.27</ele>
        <time>2016-08-12T14:48:31Z</time>
      </trkpt>
      <trkpt lat="49.29092" lon="-0.12577">
        <ele>10.23</ele>
        <time>2016-08-12T14:48:36Z</time>
      </trkpt>
      <trkpt lat="49.29092" lon="-0.12585">
        <ele>10.23</ele>
        <time>2016-08-12T14:48:37Z</time>
      </trkpt>
      <trkpt lat="49.29097" lon="-0.12624">
        <ele>10.71</ele>
        <time>2016-08-12T14:48:42Z</time>
      </trkpt>
      <trkpt lat="49.29098" lon="-0.12631">
        <ele>10.23</ele>
        <time>2016-08-12T14:48:43Z</time>
      </trkpt>
      <trkpt lat="49.291" lon="-0.12649">
        <ele>10.23</ele>
        <time>2016-08-12T14:48:45Z</time>
      </trkpt>
      <trkpt lat="49.29099" lon="-0.12658">
        <ele>10.23</ele>
        <time>2016-08-12T14:48:46Z</time>
      </trkpt>
      <trkpt lat="49.29098" lon="-0.12667">
        <ele>9.75</ele>
        <time>2016-08-12T14:48:47Z</time>
      </trkpt>
      <trkpt lat="49.29096" lon="-0.12675">
        <ele>9.27</ele>
        <time>2016-08-12T14:48:48Z</time>
      </trkpt>
      <trkpt lat="49.29093" lon="-0.12683">
        <ele>9.27</ele>
        <time>2016-08-12T14:48:49Z</time>
      </trkpt>
      <trkpt lat="49.29087" lon="-0.12707">
        <ele>9.27</ele>
        <time>2016-08-12T14:48:55Z</time>
      </trkpt>
      <trkpt lat="49.29089" lon="-0.12714">
        <ele>9.27</ele>
        <time>2016-08-12T14:48:58Z</time>
      </trkpt>
      <trkpt lat="49.29092" lon="-0.12715">
        <ele>8.79</ele>
        <time>2016-08-12T14:49:00Z</time>
      </trkpt>
      <trkpt lat="49.29093" lon="-0.12716">
        <ele>9.27</ele>
        <time>2016-08-12T14:49:01Z</time>
      </trkpt>
      <trkpt lat="49.29117" lon="-0.12724">
        <ele>10.23</ele>
        <time>2016-08-12T14:49:07Z</time>
      </trkpt>
      <trkpt lat="49.29122" lon="-0.12727">
        <ele>10.23</ele>
        <time>2016-08-12T14:49:08Z</time>
      </trkpt>
      <trkpt lat="49.29127" lon="-0.12729">
        <ele>10.71</ele>
        <time>2016-08-12T14:49:09Z</time>
      </trkpt>
      <trkpt lat="49.29131" lon="-0.12731">
        <ele>10.71</ele>
        <time>2016-08-12T14:49:10Z</time>
      </trkpt>
      <trkpt lat="49.29136" lon="-0.12732">
        <ele>10.71</ele>
        <time>2016-08-12T14:49:11Z</time>
      </trkpt>
      <trkpt lat="49.2914" lon="-0.12733">
        <ele>10.71</ele>
        <time>2016-08-12T14:49:12Z</time>
      </trkpt>
      <trkpt lat="49.29144" lon="-0.12733">
        <ele>10.71</ele>
        <time>2016-08-12T14:49:13Z</time>
      </trkpt>
      <trkpt lat="49.29167" lon="-0.12744">
        <ele>11.19</ele>
        <time>2016-08-12T14:49:20Z</time>
      </trkpt>
      <trkpt lat="49.29169" lon="-0.1275">
        <ele>10.71</ele>
        <time>2016-08-12T14:49:21Z</time>
      </trkpt>
      <trkpt lat="49.29171" lon="-0.12757">
        <ele>10.23</ele>
        <time>2016-08-12T14:49:22Z</time>
      </trkpt>
      <trkpt lat="49.29172" lon="-0.12765">
        <ele>9.75</ele>
        <time>2016-08-12T14:49:23Z</time>
      </trkpt>
      <trkpt lat="49.29171" lon="-0.12772">
        <ele>9.27</ele>
        <time>2016-08-12T14:49:24Z</time>
      </trkpt>
      <trkpt lat="49.2917" lon="-0.12777">
        <ele>9.27</ele>
        <time>2016-08-12T14:49:25Z</time>
      </trkpt>
      <trkpt lat="49.29164" lon="-0.12802">
        <ele>8.79</ele>
        <time>2016-08-12T14:49:30Z</time>
      </trkpt>
      <trkpt lat="49.29162" lon="-0.12808">
        <ele>8.79</ele>
        <time>2016-08-12T14:49:31Z</time>
      </trkpt>
      <trkpt lat="49.29155" lon="-0.12844">
        <ele>7.83</ele>
        <time>2016-08-12T14:49:36Z</time>
      </trkpt>
      <trkpt lat="49.29142" lon="-0.12908">
        <ele>7.83</ele>
        <time>2016-08-12T14:49:45Z</time>
      </trkpt>
      <trkpt lat="49.29141" lon="-0.12915">
        <ele>7.35</ele>
        <time>2016-08-12T14:49:46Z</time>
      </trkpt>
      <trkpt lat="49.29139" lon="-0.12922">
        <ele>7.35</ele>
        <time>2016-08-12T14:49:47Z</time>
      </trkpt>
      <trkpt lat="49.29136" lon="-0.12937">
        <ele>7.35</ele>
        <time>2016-08-12T14:49:49Z</time>
      </trkpt>
      <trkpt lat="49.29122" lon="-0.13007">
        <ele>6.87</ele>
        <time>2016-08-12T14:49:58Z</time>
      </trkpt>
      <trkpt lat="49.29098" lon="-0.13148">
        <ele>6.39</ele>
        <time>2016-08-12T14:50:14Z</time>
      </trkpt>
      <trkpt lat="49.29087" lon="-0.13201">
        <ele>5.91</ele>
        <time>2016-08-12T14:50:21Z</time>
      </trkpt>
      <trkpt lat="49.29087" lon="-0.13208">
        <ele>5.91</ele>
        <time>2016-08-12T14:50:22Z</time>
      </trkpt>
      <trkpt lat="49.29086" lon="-0.13216">
        <ele>5.91</ele>
        <time>2016-08-12T14:50:23Z</time>
      </trkpt>
      <trkpt lat="49.29084" lon="-0.13224">
        <ele>5.42</ele>
        <time>2016-08-12T14:50:24Z</time>
      </trkpt>
      <trkpt lat="49.29082" lon="-0.13232">
        <ele>5.91</ele>
        <time>2016-08-12T14:50:25Z</time>
      </trkpt>
      <trkpt lat="49.2908" lon="-0.1324">
        <ele>5.91</ele>
        <time>2016-08-12T14:50:26Z</time>
      </trkpt>
      <trkpt lat="49.29079" lon="-0.13248">
        <ele>5.91</ele>
        <time>2016-08-12T14:50:27Z</time>
      </trkpt>
      <trkpt lat="49.29072" lon="-0.13293">
        <ele>5.42</ele>
        <time>2016-08-12T14:50:32Z</time>
      </trkpt>
      <trkpt lat="49.29045" lon="-0.1346">
        <ele>5.91</ele>
        <time>2016-08-12T14:50:49Z</time>
      </trkpt>
      <trkpt lat="49.29013" lon="-0.13642">
        <ele>5.91</ele>
        <time>2016-08-12T14:51:08Z</time>
      </trkpt>
      <trkpt lat="49.29006" lon="-0.13681">
        <ele>6.87</ele>
        <time>2016-08-12T14:51:16Z</time>
      </trkpt>
      <trkpt lat="49.29" lon="-0.1371">
        <ele>6.87</ele>
        <time>2016-08-12T14:51:21Z</time>
      </trkpt>
      <trkpt lat="49.2898" lon="-0.13825">
        <ele>6.39</ele>
        <time>2016-08-12T14:51:34Z</time>
      </trkpt>
      <trkpt lat="49.28968" lon="-0.13881">
        <ele>6.39</ele>
        <time>2016-08-12T14:51:43Z</time>
      </trkpt>
      <trkpt lat="49.28966" lon="-0.13882">
        <ele>6.39</ele>
        <time>2016-08-12T14:51:44Z</time>
      </trkpt>
      <trkpt lat="49.28965" lon="-0.13885">
        <ele>6.87</ele>
        <time>2016-08-12T14:51:45Z</time>
      </trkpt>
      <trkpt lat="49.28964" lon="-0.13889">
        <ele>6.87</ele>
        <time>2016-08-12T14:51:46Z</time>
      </trkpt>
      <trkpt lat="49.28962" lon="-0.13892">
        <ele>6.87</ele>
        <time>2016-08-12T14:51:47Z</time>
      </trkpt>
      <trkpt lat="49.28958" lon="-0.13907">
        <ele>8.31</ele>
        <time>2016-08-12T14:51:52Z</time>
      </trkpt>
      <trkpt lat="49.28959" lon="-0.1391">
        <ele>8.31</ele>
        <time>2016-08-12T14:51:53Z</time>
      </trkpt>
      <trkpt lat="49.2896" lon="-0.13913">
        <ele>8.31</ele>
        <time>2016-08-12T14:51:54Z</time>
      </trkpt>
      <trkpt lat="49.28961" lon="-0.13915">
        <ele>8.31</ele>
        <time>2016-08-12T14:51:55Z</time>
      </trkpt>
      <trkpt lat="49.28963" lon="-0.13917">
        <ele>8.31</ele>
        <time>2016-08-12T14:51:56Z</time>
      </trkpt>
      <trkpt lat="49.28964" lon="-0.1392">
        <ele>8.31</ele>
        <time>2016-08-12T14:51:57Z</time>
      </trkpt>
      <trkpt lat="49.28964" lon="-0.13923">
        <ele>8.31</ele>
        <time>2016-08-12T14:51:58Z</time>
      </trkpt>
      <trkpt lat="49.28965" lon="-0.13926">
        <ele>7.83</ele>
        <time>2016-08-12T14:51:59Z</time>
      </trkpt>
      <trkpt lat="49.28964" lon="-0.13929">
        <ele>7.83</ele>
        <time>2016-08-12T14:52:00Z</time>
      </trkpt>
      <trkpt lat="49.28963" lon="-0.13933">
        <ele>7.83</ele>
        <time>2016-08-12T14:52:01Z</time>
      </trkpt>
      <trkpt lat="49.28961" lon="-0.13934">
        <ele>7.83</ele>
        <time>2016-08-12T14:52:02Z</time>
      </trkpt>
      <trkpt lat="49.28958" lon="-0.13935">
        <ele>7.83</ele>
        <time>2016-08-12T14:52:03Z</time>
      </trkpt>
      <trkpt lat="49.28955" lon="-0.13935">
        <ele>7.83</ele>
        <time>2016-08-12T14:52:04Z</time>
      </trkpt>
      <trkpt lat="49.28951" lon="-0.13935">
        <ele>7.83</ele>
        <time>2016-08-12T14:52:05Z</time>
      </trkpt>
      <trkpt lat="49.28947" lon="-0.13934">
        <ele>8.31</ele>
        <time>2016-08-12T14:52:06Z</time>
      </trkpt>
      <trkpt lat="49.28934" lon="-0.13932">
        <ele>8.31</ele>
        <time>2016-08-12T14:52:09Z</time>
      </trkpt>
      <trkpt lat="49.28929" lon="-0.13932">
        <ele>8.31</ele>
        <time>2016-08-12T14:52:10Z</time>
      </trkpt>
      <trkpt lat="49.28925" lon="-0.13932">
        <ele>8.31</ele>
        <time>2016-08-12T14:52:11Z</time>
      </trkpt>
      <trkpt lat="49.28901" lon="-0.13933">
        <ele>7.35</ele>
        <time>2016-08-12T14:52:17Z</time>
      </trkpt>
      <trkpt lat="49.28896" lon="-0.13933">
        <ele>7.35</ele>
        <time>2016-08-12T14:52:18Z</time>
      </trkpt>
      <trkpt lat="49.28891" lon="-0.13933">
        <ele>7.35</ele>
        <time>2016-08-12T14:52:19Z</time>
      </trkpt>
      <trkpt lat="49.28885" lon="-0.13934">
        <ele>6.87</ele>
        <time>2016-08-12T14:52:20Z</time>
      </trkpt>
      <trkpt lat="49.28879" lon="-0.13936">
        <ele>6.39</ele>
        <time>2016-08-12T14:52:21Z</time>
      </trkpt>
      <trkpt lat="49.28873" lon="-0.13936">
        <ele>5.91</ele>
        <time>2016-08-12T14:52:22Z</time>
      </trkpt>
      <trkpt lat="49.28866" lon="-0.13935">
        <ele>5.91</ele>
        <time>2016-08-12T14:52:23Z</time>
      </trkpt>
      <trkpt lat="49.28859" lon="-0.13936">
        <ele>5.42</ele>
        <time>2016-08-12T14:52:24Z</time>
      </trkpt>
      <trkpt lat="49.28813" lon="-0.13937">
        <ele>4.94</ele>
        <time>2016-08-12T14:52:31Z</time>
      </trkpt>
      <trkpt lat="49.28807" lon="-0.13937">
        <ele>4.94</ele>
        <time>2016-08-12T14:52:32Z</time>
      </trkpt>
      <trkpt lat="49.28794" lon="-0.13937">
        <ele>4.94</ele>
        <time>2016-08-12T14:52:34Z</time>
      </trkpt>
      <trkpt lat="49.28711" lon="-0.13943">
        <ele>4.94</ele>
        <time>2016-08-12T14:52:48Z</time>
      </trkpt>
      <trkpt lat="49.28635" lon="-0.13944">
        <ele>5.42</ele>
        <time>2016-08-12T14:53:01Z</time>
      </trkpt>
      <trkpt lat="49.28598" lon="-0.13945">
        <ele>5.91</ele>
        <time>2016-08-12T14:53:07Z</time>
      </trkpt>
      <trkpt lat="49.28592" lon="-0.13944">
        <ele>5.91</ele>
        <time>2016-08-12T14:53:08Z</time>
      </trkpt>
      <trkpt lat="49.28586" lon="-0.13945">
        <ele>5.91</ele>
        <time>2016-08-12T14:53:09Z</time>
      </trkpt>
      <trkpt lat="49.28574" lon="-0.13947">
        <ele>5.42</ele>
        <time>2016-08-12T14:53:11Z</time>
      </trkpt>
      <trkpt lat="49.28563" lon="-0.13946">
        <ele>5.42</ele>
        <time>2016-08-12T14:53:13Z</time>
      </trkpt>
      <trkpt lat="49.28558" lon="-0.13946">
        <ele>5.42</ele>
        <time>2016-08-12T14:53:14Z</time>
      </trkpt>
      <trkpt lat="49.28554" lon="-0.13946">
        <ele>5.42</ele>
        <time>2016-08-12T14:53:15Z</time>
      </trkpt>
      <trkpt lat="49.28552" lon="-0.13947">
        <ele>5.42</ele>
        <time>2016-08-12T14:53:16Z</time>
      </trkpt>
      <trkpt lat="49.28551" lon="-0.1395">
        <ele>5.42</ele>
        <time>2016-08-12T14:53:27Z</time>
      </trkpt>
      <trkpt lat="49.2855" lon="-0.13951">
        <ele>5.42</ele>
        <time>2016-08-12T14:53:28Z</time>
      </trkpt>
      <trkpt lat="49.28547" lon="-0.13966">
        <ele>5.42</ele>
        <time>2016-08-12T14:53:31Z</time>
      </trkpt>
      <trkpt lat="49.28547" lon="-0.13973">
        <ele>4.94</ele>
        <time>2016-08-12T14:53:32Z</time>
      </trkpt>
      <trkpt lat="49.28544" lon="-0.14103">
        <ele>3.5</ele>
        <time>2016-08-12T14:53:46Z</time>
      </trkpt>
      <trkpt lat="49.28525" lon="-0.14239">
        <ele>3.98</ele>
        <time>2016-08-12T14:54:00Z</time>
      </trkpt>
      <trkpt lat="49.28504" lon="-0.14386">
        <ele>3.5</ele>
        <time>2016-08-12T14:54:15Z</time>
      </trkpt>
      <trkpt lat="49.28474" lon="-0.14528">
        <ele>3.02</ele>
        <time>2016-08-12T14:54:29Z</time>
      </trkpt>
      <trkpt lat="49.28461" lon="-0.1469">
        <ele>3.98</ele>
        <time>2016-08-12T14:54:44Z</time>
      </trkpt>
      <trkpt lat="49.28451" lon="-0.14842">
        <ele>3.5</ele>
        <time>2016-08-12T14:54:59Z</time>
      </trkpt>
      <trkpt lat="49.28442" lon="-0.14982">
        <ele>3.5</ele>
        <time>2016-08-12T14:55:13Z</time>
      </trkpt>
      <trkpt lat="49.28436" lon="-0.15084">
        <ele>3.5</ele>
        <time>2016-08-12T14:55:23Z</time>
      </trkpt>
      <trkpt lat="49.28438" lon="-0.15255">
        <ele>3.5</ele>
        <time>2016-08-12T14:55:40Z</time>
      </trkpt>
      <trkpt lat="49.28444" lon="-0.15413">
        <ele>4.94</ele>
        <time>2016-08-12T14:55:56Z</time>
      </trkpt>
      <trkpt lat="49.2845" lon="-0.15585">
        <ele>5.42</ele>
        <time>2016-08-12T14:56:13Z</time>
      </trkpt>
      <trkpt lat="49.28455" lon="-0.15743">
        <ele>5.42</ele>
        <time>2016-08-12T14:56:28Z</time>
      </trkpt>
      <trkpt lat="49.28458" lon="-0.15836">
        <ele>5.42</ele>
        <time>2016-08-12T14:56:37Z</time>
      </trkpt>
      <trkpt lat="49.28458" lon="-0.15846">
        <ele>5.42</ele>
        <time>2016-08-12T14:56:38Z</time>
      </trkpt>
      <trkpt lat="49.28463" lon="-0.15979">
        <ele>5.42</ele>
        <time>2016-08-12T14:56:51Z</time>
      </trkpt>
      <trkpt lat="49.28468" lon="-0.16059">
        <ele>5.91</ele>
        <time>2016-08-12T14:56:59Z</time>
      </trkpt>
      <trkpt lat="49.28478" lon="-0.16189">
        <ele>4.94</ele>
        <time>2016-08-12T14:57:12Z</time>
      </trkpt>
      <trkpt lat="49.28468" lon="-0.16306">
        <ele>5.42</ele>
        <time>2016-08-12T14:57:24Z</time>
      </trkpt>
      <trkpt lat="49.28451" lon="-0.16479">
        <ele>4.46</ele>
        <time>2016-08-12T14:57:42Z</time>
      </trkpt>
      <trkpt lat="49.28448" lon="-0.16641">
        <ele>4.46</ele>
        <time>2016-08-12T14:57:58Z</time>
      </trkpt>
      <trkpt lat="49.2845" lon="-0.1666">
        <ele>3.5</ele>
        <time>2016-08-12T14:58:00Z</time>
      </trkpt>
      <trkpt lat="49.28449" lon="-0.16807">
        <ele>2.54</ele>
        <time>2016-08-12T14:58:14Z</time>
      </trkpt>
      <trkpt lat="49.28439" lon="-0.16886">
        <ele>3.02</ele>
        <time>2016-08-12T14:58:22Z</time>
      </trkpt>
      <trkpt lat="49.28439" lon="-0.16904">
        <ele>3.5</ele>
        <time>2016-08-12T14:58:24Z</time>
      </trkpt>
      <trkpt lat="49.28437" lon="-0.17048">
        <ele>3.98</ele>
        <time>2016-08-12T14:58:38Z</time>
      </trkpt>
      <trkpt lat="49.28457" lon="-0.17221">
        <ele>3.98</ele>
        <time>2016-08-12T14:58:55Z</time>
      </trkpt>
      <trkpt lat="49.28479" lon="-0.17397">
        <ele>3.02</ele>
        <time>2016-08-12T14:59:13Z</time>
      </trkpt>
      <trkpt lat="49.28491" lon="-0.17505">
        <ele>2.06</ele>
        <time>2016-08-12T14:59:24Z</time>
      </trkpt>
      <trkpt lat="49.285" lon="-0.1766">
        <ele>3.02</ele>
        <time>2016-08-12T14:59:40Z</time>
      </trkpt>
      <trkpt lat="49.28477" lon="-0.17812">
        <ele>3.5</ele>
        <time>2016-08-12T14:59:55Z</time>
      </trkpt>
      <trkpt lat="49.28472" lon="-0.17852">
        <ele>3.5</ele>
        <time>2016-08-12T14:59:59Z</time>
      </trkpt>
      <trkpt lat="49.2847" lon="-0.17862">
        <ele>3.02</ele>
        <time>2016-08-12T15:00:00Z</time>
      </trkpt>
      <trkpt lat="49.28463" lon="-0.17994">
        <ele>1.1</ele>
        <time>2016-08-12T15:00:12Z</time>
      </trkpt>
      <trkpt lat="49.28475" lon="-0.1817">
        <ele>0.14</ele>
        <time>2016-08-12T15:00:28Z</time>
      </trkpt>
      <trkpt lat="49.28485" lon="-0.18322">
        <ele>1.1</ele>
        <time>2016-08-12T15:00:43Z</time>
      </trkpt>
      <trkpt lat="49.28475" lon="-0.18483">
        <ele>3.02</ele>
        <time>2016-08-12T15:00:59Z</time>
      </trkpt>
      <trkpt lat="49.28441" lon="-0.18614">
        <ele>3.5</ele>
        <time>2016-08-12T15:01:13Z</time>
      </trkpt>
      <trkpt lat="49.28393" lon="-0.18749">
        <ele>4.94</ele>
        <time>2016-08-12T15:01:28Z</time>
      </trkpt>
      <trkpt lat="49.28353" lon="-0.18899">
        <ele>6.39</ele>
        <time>2016-08-12T15:01:44Z</time>
      </trkpt>
      <trkpt lat="49.28324" lon="-0.19058">
        <ele>4.94</ele>
        <time>2016-08-12T15:02:01Z</time>
      </trkpt>
      <trkpt lat="49.28294" lon="-0.19168">
        <ele>4.46</ele>
        <time>2016-08-12T15:02:14Z</time>
      </trkpt>
      <trkpt lat="49.28249" lon="-0.1929">
        <ele>4.46</ele>
        <time>2016-08-12T15:02:29Z</time>
      </trkpt>
      <trkpt lat="49.28196" lon="-0.19438">
        <ele>3.98</ele>
        <time>2016-08-12T15:02:47Z</time>
      </trkpt>
      <trkpt lat="49.28139" lon="-0.19602">
        <ele>3.02</ele>
        <time>2016-08-12T15:03:06Z</time>
      </trkpt>
      <trkpt lat="49.28138" lon="-0.19607">
        <ele>3.5</ele>
        <time>2016-08-12T15:03:12Z</time>
      </trkpt>
      <trkpt lat="49.28139" lon="-0.19604">
        <ele>3.02</ele>
        <time>2016-08-12T15:03:14Z</time>
      </trkpt>
      <trkpt lat="49.28139" lon="-0.19603">
        <ele>3.02</ele>
        <time>2016-08-12T15:03:15Z</time>
      </trkpt>
      <trkpt lat="49.2814" lon="-0.196">
        <ele>3.5</ele>
        <time>2016-08-12T15:03:27Z</time>
      </trkpt>
      <trkpt lat="49.28141" lon="-0.196">
        <ele>5.42</ele>
        <time>2016-08-12T15:03:55Z</time>
      </trkpt>
      <trkpt lat="49.2814" lon="-0.19601">
        <ele>5.42</ele>
        <time>2016-08-12T15:04:07Z</time>
      </trkpt>
      <trkpt lat="49.28132" lon="-0.19622">
        <ele>5.42</ele>
        <time>2016-08-12T15:04:20Z</time>
      </trkpt>
      <trkpt lat="49.28099" lon="-0.19715">
        <ele>4.94</ele>
        <time>2016-08-12T15:04:32Z</time>
      </trkpt>
      <trkpt lat="49.28076" lon="-0.19812">
        <ele>3.5</ele>
        <time>2016-08-12T15:04:43Z</time>
      </trkpt>
      <trkpt lat="49.28036" lon="-0.19954">
        <ele>3.5</ele>
        <time>2016-08-12T15:04:59Z</time>
      </trkpt>
      <trkpt lat="49.27987" lon="-0.20085">
        <ele>3.98</ele>
        <time>2016-08-12T15:05:14Z</time>
      </trkpt>
      <trkpt lat="49.27943" lon="-0.20198">
        <ele>4.94</ele>
        <time>2016-08-12T15:05:27Z</time>
      </trkpt>
      <trkpt lat="49.27939" lon="-0.20206">
        <ele>4.94</ele>
        <time>2016-08-12T15:05:28Z</time>
      </trkpt>
      <trkpt lat="49.27901" lon="-0.20311">
        <ele>4.94</ele>
        <time>2016-08-12T15:05:40Z</time>
      </trkpt>
      <trkpt lat="49.27889" lon="-0.20352">
        <ele>5.42</ele>
        <time>2016-08-12T15:05:50Z</time>
      </trkpt>
      <trkpt lat="49.27889" lon="-0.20363">
        <ele>4.46</ele>
        <time>2016-08-12T15:05:53Z</time>
      </trkpt>
      <trkpt lat="49.2789" lon="-0.2037">
        <ele>4.46</ele>
        <time>2016-08-12T15:05:54Z</time>
      </trkpt>
      <trkpt lat="49.27888" lon="-0.20377">
        <ele>4.46</ele>
        <time>2016-08-12T15:05:55Z</time>
      </trkpt>
      <trkpt lat="49.27885" lon="-0.20384">
        <ele>4.46</ele>
        <time>2016-08-12T15:05:56Z</time>
      </trkpt>
      <trkpt lat="49.2788" lon="-0.20389">
        <ele>4.46</ele>
        <time>2016-08-12T15:05:57Z</time>
      </trkpt>
      <trkpt lat="49.27876" lon="-0.20394">
        <ele>3.98</ele>
        <time>2016-08-12T15:05:58Z</time>
      </trkpt>
      <trkpt lat="49.27872" lon="-0.20401">
        <ele>3.98</ele>
        <time>2016-08-12T15:05:59Z</time>
      </trkpt>
      <trkpt lat="49.2787" lon="-0.20408">
        <ele>3.98</ele>
        <time>2016-08-12T15:06:00Z</time>
      </trkpt>
      <trkpt lat="49.27867" lon="-0.20416">
        <ele>3.5</ele>
        <time>2016-08-12T15:06:01Z</time>
      </trkpt>
      <trkpt lat="49.27864" lon="-0.20424">
        <ele>3.5</ele>
        <time>2016-08-12T15:06:02Z</time>
      </trkpt>
      <trkpt lat="49.2786" lon="-0.20432">
        <ele>3.5</ele>
        <time>2016-08-12T15:06:03Z</time>
      </trkpt>
      <trkpt lat="49.27857" lon="-0.2044">
        <ele>3.02</ele>
        <time>2016-08-12T15:06:04Z</time>
      </trkpt>
      <trkpt lat="49.27798" lon="-0.20543">
        <ele>3.02</ele>
        <time>2016-08-12T15:06:17Z</time>
      </trkpt>
      <trkpt lat="49.27705" lon="-0.20665">
        <ele>7.35</ele>
        <time>2016-08-12T15:06:34Z</time>
      </trkpt>
      <trkpt lat="49.27637" lon="-0.2078">
        <ele>7.83</ele>
        <time>2016-08-12T15:06:48Z</time>
      </trkpt>
      <trkpt lat="49.27576" lon="-0.2091">
        <ele>8.31</ele>
        <time>2016-08-12T15:07:02Z</time>
      </trkpt>
      <trkpt lat="49.27519" lon="-0.21071">
        <ele>7.35</ele>
        <time>2016-08-12T15:07:18Z</time>
      </trkpt>
      <trkpt lat="49.27478" lon="-0.21204">
        <ele>7.35</ele>
        <time>2016-08-12T15:07:31Z</time>
      </trkpt>
      <trkpt lat="49.27468" lon="-0.21235">
        <ele>6.87</ele>
        <time>2016-08-12T15:07:34Z</time>
      </trkpt>
      <trkpt lat="49.27419" lon="-0.21396">
        <ele>6.39</ele>
        <time>2016-08-12T15:07:50Z</time>
      </trkpt>
      <trkpt lat="49.27347" lon="-0.21537">
        <ele>5.91</ele>
        <time>2016-08-12T15:08:06Z</time>
      </trkpt>
      <trkpt lat="49.27282" lon="-0.21638">
        <ele>4.46</ele>
        <time>2016-08-12T15:08:19Z</time>
      </trkpt>
      <trkpt lat="49.27274" lon="-0.21651">
        <ele>4.46</ele>
        <time>2016-08-12T15:08:21Z</time>
      </trkpt>
      <trkpt lat="49.27197" lon="-0.21762">
        <ele>5.91</ele>
        <time>2016-08-12T15:08:37Z</time>
      </trkpt>
      <trkpt lat="49.27107" lon="-0.21889">
        <ele>5.42</ele>
        <time>2016-08-12T15:08:55Z</time>
      </trkpt>
      <trkpt lat="49.27022" lon="-0.21992">
        <ele>4.46</ele>
        <time>2016-08-12T15:09:10Z</time>
      </trkpt>
      <trkpt lat="49.27003" lon="-0.22005">
        <ele>3.98</ele>
        <time>2016-08-12T15:09:13Z</time>
      </trkpt>
      <trkpt lat="49.26961" lon="-0.22024">
        <ele>3.98</ele>
        <time>2016-08-12T15:09:19Z</time>
      </trkpt>
      <trkpt lat="49.26851" lon="-0.22056">
        <ele>1.58</ele>
        <time>2016-08-12T15:09:34Z</time>
      </trkpt>
      <trkpt lat="49.26749" lon="-0.22089">
        <ele>2.06</ele>
        <time>2016-08-12T15:09:48Z</time>
      </trkpt>
      <trkpt lat="49.26661" lon="-0.22151">
        <ele>3.02</ele>
        <time>2016-08-12T15:10:01Z</time>
      </trkpt>
      <trkpt lat="49.2659" lon="-0.22247">
        <ele>4.94</ele>
        <time>2016-08-12T15:10:14Z</time>
      </trkpt>
      <trkpt lat="49.26546" lon="-0.22374">
        <ele>5.91</ele>
        <time>2016-08-12T15:10:27Z</time>
      </trkpt>
      <trkpt lat="49.26538" lon="-0.22399">
        <ele>6.39</ele>
        <time>2016-08-12T15:10:30Z</time>
      </trkpt>
      <trkpt lat="49.26524" lon="-0.22464">
        <ele>5.91</ele>
        <time>2016-08-12T15:10:39Z</time>
      </trkpt>
      <trkpt lat="49.2652" lon="-0.22495">
        <ele>4.94</ele>
        <time>2016-08-12T15:10:45Z</time>
      </trkpt>
      <trkpt lat="49.26518" lon="-0.22496">
        <ele>4.94</ele>
        <time>2016-08-12T15:10:46Z</time>
      </trkpt>
      <trkpt lat="49.26517" lon="-0.22498">
        <ele>5.42</ele>
        <time>2016-08-12T15:10:47Z</time>
      </trkpt>
      <trkpt lat="49.26516" lon="-0.225">
        <ele>5.42</ele>
        <time>2016-08-12T15:10:48Z</time>
      </trkpt>
      <trkpt lat="49.26515" lon="-0.22503">
        <ele>5.42</ele>
        <time>2016-08-12T15:10:49Z</time>
      </trkpt>
      <trkpt lat="49.26514" lon="-0.22506">
        <ele>5.42</ele>
        <time>2016-08-12T15:10:50Z</time>
      </trkpt>
      <trkpt lat="49.26514" lon="-0.22509">
        <ele>4.94</ele>
        <time>2016-08-12T15:10:51Z</time>
      </trkpt>
      <trkpt lat="49.26507" lon="-0.2258">
        <ele>4.94</ele>
        <time>2016-08-12T15:11:00Z</time>
      </trkpt>
      <trkpt lat="49.26501" lon="-0.22632">
        <ele>3.98</ele>
        <time>2016-08-12T15:11:06Z</time>
      </trkpt>
      <trkpt lat="49.26499" lon="-0.22638">
        <ele>3.98</ele>
        <time>2016-08-12T15:11:07Z</time>
      </trkpt>
      <trkpt lat="49.26496" lon="-0.22642">
        <ele>3.98</ele>
        <time>2016-08-12T15:11:08Z</time>
      </trkpt>
      <trkpt lat="49.26493" lon="-0.22642">
        <ele>4.46</ele>
        <time>2016-08-12T15:11:09Z</time>
      </trkpt>
      <trkpt lat="49.2649" lon="-0.22641">
        <ele>4.94</ele>
        <time>2016-08-12T15:11:10Z</time>
      </trkpt>
      <trkpt lat="49.26488" lon="-0.22639">
        <ele>4.94</ele>
        <time>2016-08-12T15:11:11Z</time>
      </trkpt>
      <trkpt lat="49.26486" lon="-0.22638">
        <ele>5.42</ele>
        <time>2016-08-12T15:11:12Z</time>
      </trkpt>
      <trkpt lat="49.26485" lon="-0.22637">
        <ele>5.42</ele>
        <time>2016-08-12T15:11:13Z</time>
      </trkpt>
      <trkpt lat="49.26479" lon="-0.22637">
        <ele>5.42</ele>
        <time>2016-08-12T15:11:18Z</time>
      </trkpt>
      <trkpt lat="49.26476" lon="-0.22641">
        <ele>5.42</ele>
        <time>2016-08-12T15:11:19Z</time>
      </trkpt>
      <trkpt lat="49.26474" lon="-0.22646">
        <ele>5.42</ele>
        <time>2016-08-12T15:11:20Z</time>
      </trkpt>
      <trkpt lat="49.26472" lon="-0.22652">
        <ele>5.42</ele>
        <time>2016-08-12T15:11:21Z</time>
      </trkpt>
      <trkpt lat="49.26469" lon="-0.22658">
        <ele>5.42</ele>
        <time>2016-08-12T15:11:22Z</time>
      </trkpt>
      <trkpt lat="49.26465" lon="-0.22663">
        <ele>5.42</ele>
        <time>2016-08-12T15:11:23Z</time>
      </trkpt>
      <trkpt lat="49.26461" lon="-0.2267">
        <ele>5.42</ele>
        <time>2016-08-12T15:11:24Z</time>
      </trkpt>
      <trkpt lat="49.26458" lon="-0.22676">
        <ele>4.94</ele>
        <time>2016-08-12T15:11:25Z</time>
      </trkpt>
      <trkpt lat="49.26454" lon="-0.22683">
        <ele>4.94</ele>
        <time>2016-08-12T15:11:26Z</time>
      </trkpt>
      <trkpt lat="49.26452" lon="-0.2269">
        <ele>4.94</ele>
        <time>2016-08-12T15:11:27Z</time>
      </trkpt>
      <trkpt lat="49.26449" lon="-0.22698">
        <ele>4.94</ele>
        <time>2016-08-12T15:11:28Z</time>
      </trkpt>
      <trkpt lat="49.26447" lon="-0.22705">
        <ele>4.94</ele>
        <time>2016-08-12T15:11:29Z</time>
      </trkpt>
      <trkpt lat="49.26443" lon="-0.2272">
        <ele>4.94</ele>
        <time>2016-08-12T15:11:31Z</time>
      </trkpt>
      <trkpt lat="49.26441" lon="-0.22728">
        <ele>4.94</ele>
        <time>2016-08-12T15:11:32Z</time>
      </trkpt>
      <trkpt lat="49.26408" lon="-0.22803">
        <ele>4.46</ele>
        <time>2016-08-12T15:11:42Z</time>
      </trkpt>
      <trkpt lat="49.26375" lon="-0.22898">
        <ele>5.91</ele>
        <time>2016-08-12T15:11:53Z</time>
      </trkpt>
      <trkpt lat="49.26372" lon="-0.22907">
        <ele>5.91</ele>
        <time>2016-08-12T15:11:54Z</time>
      </trkpt>
      <trkpt lat="49.26345" lon="-0.22994">
        <ele>5.91</ele>
        <time>2016-08-12T15:12:04Z</time>
      </trkpt>
      <trkpt lat="49.26342" lon="-0.23021">
        <ele>5.91</ele>
        <time>2016-08-12T15:12:07Z</time>
      </trkpt>
      <trkpt lat="49.26333" lon="-0.23055">
        <ele>5.42</ele>
        <time>2016-08-12T15:12:11Z</time>
      </trkpt>
      <trkpt lat="49.26328" lon="-0.23073">
        <ele>4.94</ele>
        <time>2016-08-12T15:12:13Z</time>
      </trkpt>
      <trkpt lat="49.26325" lon="-0.23081">
        <ele>4.94</ele>
        <time>2016-08-12T15:12:14Z</time>
      </trkpt>
      <trkpt lat="49.26272" lon="-0.23188">
        <ele>6.87</ele>
        <time>2016-08-12T15:12:27Z</time>
      </trkpt>
      <trkpt lat="49.26213" lon="-0.23332">
        <ele>9.75</ele>
        <time>2016-08-12T15:12:44Z</time>
      </trkpt>
      <trkpt lat="49.26146" lon="-0.23481">
        <ele>10.71</ele>
        <time>2016-08-12T15:13:02Z</time>
      </trkpt>
      <trkpt lat="49.26082" lon="-0.23586">
        <ele>9.27</ele>
        <time>2016-08-12T15:13:16Z</time>
      </trkpt>
      <trkpt lat="49.2599" lon="-0.23665">
        <ele>8.31</ele>
        <time>2016-08-12T15:13:32Z</time>
      </trkpt>
      <trkpt lat="49.25896" lon="-0.23717">
        <ele>11.67</ele>
        <time>2016-08-12T15:13:48Z</time>
      </trkpt>
      <trkpt lat="49.25826" lon="-0.23793">
        <ele>15.04</ele>
        <time>2016-08-12T15:14:02Z</time>
      </trkpt>
      <trkpt lat="49.25757" lon="-0.23875">
        <ele>16.96</ele>
        <time>2016-08-12T15:14:17Z</time>
      </trkpt>
      <trkpt lat="49.25727" lon="-0.23907">
        <ele>16.48</ele>
        <time>2016-08-12T15:14:23Z</time>
      </trkpt>
      <trkpt lat="49.25723" lon="-0.23912">
        <ele>16</ele>
        <time>2016-08-12T15:14:24Z</time>
      </trkpt>
      <trkpt lat="49.25712" lon="-0.2392">
        <ele>15.52</ele>
        <time>2016-08-12T15:14:26Z</time>
      </trkpt>
      <trkpt lat="49.2564" lon="-0.23993">
        <ele>14.56</ele>
        <time>2016-08-12T15:14:40Z</time>
      </trkpt>
      <trkpt lat="49.25553" lon="-0.24087">
        <ele>16.96</ele>
        <time>2016-08-12T15:14:57Z</time>
      </trkpt>
      <trkpt lat="49.25465" lon="-0.24178">
        <ele>20.32</ele>
        <time>2016-08-12T15:15:14Z</time>
      </trkpt>
      <trkpt lat="49.2538" lon="-0.2423">
        <ele>24.17</ele>
        <time>2016-08-12T15:15:29Z</time>
      </trkpt>
      <trkpt lat="49.25254" lon="-0.24285">
        <ele>24.17</ele>
        <time>2016-08-12T15:15:49Z</time>
      </trkpt>
      <trkpt lat="49.25147" lon="-0.24355">
        <ele>22.73</ele>
        <time>2016-08-12T15:16:04Z</time>
      </trkpt>
      <trkpt lat="49.25023" lon="-0.24449">
        <ele>20.32</ele>
        <time>2016-08-12T15:16:21Z</time>
      </trkpt>
      <trkpt lat="49.24946" lon="-0.24531">
        <ele>21.77</ele>
        <time>2016-08-12T15:16:34Z</time>
      </trkpt>
      <trkpt lat="49.24867" lon="-0.24636">
        <ele>24.17</ele>
        <time>2016-08-12T15:16:50Z</time>
      </trkpt>
      <trkpt lat="49.2479" lon="-0.24755">
        <ele>26.09</ele>
        <time>2016-08-12T15:17:07Z</time>
      </trkpt>
      <trkpt lat="49.24713" lon="-0.24874">
        <ele>27.53</ele>
        <time>2016-08-12T15:17:24Z</time>
      </trkpt>
      <trkpt lat="49.24627" lon="-0.25008">
        <ele>28.02</ele>
        <time>2016-08-12T15:17:42Z</time>
      </trkpt>
      <trkpt lat="49.24538" lon="-0.25126">
        <ele>27.53</ele>
        <time>2016-08-12T15:17:58Z</time>
      </trkpt>
      <trkpt lat="49.24422" lon="-0.25214">
        <ele>27.53</ele>
        <time>2016-08-12T15:18:14Z</time>
      </trkpt>
      <trkpt lat="49.24265" lon="-0.25321">
        <ele>25.61</ele>
        <time>2016-08-12T15:18:33Z</time>
      </trkpt>
      <trkpt lat="49.24141" lon="-0.25405">
        <ele>25.61</ele>
        <time>2016-08-12T15:18:48Z</time>
      </trkpt>
      <trkpt lat="49.24043" lon="-0.25503">
        <ele>26.57</ele>
        <time>2016-08-12T15:19:02Z</time>
      </trkpt>
      <trkpt lat="49.23968" lon="-0.25646">
        <ele>27.05</ele>
        <time>2016-08-12T15:19:17Z</time>
      </trkpt>
      <trkpt lat="49.23928" lon="-0.25815">
        <ele>25.13</ele>
        <time>2016-08-12T15:19:31Z</time>
      </trkpt>
      <trkpt lat="49.23913" lon="-0.26016">
        <ele>18.88</ele>
        <time>2016-08-12T15:19:45Z</time>
      </trkpt>
      <trkpt lat="49.23928" lon="-0.26201">
        <ele>10.23</ele>
        <time>2016-08-12T15:19:55Z</time>
      </trkpt>
      <trkpt lat="49.23945" lon="-0.26308">
        <ele>6.87</ele>
        <time>2016-08-12T15:20:02Z</time>
      </trkpt>
      <trkpt lat="49.23946" lon="-0.26316">
        <ele>6.87</ele>
        <time>2016-08-12T15:20:03Z</time>
      </trkpt>
      <trkpt lat="49.23949" lon="-0.26323">
        <ele>6.87</ele>
        <time>2016-08-12T15:20:04Z</time>
      </trkpt>
      <trkpt lat="49.23954" lon="-0.26329">
        <ele>6.87</ele>
        <time>2016-08-12T15:20:05Z</time>
      </trkpt>
      <trkpt lat="49.23958" lon="-0.26336">
        <ele>6.39</ele>
        <time>2016-08-12T15:20:06Z</time>
      </trkpt>
      <trkpt lat="49.23963" lon="-0.26343">
        <ele>6.39</ele>
        <time>2016-08-12T15:20:07Z</time>
      </trkpt>
      <trkpt lat="49.23966" lon="-0.26352">
        <ele>6.39</ele>
        <time>2016-08-12T15:20:08Z</time>
      </trkpt>
      <trkpt lat="49.23967" lon="-0.26362">
        <ele>6.39</ele>
        <time>2016-08-12T15:20:09Z</time>
      </trkpt>
      <trkpt lat="49.23967" lon="-0.26372">
        <ele>6.39</ele>
        <time>2016-08-12T15:20:10Z</time>
      </trkpt>
      <trkpt lat="49.23967" lon="-0.26383">
        <ele>6.39</ele>
        <time>2016-08-12T15:20:11Z</time>
      </trkpt>
      <trkpt lat="49.23966" lon="-0.26394">
        <ele>6.39</ele>
        <time>2016-08-12T15:20:12Z</time>
      </trkpt>
      <trkpt lat="49.23967" lon="-0.26406">
        <ele>6.39</ele>
        <time>2016-08-12T15:20:13Z</time>
      </trkpt>
      <trkpt lat="49.2397" lon="-0.26417">
        <ele>6.39</ele>
        <time>2016-08-12T15:20:14Z</time>
      </trkpt>
      <trkpt lat="49.23974" lon="-0.26428">
        <ele>6.39</ele>
        <time>2016-08-12T15:20:15Z</time>
      </trkpt>
      <trkpt lat="49.23977" lon="-0.26439">
        <ele>6.39</ele>
        <time>2016-08-12T15:20:16Z</time>
      </trkpt>
      <trkpt lat="49.23991" lon="-0.26497">
        <ele>6.39</ele>
        <time>2016-08-12T15:20:21Z</time>
      </trkpt>
      <trkpt lat="49.24031" lon="-0.2667">
        <ele>7.35</ele>
        <time>2016-08-12T15:20:36Z</time>
      </trkpt>
      <trkpt lat="49.24049" lon="-0.2674">
        <ele>7.35</ele>
        <time>2016-08-12T15:20:43Z</time>
      </trkpt>
      <trkpt lat="49.24055" lon="-0.26755">
        <ele>7.35</ele>
        <time>2016-08-12T15:20:45Z</time>
      </trkpt>
      <trkpt lat="49.24057" lon="-0.26764">
        <ele>7.35</ele>
        <time>2016-08-12T15:20:46Z</time>
      </trkpt>
      <trkpt lat="49.24064" lon="-0.26795">
        <ele>6.87</ele>
        <time>2016-08-12T15:20:52Z</time>
      </trkpt>
      <trkpt lat="49.24066" lon="-0.268">
        <ele>6.39</ele>
        <time>2016-08-12T15:20:53Z</time>
      </trkpt>
      <trkpt lat="49.24068" lon="-0.26807">
        <ele>6.39</ele>
        <time>2016-08-12T15:20:54Z</time>
      </trkpt>
      <trkpt lat="49.24087" lon="-0.26884">
        <ele>5.42</ele>
        <time>2016-08-12T15:21:03Z</time>
      </trkpt>
      <trkpt lat="49.2409" lon="-0.2689">
        <ele>5.42</ele>
        <time>2016-08-12T15:21:04Z</time>
      </trkpt>
      <trkpt lat="49.24093" lon="-0.26895">
        <ele>5.42</ele>
        <time>2016-08-12T15:21:05Z</time>
      </trkpt>
      <trkpt lat="49.24096" lon="-0.26897">
        <ele>5.42</ele>
        <time>2016-08-12T15:21:06Z</time>
      </trkpt>
      <trkpt lat="49.24098" lon="-0.26899">
        <ele>5.42</ele>
        <time>2016-08-12T15:21:07Z</time>
      </trkpt>
      <trkpt lat="49.24099" lon="-0.26901">
        <ele>5.42</ele>
        <time>2016-08-12T15:21:08Z</time>
      </trkpt>
      <trkpt lat="49.24101" lon="-0.26903">
        <ele>5.42</ele>
        <time>2016-08-12T15:21:09Z</time>
      </trkpt>
      <trkpt lat="49.24102" lon="-0.26906">
        <ele>5.42</ele>
        <time>2016-08-12T15:21:10Z</time>
      </trkpt>
      <trkpt lat="49.24103" lon="-0.26911">
        <ele>5.42</ele>
        <time>2016-08-12T15:21:11Z</time>
      </trkpt>
      <trkpt lat="49.24105" lon="-0.26925">
        <ele>5.42</ele>
        <time>2016-08-12T15:21:14Z</time>
      </trkpt>
      <trkpt lat="49.24103" lon="-0.2693">
        <ele>4.94</ele>
        <time>2016-08-12T15:21:15Z</time>
      </trkpt>
      <trkpt lat="49.24102" lon="-0.26936">
        <ele>4.94</ele>
        <time>2016-08-12T15:21:16Z</time>
      </trkpt>
      <trkpt lat="49.24102" lon="-0.26943">
        <ele>4.94</ele>
        <time>2016-08-12T15:21:17Z</time>
      </trkpt>
      <trkpt lat="49.24102" lon="-0.26951">
        <ele>4.94</ele>
        <time>2016-08-12T15:21:18Z</time>
      </trkpt>
      <trkpt lat="49.24103" lon="-0.26959">
        <ele>4.94</ele>
        <time>2016-08-12T15:21:19Z</time>
      </trkpt>
      <trkpt lat="49.24105" lon="-0.26967">
        <ele>4.94</ele>
        <time>2016-08-12T15:21:20Z</time>
      </trkpt>
      <trkpt lat="49.24107" lon="-0.26976">
        <ele>4.94</ele>
        <time>2016-08-12T15:21:21Z</time>
      </trkpt>
      <trkpt lat="49.24109" lon="-0.26984">
        <ele>5.42</ele>
        <time>2016-08-12T15:21:22Z</time>
      </trkpt>
      <trkpt lat="49.24144" lon="-0.27135">
        <ele>3.98</ele>
        <time>2016-08-12T15:21:38Z</time>
      </trkpt>
      <trkpt lat="49.24174" lon="-0.27233">
        <ele>4.94</ele>
        <time>2016-08-12T15:21:50Z</time>
      </trkpt>
      <trkpt lat="49.24177" lon="-0.27239">
        <ele>4.94</ele>
        <time>2016-08-12T15:21:51Z</time>
      </trkpt>
      <trkpt lat="49.2418" lon="-0.27244">
        <ele>4.94</ele>
        <time>2016-08-12T15:21:52Z</time>
      </trkpt>
      <trkpt lat="49.24182" lon="-0.27248">
        <ele>4.94</ele>
        <time>2016-08-12T15:21:53Z</time>
      </trkpt>
      <trkpt lat="49.24185" lon="-0.27249">
        <ele>4.94</ele>
        <time>2016-08-12T15:21:54Z</time>
      </trkpt>
      <trkpt lat="49.24187" lon="-0.2725">
        <ele>4.94</ele>
        <time>2016-08-12T15:21:55Z</time>
      </trkpt>
      <trkpt lat="49.24192" lon="-0.27261">
        <ele>4.46</ele>
        <time>2016-08-12T15:22:04Z</time>
      </trkpt>
      <trkpt lat="49.24193" lon="-0.27274">
        <ele>4.46</ele>
        <time>2016-08-12T15:22:07Z</time>
      </trkpt>
      <trkpt lat="49.24193" lon="-0.27279">
        <ele>4.46</ele>
        <time>2016-08-12T15:22:08Z</time>
      </trkpt>
      <trkpt lat="49.24194" lon="-0.27285">
        <ele>3.98</ele>
        <time>2016-08-12T15:22:09Z</time>
      </trkpt>
      <trkpt lat="49.24195" lon="-0.2729">
        <ele>3.98</ele>
        <time>2016-08-12T15:22:10Z</time>
      </trkpt>
      <trkpt lat="49.24197" lon="-0.27295">
        <ele>3.98</ele>
        <time>2016-08-12T15:22:11Z</time>
      </trkpt>
      <trkpt lat="49.24199" lon="-0.27299">
        <ele>3.98</ele>
        <time>2016-08-12T15:22:12Z</time>
      </trkpt>
      <trkpt lat="49.2421" lon="-0.27318">
        <ele>3.98</ele>
        <time>2016-08-12T15:22:18Z</time>
      </trkpt>
      <trkpt lat="49.24213" lon="-0.27323">
        <ele>3.98</ele>
        <time>2016-08-12T15:22:19Z</time>
      </trkpt>
      <trkpt lat="49.24215" lon="-0.27327">
        <ele>3.98</ele>
        <time>2016-08-12T15:22:20Z</time>
      </trkpt>
      <trkpt lat="49.24222" lon="-0.27347">
        <ele>4.46</ele>
        <time>2016-08-12T15:22:26Z</time>
      </trkpt>
      <trkpt lat="49.24222" lon="-0.27351">
        <ele>4.94</ele>
        <time>2016-08-12T15:22:32Z</time>
      </trkpt>
      <trkpt lat="49.24223" lon="-0.27354">
        <ele>4.94</ele>
        <time>2016-08-12T15:22:33Z</time>
      </trkpt>
      <trkpt lat="49.24224" lon="-0.27358">
        <ele>4.46</ele>
        <time>2016-08-12T15:22:34Z</time>
      </trkpt>
      <trkpt lat="49.24225" lon="-0.27362">
        <ele>4.46</ele>
        <time>2016-08-12T15:22:35Z</time>
      </trkpt>
      <trkpt lat="49.24226" lon="-0.27367">
        <ele>3.98</ele>
        <time>2016-08-12T15:22:36Z</time>
      </trkpt>
      <trkpt lat="49.24228" lon="-0.27371">
        <ele>3.5</ele>
        <time>2016-08-12T15:22:37Z</time>
      </trkpt>
      <trkpt lat="49.24229" lon="-0.27374">
        <ele>3.02</ele>
        <time>2016-08-12T15:22:38Z</time>
      </trkpt>
      <trkpt lat="49.24237" lon="-0.27401">
        <ele>4.94</ele>
        <time>2016-08-12T15:22:47Z</time>
      </trkpt>
      <trkpt lat="49.24248" lon="-0.27435">
        <ele>7.35</ele>
        <time>2016-08-12T15:22:58Z</time>
      </trkpt>
      <trkpt lat="49.24255" lon="-0.2746">
        <ele>7.35</ele>
        <time>2016-08-12T15:23:08Z</time>
      </trkpt>
      <trkpt lat="49.2426" lon="-0.27477">
        <ele>7.35</ele>
        <time>2016-08-12T15:23:16Z</time>
      </trkpt>
      <trkpt lat="49.24262" lon="-0.27478">
        <ele>6.87</ele>
        <time>2016-08-12T15:23:17Z</time>
      </trkpt>
      <trkpt lat="49.24267" lon="-0.27477">
        <ele>6.87</ele>
        <time>2016-08-12T15:23:20Z</time>
      </trkpt>
      <trkpt lat="49.24269" lon="-0.27474">
        <ele>6.87</ele>
        <time>2016-08-12T15:23:21Z</time>
      </trkpt>
      <trkpt lat="49.2427" lon="-0.27471">
        <ele>6.87</ele>
        <time>2016-08-12T15:23:22Z</time>
      </trkpt>
      <trkpt lat="49.24275" lon="-0.27463">
        <ele>6.87</ele>
        <time>2016-08-12T15:23:25Z</time>
      </trkpt>
      <trkpt lat="49.24277" lon="-0.27463">
        <ele>6.87</ele>
        <time>2016-08-12T15:23:26Z</time>
      </trkpt>
      <trkpt lat="49.24279" lon="-0.27462">
        <ele>6.87</ele>
        <time>2016-08-12T15:23:27Z</time>
      </trkpt>
      <trkpt lat="49.24282" lon="-0.2746">
        <ele>6.87</ele>
        <time>2016-08-12T15:23:28Z</time>
      </trkpt>
      <trkpt lat="49.24284" lon="-0.27458">
        <ele>6.87</ele>
        <time>2016-08-12T15:23:29Z</time>
      </trkpt>
      <trkpt lat="49.24291" lon="-0.27453">
        <ele>6.87</ele>
        <time>2016-08-12T15:23:31Z</time>
      </trkpt>
      <trkpt lat="49.24338" lon="-0.27441">
        <ele>6.87</ele>
        <time>2016-08-12T15:23:40Z</time>
      </trkpt>
      <trkpt lat="49.24432" lon="-0.27379">
        <ele>6.87</ele>
        <time>2016-08-12T15:23:57Z</time>
      </trkpt>
      <trkpt lat="49.24531" lon="-0.27309">
        <ele>5.42</ele>
        <time>2016-08-12T15:24:14Z</time>
      </trkpt>
      <trkpt lat="49.24617" lon="-0.27241">
        <ele>5.42</ele>
        <time>2016-08-12T15:24:29Z</time>
      </trkpt>
      <trkpt lat="49.24706" lon="-0.27186">
        <ele>4.46</ele>
        <time>2016-08-12T15:24:44Z</time>
      </trkpt>
      <trkpt lat="49.24822" lon="-0.271">
        <ele>5.42</ele>
        <time>2016-08-12T15:25:04Z</time>
      </trkpt>
      <trkpt lat="49.2492" lon="-0.27025">
        <ele>5.91</ele>
        <time>2016-08-12T15:25:21Z</time>
      </trkpt>
      <trkpt lat="49.25005" lon="-0.26959">
        <ele>5.91</ele>
        <time>2016-08-12T15:25:36Z</time>
      </trkpt>
      <trkpt lat="49.25106" lon="-0.26882">
        <ele>4.94</ele>
        <time>2016-08-12T15:25:54Z</time>
      </trkpt>
      <trkpt lat="49.2519" lon="-0.26817">
        <ele>5.42</ele>
        <time>2016-08-12T15:26:09Z</time>
      </trkpt>
      <trkpt lat="49.2528" lon="-0.2675">
        <ele>5.42</ele>
        <time>2016-08-12T15:26:25Z</time>
      </trkpt>
      <trkpt lat="49.25368" lon="-0.26681">
        <ele>5.91</ele>
        <time>2016-08-12T15:26:41Z</time>
      </trkpt>
      <trkpt lat="49.25459" lon="-0.26597">
        <ele>5.42</ele>
        <time>2016-08-12T15:26:58Z</time>
      </trkpt>
      <trkpt lat="49.2556" lon="-0.26471">
        <ele>5.42</ele>
        <time>2016-08-12T15:27:18Z</time>
      </trkpt>
      <trkpt lat="49.25631" lon="-0.26346">
        <ele>5.42</ele>
        <time>2016-08-12T15:27:34Z</time>
      </trkpt>
      <trkpt lat="49.25644" lon="-0.26322">
        <ele>5.42</ele>
        <time>2016-08-12T15:27:37Z</time>
      </trkpt>
      <trkpt lat="49.25647" lon="-0.26313">
        <ele>5.42</ele>
        <time>2016-08-12T15:27:38Z</time>
      </trkpt>
      <trkpt lat="49.25657" lon="-0.26285">
        <ele>5.42</ele>
        <time>2016-08-12T15:27:41Z</time>
      </trkpt>
      <trkpt lat="49.25721" lon="-0.26108">
        <ele>5.42</ele>
        <time>2016-08-12T15:28:01Z</time>
      </trkpt>
      <trkpt lat="49.25775" lon="-0.25964">
        <ele>5.91</ele>
        <time>2016-08-12T15:28:18Z</time>
      </trkpt>
      <trkpt lat="49.25844" lon="-0.25836">
        <ele>5.42</ele>
        <time>2016-08-12T15:28:35Z</time>
      </trkpt>
      <trkpt lat="49.25859" lon="-0.25818">
        <ele>5.42</ele>
        <time>2016-08-12T15:28:38Z</time>
      </trkpt>
      <trkpt lat="49.25869" lon="-0.25806">
        <ele>5.91</ele>
        <time>2016-08-12T15:28:40Z</time>
      </trkpt>
      <trkpt lat="49.25946" lon="-0.25726">
        <ele>7.35</ele>
        <time>2016-08-12T15:28:55Z</time>
      </trkpt>
      <trkpt lat="49.26031" lon="-0.25646">
        <ele>6.39</ele>
        <time>2016-08-12T15:29:11Z</time>
      </trkpt>
      <trkpt lat="49.26105" lon="-0.25584">
        <ele>6.39</ele>
        <time>2016-08-12T15:29:25Z</time>
      </trkpt>
      <trkpt lat="49.26202" lon="-0.25514">
        <ele>6.39</ele>
        <time>2016-08-12T15:29:42Z</time>
      </trkpt>
      <trkpt lat="49.26286" lon="-0.25465">
        <ele>6.39</ele>
        <time>2016-08-12T15:29:56Z</time>
      </trkpt>
      <trkpt lat="49.26292" lon="-0.25461">
        <ele>6.39</ele>
        <time>2016-08-12T15:29:57Z</time>
      </trkpt>
      <trkpt lat="49.26316" lon="-0.25446">
        <ele>6.87</ele>
        <time>2016-08-12T15:30:01Z</time>
      </trkpt>
      <trkpt lat="49.26389" lon="-0.25408">
        <ele>6.87</ele>
        <time>2016-08-12T15:30:13Z</time>
      </trkpt>
      <trkpt lat="49.26496" lon="-0.2537">
        <ele>5.42</ele>
        <time>2016-08-12T15:30:30Z</time>
      </trkpt>
      <trkpt lat="49.26576" lon="-0.25348">
        <ele>5.42</ele>
        <time>2016-08-12T15:30:43Z</time>
      </trkpt>
      <trkpt lat="49.267" lon="-0.25313">
        <ele>5.91</ele>
        <time>2016-08-12T15:31:03Z</time>
      </trkpt>
      <trkpt lat="49.26792" lon="-0.25288">
        <ele>5.91</ele>
        <time>2016-08-12T15:31:18Z</time>
      </trkpt>
      <trkpt lat="49.26882" lon="-0.25265">
        <ele>5.91</ele>
        <time>2016-08-12T15:31:33Z</time>
      </trkpt>
      <trkpt lat="49.26894" lon="-0.25261">
        <ele>5.91</ele>
        <time>2016-08-12T15:31:35Z</time>
      </trkpt>
      <trkpt lat="49.26984" lon="-0.25238">
        <ele>4.94</ele>
        <time>2016-08-12T15:31:50Z</time>
      </trkpt>
      <trkpt lat="49.27041" lon="-0.25221">
        <ele>4.94</ele>
        <time>2016-08-12T15:32:00Z</time>
      </trkpt>
      <trkpt lat="49.27045" lon="-0.25221">
        <ele>4.94</ele>
        <time>2016-08-12T15:32:01Z</time>
      </trkpt>
      <trkpt lat="49.2705" lon="-0.25221">
        <ele>4.94</ele>
        <time>2016-08-12T15:32:02Z</time>
      </trkpt>
      <trkpt lat="49.27053" lon="-0.2522">
        <ele>4.94</ele>
        <time>2016-08-12T15:32:03Z</time>
      </trkpt>
      <trkpt lat="49.27055" lon="-0.25218">
        <ele>4.46</ele>
        <time>2016-08-12T15:32:04Z</time>
      </trkpt>
      <trkpt lat="49.27057" lon="-0.25216">
        <ele>4.46</ele>
        <time>2016-08-12T15:32:05Z</time>
      </trkpt>
      <trkpt lat="49.27061" lon="-0.25216">
        <ele>4.46</ele>
        <time>2016-08-12T15:32:06Z</time>
      </trkpt>
      <trkpt lat="49.27066" lon="-0.25218">
        <ele>4.46</ele>
        <time>2016-08-12T15:32:07Z</time>
      </trkpt>
      <trkpt lat="49.27071" lon="-0.2522">
        <ele>4.46</ele>
        <time>2016-08-12T15:32:08Z</time>
      </trkpt>
      <trkpt lat="49.27076" lon="-0.25221">
        <ele>4.94</ele>
        <time>2016-08-12T15:32:09Z</time>
      </trkpt>
      <trkpt lat="49.27082" lon="-0.25223">
        <ele>4.94</ele>
        <time>2016-08-12T15:32:10Z</time>
      </trkpt>
      <trkpt lat="49.27088" lon="-0.25225">
        <ele>4.94</ele>
        <time>2016-08-12T15:32:11Z</time>
      </trkpt>
      <trkpt lat="49.27094" lon="-0.25227">
        <ele>5.42</ele>
        <time>2016-08-12T15:32:12Z</time>
      </trkpt>
      <trkpt lat="49.271" lon="-0.25229">
        <ele>5.42</ele>
        <time>2016-08-12T15:32:13Z</time>
      </trkpt>
      <trkpt lat="49.27106" lon="-0.25229">
        <ele>5.91</ele>
        <time>2016-08-12T15:32:14Z</time>
      </trkpt>
      <trkpt lat="49.27113" lon="-0.25228">
        <ele>5.42</ele>
        <time>2016-08-12T15:32:15Z</time>
      </trkpt>
      <trkpt lat="49.27119" lon="-0.25225">
        <ele>5.42</ele>
        <time>2016-08-12T15:32:16Z</time>
      </trkpt>
      <trkpt lat="49.27125" lon="-0.25223">
        <ele>4.94</ele>
        <time>2016-08-12T15:32:17Z</time>
      </trkpt>
      <trkpt lat="49.27131" lon="-0.25221">
        <ele>4.94</ele>
        <time>2016-08-12T15:32:18Z</time>
      </trkpt>
      <trkpt lat="49.2716" lon="-0.25215">
        <ele>4.94</ele>
        <time>2016-08-12T15:32:23Z</time>
      </trkpt>
      <trkpt lat="49.27165" lon="-0.25215">
        <ele>5.42</ele>
        <time>2016-08-12T15:32:24Z</time>
      </trkpt>
      <trkpt lat="49.27183" lon="-0.25217">
        <ele>4.46</ele>
        <time>2016-08-12T15:32:27Z</time>
      </trkpt>
      <trkpt lat="49.27188" lon="-0.25215">
        <ele>4.46</ele>
        <time>2016-08-12T15:32:28Z</time>
      </trkpt>
      <trkpt lat="49.27194" lon="-0.25214">
        <ele>4.46</ele>
        <time>2016-08-12T15:32:29Z</time>
      </trkpt>
      <trkpt lat="49.272" lon="-0.25212">
        <ele>4.46</ele>
        <time>2016-08-12T15:32:30Z</time>
      </trkpt>
      <trkpt lat="49.27205" lon="-0.25211">
        <ele>3.98</ele>
        <time>2016-08-12T15:32:31Z</time>
      </trkpt>
      <trkpt lat="49.27235" lon="-0.25205">
        <ele>3.98</ele>
        <time>2016-08-12T15:32:37Z</time>
      </trkpt>
      <trkpt lat="49.2724" lon="-0.25203">
        <ele>3.98</ele>
        <time>2016-08-12T15:32:38Z</time>
      </trkpt>
      <trkpt lat="49.27245" lon="-0.252">
        <ele>3.5</ele>
        <time>2016-08-12T15:32:39Z</time>
      </trkpt>
      <trkpt lat="49.27249" lon="-0.25197">
        <ele>3.5</ele>
        <time>2016-08-12T15:32:40Z</time>
      </trkpt>
      <trkpt lat="49.27253" lon="-0.25193">
        <ele>3.5</ele>
        <time>2016-08-12T15:32:41Z</time>
      </trkpt>
      <trkpt lat="49.27257" lon="-0.25189">
        <ele>3.5</ele>
        <time>2016-08-12T15:32:42Z</time>
      </trkpt>
      <trkpt lat="49.27261" lon="-0.25186">
        <ele>3.5</ele>
        <time>2016-08-12T15:32:43Z</time>
      </trkpt>
      <trkpt lat="49.27265" lon="-0.25183">
        <ele>3.5</ele>
        <time>2016-08-12T15:32:44Z</time>
      </trkpt>
      <trkpt lat="49.27269" lon="-0.2518">
        <ele>3.98</ele>
        <time>2016-08-12T15:32:45Z</time>
      </trkpt>
      <trkpt lat="49.27274" lon="-0.25179">
        <ele>3.5</ele>
        <time>2016-08-12T15:32:46Z</time>
      </trkpt>
      <trkpt lat="49.27279" lon="-0.25177">
        <ele>3.5</ele>
        <time>2016-08-12T15:32:47Z</time>
      </trkpt>
      <trkpt lat="49.27284" lon="-0.25176">
        <ele>3.5</ele>
        <time>2016-08-12T15:32:48Z</time>
      </trkpt>
      <trkpt lat="49.27383" lon="-0.25149">
        <ele>4.46</ele>
        <time>2016-08-12T15:33:06Z</time>
      </trkpt>
      <trkpt lat="49.2742" lon="-0.2514">
        <ele>3.98</ele>
        <time>2016-08-12T15:33:14Z</time>
      </trkpt>
      <trkpt lat="49.27424" lon="-0.2514">
        <ele>3.98</ele>
        <time>2016-08-12T15:33:15Z</time>
      </trkpt>
      <trkpt lat="49.27429" lon="-0.25139">
        <ele>4.46</ele>
        <time>2016-08-12T15:33:16Z</time>
      </trkpt>
      <trkpt lat="49.27439" lon="-0.25136">
        <ele>3.98</ele>
        <time>2016-08-12T15:33:18Z</time>
      </trkpt>
      <trkpt lat="49.27444" lon="-0.25134">
        <ele>3.5</ele>
        <time>2016-08-12T15:33:19Z</time>
      </trkpt>
      <trkpt lat="49.27534" lon="-0.25109">
        <ele>3.5</ele>
        <time>2016-08-12T15:33:34Z</time>
      </trkpt>
      <trkpt lat="49.276" lon="-0.25089">
        <ele>4.46</ele>
        <time>2016-08-12T15:33:46Z</time>
      </trkpt>
      <trkpt lat="49.277" lon="-0.25062">
        <ele>5.91</ele>
        <time>2016-08-12T15:34:03Z</time>
      </trkpt>
      <trkpt lat="49.27786" lon="-0.2504">
        <ele>5.91</ele>
        <time>2016-08-12T15:34:18Z</time>
      </trkpt>
      <trkpt lat="49.27827" lon="-0.25026">
        <ele>6.87</ele>
        <time>2016-08-12T15:34:26Z</time>
      </trkpt>
      <trkpt lat="49.27828" lon="-0.25021">
        <ele>6.87</ele>
        <time>2016-08-12T15:34:27Z</time>
      </trkpt>
      <trkpt lat="49.27828" lon="-0.25015">
        <ele>6.39</ele>
        <time>2016-08-12T15:34:29Z</time>
      </trkpt>
      <trkpt lat="49.27828" lon="-0.25013">
        <ele>6.39</ele>
        <time>2016-08-12T15:34:30Z</time>
      </trkpt>
      <trkpt lat="49.27827" lon="-0.2501">
        <ele>6.39</ele>
        <time>2016-08-12T15:34:31Z</time>
      </trkpt>
      <trkpt lat="49.27827" lon="-0.25008">
        <ele>6.39</ele>
        <time>2016-08-12T15:34:32Z</time>
      </trkpt>
      <trkpt lat="49.27827" lon="-0.25005">
        <ele>6.39</ele>
        <time>2016-08-12T15:34:33Z</time>
      </trkpt>
      <trkpt lat="49.27827" lon="-0.25002">
        <ele>6.39</ele>
        <time>2016-08-12T15:34:34Z</time>
      </trkpt>
      <trkpt lat="49.27826" lon="-0.25">
        <ele>6.39</ele>
        <time>2016-08-12T15:34:35Z</time>
      </trkpt>
      <trkpt lat="49.27826" lon="-0.24997">
        <ele>6.39</ele>
        <time>2016-08-12T15:34:36Z</time>
      </trkpt>
      <trkpt lat="49.27825" lon="-0.24995">
        <ele>5.91</ele>
        <time>2016-08-12T15:34:37Z</time>
      </trkpt>
      <trkpt lat="49.27824" lon="-0.2499">
        <ele>5.42</ele>
        <time>2016-08-12T15:34:39Z</time>
      </trkpt>
      <trkpt lat="49.27815" lon="-0.24968">
        <ele>5.42</ele>
        <time>2016-08-12T15:34:49Z</time>
      </trkpt>
      <trkpt lat="49.27815" lon="-0.24965">
        <ele>5.42</ele>
        <time>2016-08-12T15:34:50Z</time>
      </trkpt>
      <trkpt lat="49.27815" lon="-0.24962">
        <ele>4.94</ele>
        <time>2016-08-12T15:34:51Z</time>
      </trkpt>
      <trkpt lat="49.27815" lon="-0.24958">
        <ele>4.94</ele>
        <time>2016-08-12T15:34:52Z</time>
      </trkpt>
      <trkpt lat="49.27816" lon="-0.24955">
        <ele>4.94</ele>
        <time>2016-08-12T15:34:53Z</time>
      </trkpt>
      <trkpt lat="49.27816" lon="-0.24951">
        <ele>4.94</ele>
        <time>2016-08-12T15:34:54Z</time>
      </trkpt>
      <trkpt lat="49.27816" lon="-0.24947">
        <ele>5.42</ele>
        <time>2016-08-12T15:34:55Z</time>
      </trkpt>
      <trkpt lat="49.27817" lon="-0.24944">
        <ele>5.42</ele>
        <time>2016-08-12T15:34:56Z</time>
      </trkpt>
      <trkpt lat="49.27817" lon="-0.24941">
        <ele>5.42</ele>
        <time>2016-08-12T15:34:57Z</time>
      </trkpt>
      <trkpt lat="49.27818" lon="-0.24937">
        <ele>5.42</ele>
        <time>2016-08-12T15:34:58Z</time>
      </trkpt>
      <trkpt lat="49.2782" lon="-0.24933">
        <ele>4.94</ele>
        <time>2016-08-12T15:34:59Z</time>
      </trkpt>
      <trkpt lat="49.27822" lon="-0.2493">
        <ele>4.94</ele>
        <time>2016-08-12T15:35:00Z</time>
      </trkpt>
      <trkpt lat="49.27826" lon="-0.24928">
        <ele>4.94</ele>
        <time>2016-08-12T15:35:01Z</time>
      </trkpt>
      <trkpt lat="49.27829" lon="-0.24926">
        <ele>4.46</ele>
        <time>2016-08-12T15:35:02Z</time>
      </trkpt>
      <trkpt lat="49.27833" lon="-0.24925">
        <ele>4.46</ele>
        <time>2016-08-12T15:35:03Z</time>
      </trkpt>
      <trkpt lat="49.27847" lon="-0.24919">
        <ele>4.94</ele>
        <time>2016-08-12T15:35:07Z</time>
      </trkpt>
      <trkpt lat="49.27848" lon="-0.24917">
        <ele>4.94</ele>
        <time>2016-08-12T15:35:08Z</time>
      </trkpt>
      <trkpt lat="49.2785" lon="-0.24915">
        <ele>4.94</ele>
        <time>2016-08-12T15:35:09Z</time>
      </trkpt>
      <trkpt lat="49.27851" lon="-0.24914">
        <ele>4.94</ele>
        <time>2016-08-12T15:35:10Z</time>
      </trkpt>
      <trkpt lat="49.27852" lon="-0.24911">
        <ele>5.91</ele>
        <time>2016-08-12T15:35:22Z</time>
      </trkpt>
      <trkpt lat="49.27852" lon="-0.24911">
        <ele>5.42</ele>
        <time>2016-08-12T15:35:40Z</time>
      </trkpt>
      <trkpt lat="49.27854" lon="-0.2491">
        <ele>6.39</ele>
        <time>2016-08-12T15:36:03Z</time>
      </trkpt>
      <trkpt lat="49.27854" lon="-0.24907">
        <ele>6.39</ele>
        <time>2016-08-12T15:36:04Z</time>
      </trkpt>
      <trkpt lat="49.27855" lon="-0.24904">
        <ele>5.91</ele>
        <time>2016-08-12T15:36:05Z</time>
      </trkpt>
      <trkpt lat="49.27854" lon="-0.24899">
        <ele>5.42</ele>
        <time>2016-08-12T15:36:06Z</time>
      </trkpt>
      <trkpt lat="49.27853" lon="-0.24894">
        <ele>4.94</ele>
        <time>2016-08-12T15:36:07Z</time>
      </trkpt>
      <trkpt lat="49.27852" lon="-0.24888">
        <ele>4.46</ele>
        <time>2016-08-12T15:36:08Z</time>
      </trkpt>
      <trkpt lat="49.27852" lon="-0.24882">
        <ele>4.46</ele>
        <time>2016-08-12T15:36:09Z</time>
      </trkpt>
      <trkpt lat="49.27851" lon="-0.24875">
        <ele>4.46</ele>
        <time>2016-08-12T15:36:10Z</time>
      </trkpt>
      <trkpt lat="49.2785" lon="-0.24851">
        <ele>4.94</ele>
        <time>2016-08-12T15:36:14Z</time>
      </trkpt>
      <trkpt lat="49.27852" lon="-0.24846">
        <ele>4.94</ele>
        <time>2016-08-12T15:36:15Z</time>
      </trkpt>
      <trkpt lat="49.27856" lon="-0.24843">
        <ele>4.94</ele>
        <time>2016-08-12T15:36:16Z</time>
      </trkpt>
      <trkpt lat="49.27861" lon="-0.24842">
        <ele>4.94</ele>
        <time>2016-08-12T15:36:17Z</time>
      </trkpt>
      <trkpt lat="49.27866" lon="-0.24841">
        <ele>4.94</ele>
        <time>2016-08-12T15:36:18Z</time>
      </trkpt>
      <trkpt lat="49.27886" lon="-0.24834">
        <ele>4.46</ele>
        <time>2016-08-12T15:36:22Z</time>
      </trkpt>
      <trkpt lat="49.2789" lon="-0.24831">
        <ele>4.46</ele>
        <time>2016-08-12T15:36:23Z</time>
      </trkpt>
      <trkpt lat="49.27893" lon="-0.24826">
        <ele>4.94</ele>
        <time>2016-08-12T15:36:24Z</time>
      </trkpt>
      <trkpt lat="49.27895" lon="-0.24821">
        <ele>4.94</ele>
        <time>2016-08-12T15:36:25Z</time>
      </trkpt>
      <trkpt lat="49.27896" lon="-0.24816">
        <ele>4.94</ele>
        <time>2016-08-12T15:36:26Z</time>
      </trkpt>
      <trkpt lat="49.27897" lon="-0.24812">
        <ele>4.94</ele>
        <time>2016-08-12T15:36:27Z</time>
      </trkpt>
      <trkpt lat="49.27898" lon="-0.24807">
        <ele>4.94</ele>
        <time>2016-08-12T15:36:28Z</time>
      </trkpt>
      <trkpt lat="49.27897" lon="-0.24802">
        <ele>4.94</ele>
        <time>2016-08-12T15:36:29Z</time>
      </trkpt>
      <trkpt lat="49.27896" lon="-0.24798">
        <ele>5.42</ele>
        <time>2016-08-12T15:36:30Z</time>
      </trkpt>
      <trkpt lat="49.27895" lon="-0.24795">
        <ele>5.42</ele>
        <time>2016-08-12T15:36:31Z</time>
      </trkpt>
      <trkpt lat="49.27894" lon="-0.24791">
        <ele>5.42</ele>
        <time>2016-08-12T15:36:32Z</time>
      </trkpt>
      <trkpt lat="49.27895" lon="-0.24788">
        <ele>5.42</ele>
        <time>2016-08-12T15:36:33Z</time>
      </trkpt>
      <trkpt lat="49.27897" lon="-0.24784">
        <ele>5.42</ele>
        <time>2016-08-12T15:36:34Z</time>
      </trkpt>
      <trkpt lat="49.279" lon="-0.24781">
        <ele>5.42</ele>
        <time>2016-08-12T15:36:35Z</time>
      </trkpt>
      <trkpt lat="49.27903" lon="-0.24777">
        <ele>4.94</ele>
        <time>2016-08-12T15:36:36Z</time>
      </trkpt>
      <trkpt lat="49.27906" lon="-0.24774">
        <ele>4.94</ele>
        <time>2016-08-12T15:36:37Z</time>
      </trkpt>
      <trkpt lat="49.2791" lon="-0.24771">
        <ele>4.94</ele>
        <time>2016-08-12T15:36:38Z</time>
      </trkpt>
      <trkpt lat="49.27915" lon="-0.2477">
        <ele>4.94</ele>
        <time>2016-08-12T15:36:39Z</time>
      </trkpt>
      <trkpt lat="49.2792" lon="-0.24768">
        <ele>4.94</ele>
        <time>2016-08-12T15:36:40Z</time>
      </trkpt>
      <trkpt lat="49.27963" lon="-0.24754">
        <ele>5.42</ele>
        <time>2016-08-12T15:36:49Z</time>
      </trkpt>
      <trkpt lat="49.27968" lon="-0.24752">
        <ele>5.42</ele>
        <time>2016-08-12T15:36:50Z</time>
      </trkpt>
      <trkpt lat="49.27997" lon="-0.24742">
        <ele>5.91</ele>
        <time>2016-08-12T15:36:56Z</time>
      </trkpt>
      <trkpt lat="49.28033" lon="-0.24728">
        <ele>5.91</ele>
        <time>2016-08-12T15:37:05Z</time>
      </trkpt>
      <trkpt lat="49.28037" lon="-0.24726">
        <ele>5.42</ele>
        <time>2016-08-12T15:37:06Z</time>
      </trkpt>
      <trkpt lat="49.281" lon="-0.24709">
        <ele>3.5</ele>
        <time>2016-08-12T15:37:19Z</time>
      </trkpt>
      <trkpt lat="49.2813" lon="-0.24698">
        <ele>3.5</ele>
        <time>2016-08-12T15:37:31Z</time>
      </trkpt>
      <trkpt lat="49.28131" lon="-0.24698">
        <ele>3.98</ele>
        <time>2016-08-12T15:37:46Z</time>
      </trkpt>
      <trkpt lat="49.28133" lon="-0.24698">
        <ele>4.46</ele>
        <time>2016-08-12T15:37:53Z</time>
      </trkpt>
      <trkpt lat="49.28134" lon="-0.24699">
        <ele>4.46</ele>
        <time>2016-08-12T15:37:54Z</time>
      </trkpt>
      <trkpt lat="49.28136" lon="-0.24698">
        <ele>4.46</ele>
        <time>2016-08-12T15:37:55Z</time>
      </trkpt>
      <trkpt lat="49.28171" lon="-0.2469">
        <ele>4.46</ele>
        <time>2016-08-12T15:38:04Z</time>
      </trkpt>
      <trkpt lat="49.28197" lon="-0.24682">
        <ele>4.46</ele>
        <time>2016-08-12T15:38:10Z</time>
      </trkpt>
      <trkpt lat="49.28245" lon="-0.24669">
        <ele>4.46</ele>
        <time>2016-08-12T15:38:24Z</time>
      </trkpt>
      <trkpt lat="49.28288" lon="-0.24666">
        <ele>4.46</ele>
        <time>2016-08-12T15:38:37Z</time>
      </trkpt>
      <trkpt lat="49.28292" lon="-0.24665">
        <ele>4.46</ele>
        <time>2016-08-12T15:38:39Z</time>
      </trkpt>
      <trkpt lat="49.28292" lon="-0.24667">
        <ele>5.42</ele>
        <time>2016-08-12T15:38:45Z</time>
      </trkpt>
      <trkpt lat="49.28291" lon="-0.24668">
        <ele>5.42</ele>
        <time>2016-08-12T15:38:46Z</time>
      </trkpt>
      <trkpt lat="49.28289" lon="-0.24667">
        <ele>5.42</ele>
        <time>2016-08-12T15:38:47Z</time>
      </trkpt>
      <trkpt lat="49.28287" lon="-0.24667">
        <ele>4.94</ele>
        <time>2016-08-12T15:38:48Z</time>
      </trkpt>
      <trkpt lat="49.28285" lon="-0.24666">
        <ele>4.94</ele>
        <time>2016-08-12T15:38:49Z</time>
      </trkpt>
      <trkpt lat="49.28282" lon="-0.24666">
        <ele>4.46</ele>
        <time>2016-08-12T15:38:50Z</time>
      </trkpt>
      <trkpt lat="49.28278" lon="-0.24666">
        <ele>3.98</ele>
        <time>2016-08-12T15:38:51Z</time>
      </trkpt>
      <trkpt lat="49.28273" lon="-0.24666">
        <ele>3.02</ele>
        <time>2016-08-12T15:38:52Z</time>
      </trkpt>
      <trkpt lat="49.28263" lon="-0.24666">
        <ele>2.06</ele>
        <time>2016-08-12T15:38:54Z</time>
      </trkpt>
      <trkpt lat="49.28258" lon="-0.24666">
        <ele>2.06</ele>
        <time>2016-08-12T15:38:55Z</time>
      </trkpt>
      <trkpt lat="49.28222" lon="-0.24678">
        <ele>2.06</ele>
        <time>2016-08-12T15:39:03Z</time>
      </trkpt>
      <trkpt lat="49.28218" lon="-0.24679">
        <ele>2.06</ele>
        <time>2016-08-12T15:39:04Z</time>
      </trkpt>
      <trkpt lat="49.28209" lon="-0.2468">
        <ele>2.06</ele>
        <time>2016-08-12T15:39:06Z</time>
      </trkpt>
      <trkpt lat="49.28158" lon="-0.24695">
        <ele>2.54</ele>
        <time>2016-08-12T15:39:20Z</time>
      </trkpt>
      <trkpt lat="49.28139" lon="-0.24699">
        <ele>2.06</ele>
        <time>2016-08-12T15:39:30Z</time>
      </trkpt>
      <trkpt lat="49.28137" lon="-0.24698">
        <ele>2.54</ele>
        <time>2016-08-12T15:39:31Z</time>
      </trkpt>
      <trkpt lat="49.28134" lon="-0.24699">
        <ele>2.54</ele>
        <time>2016-08-12T15:39:32Z</time>
      </trkpt>
      <trkpt lat="49.28086" lon="-0.24715">
        <ele>2.06</ele>
        <time>2016-08-12T15:39:45Z</time>
      </trkpt>
      <trkpt lat="49.28036" lon="-0.2473">
        <ele>3.98</ele>
        <time>2016-08-12T15:39:59Z</time>
      </trkpt>
      <trkpt lat="49.28023" lon="-0.24734">
        <ele>5.42</ele>
        <time>2016-08-12T15:40:10Z</time>
      </trkpt>
      <trkpt lat="49.28019" lon="-0.24735">
        <ele>5.91</ele>
        <time>2016-08-12T15:40:14Z</time>
      </trkpt>
      <trkpt lat="49.28018" lon="-0.24736">
        <ele>6.39</ele>
        <time>2016-08-12T15:40:15Z</time>
      </trkpt>
      <trkpt lat="49.28017" lon="-0.24737">
        <ele>6.39</ele>
        <time>2016-08-12T15:40:16Z</time>
      </trkpt>
      <trkpt lat="49.28016" lon="-0.24737">
        <ele>5.91</ele>
        <time>2016-08-12T15:40:17Z</time>
      </trkpt>
      <trkpt lat="49.28009" lon="-0.24739">
        <ele>5.42</ele>
        <time>2016-08-12T15:40:29Z</time>
      </trkpt>
      <trkpt lat="49.28006" lon="-0.24738">
        <ele>5.91</ele>
        <time>2016-08-12T15:40:41Z</time>
      </trkpt>
      <trkpt lat="49.28003" lon="-0.2474">
        <ele>6.39</ele>
        <time>2016-08-12T15:40:55Z</time>
      </trkpt>
      <trkpt lat="49.28002" lon="-0.24741">
        <ele>5.91</ele>
        <time>2016-08-12T15:41:12Z</time>
      </trkpt>
      <trkpt lat="49.28001" lon="-0.2474">
        <ele>5.91</ele>
        <time>2016-08-12T15:41:34Z</time>
      </trkpt>
      <trkpt lat="49.28001" lon="-0.2474">
        <ele>5.91</ele>
        <time>2016-08-12T15:41:49Z</time>
      </trkpt>
      <trkpt lat="49.28001" lon="-0.2474">
        <ele>6.39</ele>
        <time>2016-08-12T15:42:14Z</time>
      </trkpt>
      <trkpt lat="49.27995" lon="-0.24741">
        <ele>5.42</ele>
        <time>2016-08-12T15:42:27Z</time>
      </trkpt>
      <trkpt lat="49.27991" lon="-0.24741">
        <ele>5.42</ele>
        <time>2016-08-12T15:42:37Z</time>
      </trkpt>
      <trkpt lat="49.27992" lon="-0.24742">
        <ele>6.39</ele>
        <time>2016-08-12T15:43:05Z</time>
      </trkpt>
      <trkpt lat="49.27991" lon="-0.24741">
        <ele>6.87</ele>
        <time>2016-08-12T15:43:32Z</time>
      </trkpt>
      <trkpt lat="49.27973" lon="-0.24751">
        <ele>4.94</ele>
        <time>2016-08-12T15:43:43Z</time>
      </trkpt>
      <trkpt lat="49.27924" lon="-0.2477">
        <ele>4.94</ele>
        <time>2016-08-12T15:43:57Z</time>
      </trkpt>
      <trkpt lat="49.2792" lon="-0.24772">
        <ele>4.94</ele>
        <time>2016-08-12T15:43:58Z</time>
      </trkpt>
      <trkpt lat="49.27916" lon="-0.24774">
        <ele>4.94</ele>
        <time>2016-08-12T15:43:59Z</time>
      </trkpt>
      <trkpt lat="49.27912" lon="-0.24776">
        <ele>4.94</ele>
        <time>2016-08-12T15:44:00Z</time>
      </trkpt>
      <trkpt lat="49.27907" lon="-0.24777">
        <ele>5.42</ele>
        <time>2016-08-12T15:44:01Z</time>
      </trkpt>
      <trkpt lat="49.27904" lon="-0.24778">
        <ele>5.42</ele>
        <time>2016-08-12T15:44:02Z</time>
      </trkpt>
      <trkpt lat="49.27884" lon="-0.24787">
        <ele>5.42</ele>
        <time>2016-08-12T15:44:10Z</time>
      </trkpt>
      <trkpt lat="49.27875" lon="-0.24786">
        <ele>5.42</ele>
        <time>2016-08-12T15:44:12Z</time>
      </trkpt>
      <trkpt lat="49.27871" lon="-0.24787">
        <ele>5.42</ele>
        <time>2016-08-12T15:44:13Z</time>
      </trkpt>
      <trkpt lat="49.27788" lon="-0.24816">
        <ele>5.42</ele>
        <time>2016-08-12T15:44:29Z</time>
      </trkpt>
      <trkpt lat="49.27782" lon="-0.24816">
        <ele>5.42</ele>
        <time>2016-08-12T15:44:30Z</time>
      </trkpt>
      <trkpt lat="49.27776" lon="-0.24816">
        <ele>5.42</ele>
        <time>2016-08-12T15:44:31Z</time>
      </trkpt>
      <trkpt lat="49.2777" lon="-0.24814">
        <ele>5.42</ele>
        <time>2016-08-12T15:44:32Z</time>
      </trkpt>
      <trkpt lat="49.27765" lon="-0.2481">
        <ele>5.42</ele>
        <time>2016-08-12T15:44:33Z</time>
      </trkpt>
      <trkpt lat="49.2776" lon="-0.24804">
        <ele>5.42</ele>
        <time>2016-08-12T15:44:34Z</time>
      </trkpt>
      <trkpt lat="49.27756" lon="-0.24798">
        <ele>5.42</ele>
        <time>2016-08-12T15:44:35Z</time>
      </trkpt>
      <trkpt lat="49.27753" lon="-0.2479">
        <ele>5.42</ele>
        <time>2016-08-12T15:44:36Z</time>
      </trkpt>
      <trkpt lat="49.2775" lon="-0.24782">
        <ele>5.91</ele>
        <time>2016-08-12T15:44:37Z</time>
      </trkpt>
      <trkpt lat="49.27746" lon="-0.24774">
        <ele>5.91</ele>
        <time>2016-08-12T15:44:38Z</time>
      </trkpt>
      <trkpt lat="49.27699" lon="-0.24689">
        <ele>5.42</ele>
        <time>2016-08-12T15:44:50Z</time>
      </trkpt>
      <trkpt lat="49.27694" lon="-0.24683">
        <ele>5.42</ele>
        <time>2016-08-12T15:44:51Z</time>
      </trkpt>
      <trkpt lat="49.27683" lon="-0.24673">
        <ele>4.94</ele>
        <time>2016-08-12T15:44:53Z</time>
      </trkpt>
      <trkpt lat="49.27677" lon="-0.24669">
        <ele>4.94</ele>
        <time>2016-08-12T15:44:54Z</time>
      </trkpt>
      <trkpt lat="49.27666" lon="-0.24661">
        <ele>4.94</ele>
        <time>2016-08-12T15:44:56Z</time>
      </trkpt>
      <trkpt lat="49.27654" lon="-0.24656">
        <ele>5.42</ele>
        <time>2016-08-12T15:44:58Z</time>
      </trkpt>
      <trkpt lat="49.27647" lon="-0.24654">
        <ele>5.42</ele>
        <time>2016-08-12T15:44:59Z</time>
      </trkpt>
      <trkpt lat="49.27555" lon="-0.24668">
        <ele>3.98</ele>
        <time>2016-08-12T15:45:13Z</time>
      </trkpt>
      <trkpt lat="49.27542" lon="-0.24671">
        <ele>4.46</ele>
        <time>2016-08-12T15:45:15Z</time>
      </trkpt>
      <trkpt lat="49.27528" lon="-0.24674">
        <ele>4.46</ele>
        <time>2016-08-12T15:45:17Z</time>
      </trkpt>
      <trkpt lat="49.27428" lon="-0.24703">
        <ele>4.46</ele>
        <time>2016-08-12T15:45:32Z</time>
      </trkpt>
      <trkpt lat="49.27405" lon="-0.2471">
        <ele>3.98</ele>
        <time>2016-08-12T15:45:36Z</time>
      </trkpt>
      <trkpt lat="49.27394" lon="-0.24712">
        <ele>3.98</ele>
        <time>2016-08-12T15:45:38Z</time>
      </trkpt>
      <trkpt lat="49.27326" lon="-0.24732">
        <ele>5.42</ele>
        <time>2016-08-12T15:45:51Z</time>
      </trkpt>
      <trkpt lat="49.27325" lon="-0.24735">
        <ele>5.42</ele>
        <time>2016-08-12T15:45:52Z</time>
      </trkpt>
      <trkpt lat="49.27323" lon="-0.24736">
        <ele>5.91</ele>
        <time>2016-08-12T15:45:53Z</time>
      </trkpt>
      <trkpt lat="49.27322" lon="-0.24735">
        <ele>5.42</ele>
        <time>2016-08-12T15:46:02Z</time>
      </trkpt>
      <trkpt lat="49.27322" lon="-0.24731">
        <ele>5.42</ele>
        <time>2016-08-12T15:46:03Z</time>
      </trkpt>
      <trkpt lat="49.27324" lon="-0.24729">
        <ele>4.94</ele>
        <time>2016-08-12T15:46:04Z</time>
      </trkpt>
      <trkpt lat="49.27326" lon="-0.24727">
        <ele>4.94</ele>
        <time>2016-08-12T15:46:05Z</time>
      </trkpt>
      <trkpt lat="49.27329" lon="-0.24725">
        <ele>4.94</ele>
        <time>2016-08-12T15:46:06Z</time>
      </trkpt>
      <trkpt lat="49.27332" lon="-0.24724">
        <ele>4.94</ele>
        <time>2016-08-12T15:46:07Z</time>
      </trkpt>
      <trkpt lat="49.27336" lon="-0.24723">
        <ele>4.94</ele>
        <time>2016-08-12T15:46:08Z</time>
      </trkpt>
      <trkpt lat="49.27341" lon="-0.24722">
        <ele>4.94</ele>
        <time>2016-08-12T15:46:09Z</time>
      </trkpt>
      <trkpt lat="49.27411" lon="-0.24702">
        <ele>4.46</ele>
        <time>2016-08-12T15:46:22Z</time>
      </trkpt>
      <trkpt lat="49.27495" lon="-0.24677">
        <ele>3.98</ele>
        <time>2016-08-12T15:46:37Z</time>
      </trkpt>
      <trkpt lat="49.27578" lon="-0.24653">
        <ele>5.42</ele>
        <time>2016-08-12T15:46:52Z</time>
      </trkpt>
      <trkpt lat="49.27667" lon="-0.24654">
        <ele>6.39</ele>
        <time>2016-08-12T15:47:08Z</time>
      </trkpt>
      <trkpt lat="49.27682" lon="-0.24664">
        <ele>6.39</ele>
        <time>2016-08-12T15:47:11Z</time>
      </trkpt>
      <trkpt lat="49.27693" lon="-0.24673">
        <ele>5.91</ele>
        <time>2016-08-12T15:47:13Z</time>
      </trkpt>
      <trkpt lat="49.27697" lon="-0.24678">
        <ele>5.91</ele>
        <time>2016-08-12T15:47:14Z</time>
      </trkpt>
      <trkpt lat="49.27764" lon="-0.24794">
        <ele>3.5</ele>
        <time>2016-08-12T15:47:31Z</time>
      </trkpt>
      <trkpt lat="49.27769" lon="-0.248">
        <ele>3.5</ele>
        <time>2016-08-12T15:47:32Z</time>
      </trkpt>
      <trkpt lat="49.27774" lon="-0.24803">
        <ele>3.5</ele>
        <time>2016-08-12T15:47:33Z</time>
      </trkpt>
      <trkpt lat="49.2778" lon="-0.24805">
        <ele>3.02</ele>
        <time>2016-08-12T15:47:34Z</time>
      </trkpt>
      <trkpt lat="49.27786" lon="-0.24805">
        <ele>3.5</ele>
        <time>2016-08-12T15:47:35Z</time>
      </trkpt>
      <trkpt lat="49.27792" lon="-0.24803">
        <ele>3.5</ele>
        <time>2016-08-12T15:47:36Z</time>
      </trkpt>
      <trkpt lat="49.27808" lon="-0.248">
        <ele>3.98</ele>
        <time>2016-08-12T15:47:39Z</time>
      </trkpt>
      <trkpt lat="49.27814" lon="-0.248">
        <ele>3.98</ele>
        <time>2016-08-12T15:47:40Z</time>
      </trkpt>
      <trkpt lat="49.27824" lon="-0.24798">
        <ele>4.46</ele>
        <time>2016-08-12T15:47:42Z</time>
      </trkpt>
      <trkpt lat="49.27835" lon="-0.24795">
        <ele>3.98</ele>
        <time>2016-08-12T15:47:44Z</time>
      </trkpt>
      <trkpt lat="49.27839" lon="-0.24798">
        <ele>3.98</ele>
        <time>2016-08-12T15:47:45Z</time>
      </trkpt>
      <trkpt lat="49.27841" lon="-0.24805">
        <ele>3.98</ele>
        <time>2016-08-12T15:47:46Z</time>
      </trkpt>
      <trkpt lat="49.27843" lon="-0.24812">
        <ele>3.98</ele>
        <time>2016-08-12T15:47:47Z</time>
      </trkpt>
      <trkpt lat="49.27844" lon="-0.2482">
        <ele>3.98</ele>
        <time>2016-08-12T15:47:48Z</time>
      </trkpt>
      <trkpt lat="49.27846" lon="-0.24833">
        <ele>3.98</ele>
        <time>2016-08-12T15:47:50Z</time>
      </trkpt>
      <trkpt lat="49.27848" lon="-0.2485">
        <ele>3.5</ele>
        <time>2016-08-12T15:47:55Z</time>
      </trkpt>
      <trkpt lat="49.27848" lon="-0.24852">
        <ele>3.5</ele>
        <time>2016-08-12T15:47:56Z</time>
      </trkpt>
      <trkpt lat="49.27848" lon="-0.24854">
        <ele>3.02</ele>
        <time>2016-08-12T15:47:57Z</time>
      </trkpt>
      <trkpt lat="49.27848" lon="-0.24856">
        <ele>3.02</ele>
        <time>2016-08-12T15:47:58Z</time>
      </trkpt>
      <trkpt lat="49.27848" lon="-0.24859">
        <ele>3.02</ele>
        <time>2016-08-12T15:47:59Z</time>
      </trkpt>
      <trkpt lat="49.27854" lon="-0.24903">
        <ele>3.5</ele>
        <time>2016-08-12T15:48:11Z</time>
      </trkpt>
      <trkpt lat="49.27853" lon="-0.24913">
        <ele>3.5</ele>
        <time>2016-08-12T15:48:13Z</time>
      </trkpt>
      <trkpt lat="49.2785" lon="-0.24918">
        <ele>3.5</ele>
        <time>2016-08-12T15:48:14Z</time>
      </trkpt>
      <trkpt lat="49.27847" lon="-0.24922">
        <ele>3.5</ele>
        <time>2016-08-12T15:48:15Z</time>
      </trkpt>
      <trkpt lat="49.27843" lon="-0.24924">
        <ele>3.5</ele>
        <time>2016-08-12T15:48:16Z</time>
      </trkpt>
      <trkpt lat="49.27839" lon="-0.24924">
        <ele>3.02</ele>
        <time>2016-08-12T15:48:17Z</time>
      </trkpt>
      <trkpt lat="49.27836" lon="-0.24924">
        <ele>3.02</ele>
        <time>2016-08-12T15:48:18Z</time>
      </trkpt>
      <trkpt lat="49.27818" lon="-0.24938">
        <ele>3.02</ele>
        <time>2016-08-12T15:48:28Z</time>
      </trkpt>
      <trkpt lat="49.27816" lon="-0.24968">
        <ele>3.98</ele>
        <time>2016-08-12T15:48:39Z</time>
      </trkpt>
      <trkpt lat="49.27817" lon="-0.24971">
        <ele>3.98</ele>
        <time>2016-08-12T15:48:40Z</time>
      </trkpt>
      <trkpt lat="49.27836" lon="-0.25009">
        <ele>3.02</ele>
        <time>2016-08-12T15:48:49Z</time>
      </trkpt>
      <trkpt lat="49.2784" lon="-0.25011">
        <ele>3.02</ele>
        <time>2016-08-12T15:48:50Z</time>
      </trkpt>
      <trkpt lat="49.27844" lon="-0.25011">
        <ele>3.02</ele>
        <time>2016-08-12T15:48:51Z</time>
      </trkpt>
      <trkpt lat="49.27848" lon="-0.2501">
        <ele>2.54</ele>
        <time>2016-08-12T15:48:52Z</time>
      </trkpt>
      <trkpt lat="49.27853" lon="-0.25008">
        <ele>2.54</ele>
        <time>2016-08-12T15:48:53Z</time>
      </trkpt>
      <trkpt lat="49.27865" lon="-0.25004">
        <ele>2.06</ele>
        <time>2016-08-12T15:48:55Z</time>
      </trkpt>
      <trkpt lat="49.27872" lon="-0.25002">
        <ele>2.06</ele>
        <time>2016-08-12T15:48:56Z</time>
      </trkpt>
      <trkpt lat="49.27937" lon="-0.24985">
        <ele>2.06</ele>
        <time>2016-08-12T15:49:06Z</time>
      </trkpt>
      <trkpt lat="49.28019" lon="-0.24962">
        <ele>1.58</ele>
        <time>2016-08-12T15:49:20Z</time>
      </trkpt>
      <trkpt lat="49.28024" lon="-0.24962">
        <ele>1.1</ele>
        <time>2016-08-12T15:49:21Z</time>
      </trkpt>
      <trkpt lat="49.28028" lon="-0.24963">
        <ele>1.1</ele>
        <time>2016-08-12T15:49:22Z</time>
      </trkpt>
      <trkpt lat="49.28031" lon="-0.24967">
        <ele>1.1</ele>
        <time>2016-08-12T15:49:23Z</time>
      </trkpt>
      <trkpt lat="49.28033" lon="-0.24971">
        <ele>0.62</ele>
        <time>2016-08-12T15:49:24Z</time>
      </trkpt>
      <trkpt lat="49.28034" lon="-0.24975">
        <ele>0.62</ele>
        <time>2016-08-12T15:49:25Z</time>
      </trkpt>
      <trkpt lat="49.28037" lon="-0.24982">
        <ele>0.62</ele>
        <time>2016-08-12T15:49:27Z</time>
      </trkpt>
      <trkpt lat="49.28038" lon="-0.24985">
        <ele>1.1</ele>
        <time>2016-08-12T15:49:28Z</time>
      </trkpt>
      <trkpt lat="49.2804" lon="-0.24989">
        <ele>1.1</ele>
        <time>2016-08-12T15:49:29Z</time>
      </trkpt>
      <trkpt lat="49.28041" lon="-0.24993">
        <ele>1.58</ele>
        <time>2016-08-12T15:49:30Z</time>
      </trkpt>
      <trkpt lat="49.28043" lon="-0.24996">
        <ele>1.58</ele>
        <time>2016-08-12T15:49:31Z</time>
      </trkpt>
      <trkpt lat="49.28045" lon="-0.24998">
        <ele>1.58</ele>
        <time>2016-08-12T15:49:32Z</time>
      </trkpt>
      <trkpt lat="49.28046" lon="-0.25001">
        <ele>1.58</ele>
        <time>2016-08-12T15:49:33Z</time>
      </trkpt>
      <trkpt lat="49.28047" lon="-0.25003">
        <ele>1.58</ele>
        <time>2016-08-12T15:49:34Z</time>
      </trkpt>
      <trkpt lat="49.28048" lon="-0.25005">
        <ele>1.58</ele>
        <time>2016-08-12T15:49:35Z</time>
      </trkpt>
      <trkpt lat="49.28051" lon="-0.25007">
        <ele>1.1</ele>
        <time>2016-08-12T15:49:36Z</time>
      </trkpt>
      <trkpt lat="49.28054" lon="-0.25008">
        <ele>1.1</ele>
        <time>2016-08-12T15:49:37Z</time>
      </trkpt>
      <trkpt lat="49.28058" lon="-0.25007">
        <ele>0.62</ele>
        <time>2016-08-12T15:49:38Z</time>
      </trkpt>
      <trkpt lat="49.28062" lon="-0.25005">
        <ele>0.62</ele>
        <time>2016-08-12T15:49:39Z</time>
      </trkpt>
      <trkpt lat="49.28067" lon="-0.25003">
        <ele>0.14</ele>
        <time>2016-08-12T15:49:40Z</time>
      </trkpt>
      <trkpt lat="49.28073" lon="-0.25">
        <ele>0.14</ele>
        <time>2016-08-12T15:49:41Z</time>
      </trkpt>
      <trkpt lat="49.28156" lon="-0.2497">
        <ele>0.62</ele>
        <time>2016-08-12T15:49:55Z</time>
      </trkpt>
      <trkpt lat="49.28224" lon="-0.2495">
        <ele>3.98</ele>
        <time>2016-08-12T15:50:07Z</time>
      </trkpt>
      <trkpt lat="49.2823" lon="-0.24951">
        <ele>3.98</ele>
        <time>2016-08-12T15:50:08Z</time>
      </trkpt>
      <trkpt lat="49.28235" lon="-0.24954">
        <ele>4.46</ele>
        <time>2016-08-12T15:50:09Z</time>
      </trkpt>
      <trkpt lat="49.2824" lon="-0.24957">
        <ele>4.94</ele>
        <time>2016-08-12T15:50:10Z</time>
      </trkpt>
      <trkpt lat="49.28245" lon="-0.24961">
        <ele>4.94</ele>
        <time>2016-08-12T15:50:11Z</time>
      </trkpt>
      <trkpt lat="49.2825" lon="-0.24965">
        <ele>4.94</ele>
        <time>2016-08-12T15:50:12Z</time>
      </trkpt>
      <trkpt lat="49.28254" lon="-0.2497">
        <ele>5.42</ele>
        <time>2016-08-12T15:50:13Z</time>
      </trkpt>
      <trkpt lat="49.28258" lon="-0.24976">
        <ele>5.42</ele>
        <time>2016-08-12T15:50:14Z</time>
      </trkpt>
      <trkpt lat="49.28261" lon="-0.24983">
        <ele>5.42</ele>
        <time>2016-08-12T15:50:15Z</time>
      </trkpt>
      <trkpt lat="49.28263" lon="-0.2499">
        <ele>5.91</ele>
        <time>2016-08-12T15:50:16Z</time>
      </trkpt>
      <trkpt lat="49.28265" lon="-0.24997">
        <ele>5.91</ele>
        <time>2016-08-12T15:50:17Z</time>
      </trkpt>
      <trkpt lat="49.28268" lon="-0.25003">
        <ele>5.91</ele>
        <time>2016-08-12T15:50:18Z</time>
      </trkpt>
      <trkpt lat="49.2827" lon="-0.25009">
        <ele>6.39</ele>
        <time>2016-08-12T15:50:19Z</time>
      </trkpt>
      <trkpt lat="49.28273" lon="-0.25021">
        <ele>6.87</ele>
        <time>2016-08-12T15:50:21Z</time>
      </trkpt>
      <trkpt lat="49.28273" lon="-0.25028">
        <ele>6.87</ele>
        <time>2016-08-12T15:50:22Z</time>
      </trkpt>
      <trkpt lat="49.28272" lon="-0.2504">
        <ele>6.87</ele>
        <time>2016-08-12T15:50:24Z</time>
      </trkpt>
      <trkpt lat="49.28274" lon="-0.25045">
        <ele>6.39</ele>
        <time>2016-08-12T15:50:25Z</time>
      </trkpt>
      <trkpt lat="49.28277" lon="-0.25049">
        <ele>6.39</ele>
        <time>2016-08-12T15:50:26Z</time>
      </trkpt>
      <trkpt lat="49.28281" lon="-0.25051">
        <ele>5.91</ele>
        <time>2016-08-12T15:50:27Z</time>
      </trkpt>
      <trkpt lat="49.28286" lon="-0.25052">
        <ele>5.91</ele>
        <time>2016-08-12T15:50:28Z</time>
      </trkpt>
      <trkpt lat="49.28292" lon="-0.25054">
        <ele>5.91</ele>
        <time>2016-08-12T15:50:29Z</time>
      </trkpt>
      <trkpt lat="49.28297" lon="-0.25055">
        <ele>5.91</ele>
        <time>2016-08-12T15:50:30Z</time>
      </trkpt>
      <trkpt lat="49.28303" lon="-0.25055">
        <ele>5.91</ele>
        <time>2016-08-12T15:50:31Z</time>
      </trkpt>
      <trkpt lat="49.28314" lon="-0.25052">
        <ele>6.39</ele>
        <time>2016-08-12T15:50:33Z</time>
      </trkpt>
      <trkpt lat="49.28339" lon="-0.25047">
        <ele>6.39</ele>
        <time>2016-08-12T15:50:38Z</time>
      </trkpt>
      <trkpt lat="49.28344" lon="-0.25047">
        <ele>5.91</ele>
        <time>2016-08-12T15:50:39Z</time>
      </trkpt>
      <trkpt lat="49.2835" lon="-0.25046">
        <ele>5.42</ele>
        <time>2016-08-12T15:50:40Z</time>
      </trkpt>
      <trkpt lat="49.2836" lon="-0.25043">
        <ele>5.42</ele>
        <time>2016-08-12T15:50:42Z</time>
      </trkpt>
      <trkpt lat="49.28386" lon="-0.25034">
        <ele>3.98</ele>
        <time>2016-08-12T15:50:47Z</time>
      </trkpt>
      <trkpt lat="49.28425" lon="-0.25023">
        <ele>3.02</ele>
        <time>2016-08-12T15:50:54Z</time>
      </trkpt>
      <trkpt lat="49.28431" lon="-0.25021">
        <ele>3.02</ele>
        <time>2016-08-12T15:50:55Z</time>
      </trkpt>
      <trkpt lat="49.28443" lon="-0.25018">
        <ele>2.54</ele>
        <time>2016-08-12T15:50:57Z</time>
      </trkpt>
      <trkpt lat="49.28449" lon="-0.25016">
        <ele>2.54</ele>
        <time>2016-08-12T15:50:58Z</time>
      </trkpt>
      <trkpt lat="49.28454" lon="-0.25015">
        <ele>2.06</ele>
        <time>2016-08-12T15:50:59Z</time>
      </trkpt>
      <trkpt lat="49.28458" lon="-0.25014">
        <ele>2.06</ele>
        <time>2016-08-12T15:51:00Z</time>
      </trkpt>
      <trkpt lat="49.28463" lon="-0.25013">
        <ele>1.58</ele>
        <time>2016-08-12T15:51:01Z</time>
      </trkpt>
      <trkpt lat="49.28537" lon="-0.24993">
        <ele>2.06</ele>
        <time>2016-08-12T15:51:14Z</time>
      </trkpt>
      <trkpt lat="49.28598" lon="-0.24967">
        <ele>2.54</ele>
        <time>2016-08-12T15:51:25Z</time>
      </trkpt>
      <trkpt lat="49.28653" lon="-0.24944">
        <ele>2.54</ele>
        <time>2016-08-12T15:51:35Z</time>
      </trkpt>
      <trkpt lat="49.28686" lon="-0.24931">
        <ele>3.98</ele>
        <time>2016-08-12T15:51:41Z</time>
      </trkpt>
      <trkpt lat="49.28692" lon="-0.24933">
        <ele>4.46</ele>
        <time>2016-08-12T15:51:42Z</time>
      </trkpt>
      <trkpt lat="49.28697" lon="-0.24937">
        <ele>4.46</ele>
        <time>2016-08-12T15:51:43Z</time>
      </trkpt>
      <trkpt lat="49.28702" lon="-0.24942">
        <ele>4.46</ele>
        <time>2016-08-12T15:51:44Z</time>
      </trkpt>
      <trkpt lat="49.28706" lon="-0.24946">
        <ele>4.46</ele>
        <time>2016-08-12T15:51:45Z</time>
      </trkpt>
      <trkpt lat="49.2871" lon="-0.24949">
        <ele>4.46</ele>
        <time>2016-08-12T15:51:46Z</time>
      </trkpt>
      <trkpt lat="49.28715" lon="-0.24952">
        <ele>3.98</ele>
        <time>2016-08-12T15:51:47Z</time>
      </trkpt>
      <trkpt lat="49.28719" lon="-0.24956">
        <ele>3.98</ele>
        <time>2016-08-12T15:51:48Z</time>
      </trkpt>
      <trkpt lat="49.28723" lon="-0.24961">
        <ele>3.5</ele>
        <time>2016-08-12T15:51:49Z</time>
      </trkpt>
      <trkpt lat="49.28726" lon="-0.24967">
        <ele>3.98</ele>
        <time>2016-08-12T15:51:50Z</time>
      </trkpt>
      <trkpt lat="49.2873" lon="-0.24972">
        <ele>3.98</ele>
        <time>2016-08-12T15:51:51Z</time>
      </trkpt>
      <trkpt lat="49.28733" lon="-0.24978">
        <ele>3.98</ele>
        <time>2016-08-12T15:51:52Z</time>
      </trkpt>
      <trkpt lat="49.28736" lon="-0.24985">
        <ele>3.5</ele>
        <time>2016-08-12T15:51:53Z</time>
      </trkpt>
      <trkpt lat="49.2874" lon="-0.24991">
        <ele>3.5</ele>
        <time>2016-08-12T15:51:54Z</time>
      </trkpt>
      <trkpt lat="49.28749" lon="-0.25012">
        <ele>2.54</ele>
        <time>2016-08-12T15:51:57Z</time>
      </trkpt>
      <trkpt lat="49.28752" lon="-0.25019">
        <ele>2.06</ele>
        <time>2016-08-12T15:51:58Z</time>
      </trkpt>
      <trkpt lat="49.28754" lon="-0.25024">
        <ele>2.06</ele>
        <time>2016-08-12T15:51:59Z</time>
      </trkpt>
      <trkpt lat="49.28757" lon="-0.25029">
        <ele>2.06</ele>
        <time>2016-08-12T15:52:00Z</time>
      </trkpt>
      <trkpt lat="49.28761" lon="-0.25033">
        <ele>2.06</ele>
        <time>2016-08-12T15:52:01Z</time>
      </trkpt>
      <trkpt lat="49.28764" lon="-0.25034">
        <ele>2.06</ele>
        <time>2016-08-12T15:52:02Z</time>
      </trkpt>
      <trkpt lat="49.28767" lon="-0.25033">
        <ele>2.06</ele>
        <time>2016-08-12T15:52:03Z</time>
      </trkpt>
      <trkpt lat="49.28771" lon="-0.25032">
        <ele>2.06</ele>
        <time>2016-08-12T15:52:04Z</time>
      </trkpt>
      <trkpt lat="49.28774" lon="-0.25031">
        <ele>2.54</ele>
        <time>2016-08-12T15:52:05Z</time>
      </trkpt>
      <trkpt lat="49.28778" lon="-0.25031">
        <ele>2.54</ele>
        <time>2016-08-12T15:52:06Z</time>
      </trkpt>
      <trkpt lat="49.28786" lon="-0.25034">
        <ele>2.54</ele>
        <time>2016-08-12T15:52:09Z</time>
      </trkpt>
      <trkpt lat="49.28795" lon="-0.25045">
        <ele>3.02</ele>
        <time>2016-08-12T15:52:12Z</time>
      </trkpt>
      <trkpt lat="49.28798" lon="-0.2505">
        <ele>3.02</ele>
        <time>2016-08-12T15:52:13Z</time>
      </trkpt>
      <trkpt lat="49.288" lon="-0.25056">
        <ele>3.02</ele>
        <time>2016-08-12T15:52:14Z</time>
      </trkpt>
      <trkpt lat="49.2882" lon="-0.2511">
        <ele>3.5</ele>
        <time>2016-08-12T15:52:22Z</time>
      </trkpt>
      <trkpt lat="49.28856" lon="-0.25228">
        <ele>4.94</ele>
        <time>2016-08-12T15:52:37Z</time>
      </trkpt>
      <trkpt lat="49.28868" lon="-0.25282">
        <ele>4.46</ele>
        <time>2016-08-12T15:52:44Z</time>
      </trkpt>
      <trkpt lat="49.28874" lon="-0.25336">
        <ele>3.02</ele>
        <time>2016-08-12T15:52:54Z</time>
      </trkpt>
      <trkpt lat="49.28875" lon="-0.25384">
        <ele>3.02</ele>
        <time>2016-08-12T15:53:02Z</time>
      </trkpt>
      <trkpt lat="49.28875" lon="-0.25391">
        <ele>3.5</ele>
        <time>2016-08-12T15:53:03Z</time>
      </trkpt>
      <trkpt lat="49.28876" lon="-0.25398">
        <ele>3.5</ele>
        <time>2016-08-12T15:53:04Z</time>
      </trkpt>
      <trkpt lat="49.28884" lon="-0.25435">
        <ele>3.02</ele>
        <time>2016-08-12T15:53:12Z</time>
      </trkpt>
      <trkpt lat="49.28879" lon="-0.25475">
        <ele>3.98</ele>
        <time>2016-08-12T15:53:20Z</time>
      </trkpt>
      <trkpt lat="49.28877" lon="-0.25507">
        <ele>3.5</ele>
        <time>2016-08-12T15:53:27Z</time>
      </trkpt>
      <trkpt lat="49.28877" lon="-0.25515">
        <ele>3.5</ele>
        <time>2016-08-12T15:53:28Z</time>
      </trkpt>
      <trkpt lat="49.28876" lon="-0.25523">
        <ele>3.98</ele>
        <time>2016-08-12T15:53:29Z</time>
      </trkpt>
      <trkpt lat="49.28875" lon="-0.25529">
        <ele>3.98</ele>
        <time>2016-08-12T15:53:30Z</time>
      </trkpt>
      <trkpt lat="49.28875" lon="-0.25535">
        <ele>3.98</ele>
        <time>2016-08-12T15:53:31Z</time>
      </trkpt>
      <trkpt lat="49.28875" lon="-0.25539">
        <ele>3.98</ele>
        <time>2016-08-12T15:53:32Z</time>
      </trkpt>
      <trkpt lat="49.28875" lon="-0.25544">
        <ele>3.98</ele>
        <time>2016-08-12T15:53:33Z</time>
      </trkpt>
      <trkpt lat="49.28876" lon="-0.25548">
        <ele>3.98</ele>
        <time>2016-08-12T15:53:34Z</time>
      </trkpt>
      <trkpt lat="49.28892" lon="-0.25623">
        <ele>3.98</ele>
        <time>2016-08-12T15:53:44Z</time>
      </trkpt>
      <trkpt lat="49.28893" lon="-0.25631">
        <ele>4.46</ele>
        <time>2016-08-12T15:53:45Z</time>
      </trkpt>
      <trkpt lat="49.28894" lon="-0.2564">
        <ele>4.46</ele>
        <time>2016-08-12T15:53:46Z</time>
      </trkpt>
      <trkpt lat="49.28902" lon="-0.25677">
        <ele>4.46</ele>
        <time>2016-08-12T15:53:51Z</time>
      </trkpt>
      <trkpt lat="49.28904" lon="-0.25684">
        <ele>3.98</ele>
        <time>2016-08-12T15:53:52Z</time>
      </trkpt>
      <trkpt lat="49.28907" lon="-0.25691">
        <ele>3.98</ele>
        <time>2016-08-12T15:53:53Z</time>
      </trkpt>
      <trkpt lat="49.28909" lon="-0.25698">
        <ele>3.98</ele>
        <time>2016-08-12T15:53:54Z</time>
      </trkpt>
      <trkpt lat="49.28909" lon="-0.25707">
        <ele>4.46</ele>
        <time>2016-08-12T15:53:55Z</time>
      </trkpt>
      <trkpt lat="49.2891" lon="-0.25714">
        <ele>4.46</ele>
        <time>2016-08-12T15:53:56Z</time>
      </trkpt>
      <trkpt lat="49.2891" lon="-0.25722">
        <ele>4.46</ele>
        <time>2016-08-12T15:53:57Z</time>
      </trkpt>
      <trkpt lat="49.28909" lon="-0.25729">
        <ele>4.46</ele>
        <time>2016-08-12T15:53:58Z</time>
      </trkpt>
      <trkpt lat="49.28908" lon="-0.25736">
        <ele>4.46</ele>
        <time>2016-08-12T15:53:59Z</time>
      </trkpt>
      <trkpt lat="49.28908" lon="-0.25742">
        <ele>4.94</ele>
        <time>2016-08-12T15:54:00Z</time>
      </trkpt>
      <trkpt lat="49.28909" lon="-0.25748">
        <ele>4.94</ele>
        <time>2016-08-12T15:54:01Z</time>
      </trkpt>
      <trkpt lat="49.28911" lon="-0.25753">
        <ele>4.94</ele>
        <time>2016-08-12T15:54:02Z</time>
      </trkpt>
      <trkpt lat="49.28914" lon="-0.25756">
        <ele>4.46</ele>
        <time>2016-08-12T15:54:03Z</time>
      </trkpt>
      <trkpt lat="49.28918" lon="-0.25759">
        <ele>4.46</ele>
        <time>2016-08-12T15:54:04Z</time>
      </trkpt>
      <trkpt lat="49.28921" lon="-0.25763">
        <ele>4.94</ele>
        <time>2016-08-12T15:54:05Z</time>
      </trkpt>
      <trkpt lat="49.28924" lon="-0.25769">
        <ele>4.94</ele>
        <time>2016-08-12T15:54:06Z</time>
      </trkpt>
      <trkpt lat="49.28926" lon="-0.25776">
        <ele>4.46</ele>
        <time>2016-08-12T15:54:07Z</time>
      </trkpt>
      <trkpt lat="49.28928" lon="-0.25784">
        <ele>4.46</ele>
        <time>2016-08-12T15:54:08Z</time>
      </trkpt>
      <trkpt lat="49.28929" lon="-0.25792">
        <ele>4.94</ele>
        <time>2016-08-12T15:54:09Z</time>
      </trkpt>
      <trkpt lat="49.28931" lon="-0.25801">
        <ele>4.94</ele>
        <time>2016-08-12T15:54:10Z</time>
      </trkpt>
      <trkpt lat="49.28934" lon="-0.25817">
        <ele>5.42</ele>
        <time>2016-08-12T15:54:12Z</time>
      </trkpt>
      <trkpt lat="49.28937" lon="-0.25829">
        <ele>4.94</ele>
        <time>2016-08-12T15:54:14Z</time>
      </trkpt>
      <trkpt lat="49.28945" lon="-0.25847">
        <ele>4.94</ele>
        <time>2016-08-12T15:54:17Z</time>
      </trkpt>
      <trkpt lat="49.28948" lon="-0.25853">
        <ele>4.94</ele>
        <time>2016-08-12T15:54:18Z</time>
      </trkpt>
      <trkpt lat="49.28952" lon="-0.25859">
        <ele>4.94</ele>
        <time>2016-08-12T15:54:19Z</time>
      </trkpt>
      <trkpt lat="49.28969" lon="-0.25892">
        <ele>5.42</ele>
        <time>2016-08-12T15:54:24Z</time>
      </trkpt>
      <trkpt lat="49.28983" lon="-0.25969">
        <ele>5.42</ele>
        <time>2016-08-12T15:54:33Z</time>
      </trkpt>
      <trkpt lat="49.28985" lon="-0.25977">
        <ele>5.42</ele>
        <time>2016-08-12T15:54:34Z</time>
      </trkpt>
      <trkpt lat="49.28999" lon="-0.2603">
        <ele>4.46</ele>
        <time>2016-08-12T15:54:45Z</time>
      </trkpt>
      <trkpt lat="49.29008" lon="-0.26054">
        <ele>3.5</ele>
        <time>2016-08-12T15:54:51Z</time>
      </trkpt>
      <trkpt lat="49.29007" lon="-0.2606">
        <ele>3.5</ele>
        <time>2016-08-12T15:54:52Z</time>
      </trkpt>
      <trkpt lat="49.29006" lon="-0.26067">
        <ele>3.5</ele>
        <time>2016-08-12T15:54:53Z</time>
      </trkpt>
      <trkpt lat="49.29002" lon="-0.26082">
        <ele>3.5</ele>
        <time>2016-08-12T15:54:55Z</time>
      </trkpt>
      <trkpt lat="49.29002" lon="-0.2609">
        <ele>3.5</ele>
        <time>2016-08-12T15:54:56Z</time>
      </trkpt>
      <trkpt lat="49.29003" lon="-0.26099">
        <ele>3.02</ele>
        <time>2016-08-12T15:54:57Z</time>
      </trkpt>
      <trkpt lat="49.29005" lon="-0.26108">
        <ele>3.02</ele>
        <time>2016-08-12T15:54:58Z</time>
      </trkpt>
      <trkpt lat="49.29008" lon="-0.26116">
        <ele>3.02</ele>
        <time>2016-08-12T15:54:59Z</time>
      </trkpt>
      <trkpt lat="49.29016" lon="-0.26152">
        <ele>3.02</ele>
        <time>2016-08-12T15:55:03Z</time>
      </trkpt>
      <trkpt lat="49.29017" lon="-0.26161">
        <ele>3.02</ele>
        <time>2016-08-12T15:55:04Z</time>
      </trkpt>
      <trkpt lat="49.29018" lon="-0.26171">
        <ele>3.02</ele>
        <time>2016-08-12T15:55:05Z</time>
      </trkpt>
      <trkpt lat="49.29018" lon="-0.2618">
        <ele>3.02</ele>
        <time>2016-08-12T15:55:06Z</time>
      </trkpt>
      <trkpt lat="49.29016" lon="-0.2619">
        <ele>3.5</ele>
        <time>2016-08-12T15:55:07Z</time>
      </trkpt>
      <trkpt lat="49.29015" lon="-0.26199">
        <ele>3.5</ele>
        <time>2016-08-12T15:55:08Z</time>
      </trkpt>
      <trkpt lat="49.29014" lon="-0.26209">
        <ele>3.02</ele>
        <time>2016-08-12T15:55:09Z</time>
      </trkpt>
      <trkpt lat="49.29013" lon="-0.26219">
        <ele>3.02</ele>
        <time>2016-08-12T15:55:10Z</time>
      </trkpt>
      <trkpt lat="49.29014" lon="-0.26229">
        <ele>3.02</ele>
        <time>2016-08-12T15:55:11Z</time>
      </trkpt>
      <trkpt lat="49.29016" lon="-0.26239">
        <ele>3.02</ele>
        <time>2016-08-12T15:55:12Z</time>
      </trkpt>
      <trkpt lat="49.29018" lon="-0.26249">
        <ele>3.02</ele>
        <time>2016-08-12T15:55:13Z</time>
      </trkpt>
      <trkpt lat="49.2902" lon="-0.26258">
        <ele>3.5</ele>
        <time>2016-08-12T15:55:14Z</time>
      </trkpt>
      <trkpt lat="49.29048" lon="-0.26397">
        <ele>3.98</ele>
        <time>2016-08-12T15:55:27Z</time>
      </trkpt>
      <trkpt lat="49.29058" lon="-0.2643">
        <ele>3.98</ele>
        <time>2016-08-12T15:55:30Z</time>
      </trkpt>
      <trkpt lat="49.29086" lon="-0.26579">
        <ele>3.98</ele>
        <time>2016-08-12T15:55:44Z</time>
      </trkpt>
      <trkpt lat="49.29091" lon="-0.26607">
        <ele>3.98</ele>
        <time>2016-08-12T15:55:48Z</time>
      </trkpt>
      <trkpt lat="49.29091" lon="-0.26613">
        <ele>4.46</ele>
        <time>2016-08-12T15:55:49Z</time>
      </trkpt>
      <trkpt lat="49.2909" lon="-0.26618">
        <ele>3.98</ele>
        <time>2016-08-12T15:55:50Z</time>
      </trkpt>
      <trkpt lat="49.29088" lon="-0.2662">
        <ele>3.98</ele>
        <time>2016-08-12T15:55:51Z</time>
      </trkpt>
      <trkpt lat="49.29085" lon="-0.26621">
        <ele>3.98</ele>
        <time>2016-08-12T15:55:52Z</time>
      </trkpt>
      <trkpt lat="49.29082" lon="-0.26622">
        <ele>3.98</ele>
        <time>2016-08-12T15:55:53Z</time>
      </trkpt>
      <trkpt lat="49.29039" lon="-0.26639">
        <ele>4.46</ele>
        <time>2016-08-12T15:56:03Z</time>
      </trkpt>
      <trkpt lat="49.29017" lon="-0.26645">
        <ele>4.94</ele>
        <time>2016-08-12T15:56:09Z</time>
      </trkpt>
      <trkpt lat="49.28989" lon="-0.26657">
        <ele>5.42</ele>
        <time>2016-08-12T15:56:14Z</time>
      </trkpt>
      <trkpt lat="49.28933" lon="-0.2668">
        <ele>4.94</ele>
        <time>2016-08-12T15:56:25Z</time>
      </trkpt>
      <trkpt lat="49.28901" lon="-0.26694">
        <ele>4.94</ele>
        <time>2016-08-12T15:56:33Z</time>
      </trkpt>
      <trkpt lat="49.28864" lon="-0.26707">
        <ele>4.94</ele>
        <time>2016-08-12T15:56:41Z</time>
      </trkpt>
      <trkpt lat="49.28834" lon="-0.26718">
        <ele>5.42</ele>
        <time>2016-08-12T15:56:51Z</time>
      </trkpt>
      <trkpt lat="49.28827" lon="-0.26722">
        <ele>6.39</ele>
        <time>2016-08-12T15:56:53Z</time>
      </trkpt>
      <trkpt lat="49.28823" lon="-0.26726">
        <ele>6.39</ele>
        <time>2016-08-12T15:56:54Z</time>
      </trkpt>
      <trkpt lat="49.288" lon="-0.26734">
        <ele>6.39</ele>
        <time>2016-08-12T15:56:59Z</time>
      </trkpt>
      <trkpt lat="49.28784" lon="-0.2674">
        <ele>6.39</ele>
        <time>2016-08-12T15:57:02Z</time>
      </trkpt>
      <trkpt lat="49.28745" lon="-0.26755">
        <ele>4.94</ele>
        <time>2016-08-12T15:57:09Z</time>
      </trkpt>
      <trkpt lat="49.2874" lon="-0.26758">
        <ele>4.94</ele>
        <time>2016-08-12T15:57:10Z</time>
      </trkpt>
      <trkpt lat="49.28723" lon="-0.26767">
        <ele>4.46</ele>
        <time>2016-08-12T15:57:13Z</time>
      </trkpt>
      <trkpt lat="49.28684" lon="-0.2678">
        <ele>3.02</ele>
        <time>2016-08-12T15:57:23Z</time>
      </trkpt>
      <trkpt lat="49.2867" lon="-0.26783">
        <ele>1.58</ele>
        <time>2016-08-12T15:57:34Z</time>
      </trkpt>
      <trkpt lat="49.28668" lon="-0.26781">
        <ele>1.58</ele>
        <time>2016-08-12T15:57:35Z</time>
      </trkpt>
      <trkpt lat="49.28665" lon="-0.26778">
        <ele>2.06</ele>
        <time>2016-08-12T15:57:36Z</time>
      </trkpt>
      <trkpt lat="49.28663" lon="-0.26774">
        <ele>2.06</ele>
        <time>2016-08-12T15:57:37Z</time>
      </trkpt>
      <trkpt lat="49.28662" lon="-0.2677">
        <ele>2.06</ele>
        <time>2016-08-12T15:57:38Z</time>
      </trkpt>
      <trkpt lat="49.28653" lon="-0.26757">
        <ele>2.06</ele>
        <time>2016-08-12T15:57:41Z</time>
      </trkpt>
      <trkpt lat="49.28651" lon="-0.26751">
        <ele>2.06</ele>
        <time>2016-08-12T15:57:42Z</time>
      </trkpt>
      <trkpt lat="49.28649" lon="-0.26745">
        <ele>2.06</ele>
        <time>2016-08-12T15:57:43Z</time>
      </trkpt>
      <trkpt lat="49.28634" lon="-0.26704">
        <ele>2.06</ele>
        <time>2016-08-12T15:57:55Z</time>
      </trkpt>
      <trkpt lat="49.28628" lon="-0.26689">
        <ele>3.5</ele>
        <time>2016-08-12T15:58:09Z</time>
      </trkpt>
      <trkpt lat="49.28615" lon="-0.26663">
        <ele>2.54</ele>
        <time>2016-08-12T15:58:15Z</time>
      </trkpt>
      <trkpt lat="49.2861" lon="-0.26663">
        <ele>2.54</ele>
        <time>2016-08-12T15:58:16Z</time>
      </trkpt>
      <trkpt lat="49.28605" lon="-0.26665">
        <ele>2.06</ele>
        <time>2016-08-12T15:58:17Z</time>
      </trkpt>
      <trkpt lat="49.286" lon="-0.26669">
        <ele>2.54</ele>
        <time>2016-08-12T15:58:18Z</time>
      </trkpt>
      <trkpt lat="49.28594" lon="-0.26675">
        <ele>2.54</ele>
        <time>2016-08-12T15:58:19Z</time>
      </trkpt>
      <trkpt lat="49.28514" lon="-0.26741">
        <ele>1.58</ele>
        <time>2016-08-12T15:58:31Z</time>
      </trkpt>
      <trkpt lat="49.28509" lon="-0.26749">
        <ele>1.58</ele>
        <time>2016-08-12T15:58:32Z</time>
      </trkpt>
      <trkpt lat="49.28508" lon="-0.26759">
        <ele>1.58</ele>
        <time>2016-08-12T15:58:33Z</time>
      </trkpt>
      <trkpt lat="49.28509" lon="-0.26769">
        <ele>1.58</ele>
        <time>2016-08-12T15:58:34Z</time>
      </trkpt>
      <trkpt lat="49.28512" lon="-0.26778">
        <ele>1.58</ele>
        <time>2016-08-12T15:58:35Z</time>
      </trkpt>
      <trkpt lat="49.28515" lon="-0.26787">
        <ele>1.58</ele>
        <time>2016-08-12T15:58:36Z</time>
      </trkpt>
      <trkpt lat="49.28519" lon="-0.26796">
        <ele>1.58</ele>
        <time>2016-08-12T15:58:37Z</time>
      </trkpt>
      <trkpt lat="49.28548" lon="-0.26876">
        <ele>1.58</ele>
        <time>2016-08-12T15:58:46Z</time>
      </trkpt>
      <trkpt lat="49.2855" lon="-0.26886">
        <ele>1.58</ele>
        <time>2016-08-12T15:58:47Z</time>
      </trkpt>
      <trkpt lat="49.28549" lon="-0.26896">
        <ele>1.58</ele>
        <time>2016-08-12T15:58:48Z</time>
      </trkpt>
      <trkpt lat="49.28548" lon="-0.26905">
        <ele>1.58</ele>
        <time>2016-08-12T15:58:49Z</time>
      </trkpt>
      <trkpt lat="49.28546" lon="-0.26914">
        <ele>1.58</ele>
        <time>2016-08-12T15:58:50Z</time>
      </trkpt>
      <trkpt lat="49.28543" lon="-0.26922">
        <ele>1.58</ele>
        <time>2016-08-12T15:58:51Z</time>
      </trkpt>
      <trkpt lat="49.2854" lon="-0.2693">
        <ele>1.58</ele>
        <time>2016-08-12T15:58:52Z</time>
      </trkpt>
      <trkpt lat="49.28532" lon="-0.26964">
        <ele>1.58</ele>
        <time>2016-08-12T15:58:56Z</time>
      </trkpt>
      <trkpt lat="49.28532" lon="-0.26973">
        <ele>1.58</ele>
        <time>2016-08-12T15:58:57Z</time>
      </trkpt>
      <trkpt lat="49.28534" lon="-0.26979">
        <ele>1.1</ele>
        <time>2016-08-12T15:58:58Z</time>
      </trkpt>
      <trkpt lat="49.28537" lon="-0.26982">
        <ele>1.1</ele>
        <time>2016-08-12T15:58:59Z</time>
      </trkpt>
      <trkpt lat="49.28539" lon="-0.26987">
        <ele>1.1</ele>
        <time>2016-08-12T15:59:08Z</time>
      </trkpt>
      <trkpt lat="49.28545" lon="-0.27004">
        <ele>0.62</ele>
        <time>2016-08-12T15:59:19Z</time>
      </trkpt>
      <trkpt lat="49.28545" lon="-0.27007">
        <ele>0.62</ele>
        <time>2016-08-12T15:59:20Z</time>
      </trkpt>
      <trkpt lat="49.28543" lon="-0.27021">
        <ele>-0.34</ele>
        <time>2016-08-12T15:59:23Z</time>
      </trkpt>
      <trkpt lat="49.28541" lon="-0.27028">
        <ele>-0.34</ele>
        <time>2016-08-12T15:59:24Z</time>
      </trkpt>
      <trkpt lat="49.2854" lon="-0.27036">
        <ele>-0.34</ele>
        <time>2016-08-12T15:59:25Z</time>
      </trkpt>
      <trkpt lat="49.2854" lon="-0.27043">
        <ele>-0.34</ele>
        <time>2016-08-12T15:59:26Z</time>
      </trkpt>
      <trkpt lat="49.28541" lon="-0.2705">
        <ele>-0.34</ele>
        <time>2016-08-12T15:59:27Z</time>
      </trkpt>
      <trkpt lat="49.28542" lon="-0.27055">
        <ele>-0.82</ele>
        <time>2016-08-12T15:59:28Z</time>
      </trkpt>
      <trkpt lat="49.28543" lon="-0.27058">
        <ele>-0.34</ele>
        <time>2016-08-12T15:59:29Z</time>
      </trkpt>
      <trkpt lat="49.28544" lon="-0.27061">
        <ele>-0.34</ele>
        <time>2016-08-12T15:59:30Z</time>
      </trkpt>
      <trkpt lat="49.28546" lon="-0.27065">
        <ele>-0.34</ele>
        <time>2016-08-12T15:59:31Z</time>
      </trkpt>
      <trkpt lat="49.28551" lon="-0.27083">
        <ele>-0.34</ele>
        <time>2016-08-12T15:59:34Z</time>
      </trkpt>
      <trkpt lat="49.28557" lon="-0.27101">
        <ele>0.14</ele>
        <time>2016-08-12T15:59:37Z</time>
      </trkpt>
      <trkpt lat="49.2857" lon="-0.27144">
        <ele>-0.34</ele>
        <time>2016-08-12T15:59:44Z</time>
      </trkpt>
      <trkpt lat="49.28572" lon="-0.27149">
        <ele>-0.34</ele>
        <time>2016-08-12T15:59:45Z</time>
      </trkpt>
      <trkpt lat="49.28575" lon="-0.27153">
        <ele>-0.34</ele>
        <time>2016-08-12T15:59:46Z</time>
      </trkpt>
      <trkpt lat="49.28578" lon="-0.27154">
        <ele>-0.34</ele>
        <time>2016-08-12T15:59:47Z</time>
      </trkpt>
      <trkpt lat="49.28581" lon="-0.27152">
        <ele>-0.34</ele>
        <time>2016-08-12T15:59:48Z</time>
      </trkpt>
      <trkpt lat="49.28584" lon="-0.2715">
        <ele>-0.82</ele>
        <time>2016-08-12T15:59:49Z</time>
      </trkpt>
      <trkpt lat="49.28586" lon="-0.27148">
        <ele>-0.82</ele>
        <time>2016-08-12T15:59:50Z</time>
      </trkpt>
      <trkpt lat="49.28591" lon="-0.27144">
        <ele>-0.82</ele>
        <time>2016-08-12T15:59:52Z</time>
      </trkpt>
      <trkpt lat="49.28593" lon="-0.27138">
        <ele>0.14</ele>
        <time>2016-08-12T16:00:01Z</time>
      </trkpt>
    </trkseg>
  </trk>
</gpx>